GFSSE_sfc_wetblb_021.txt.gz
Wetbulb
69.34 71.09 71.01 71.46 71.61 71.36 70.88 70.84 70.97 70.98 71.23 71.03 70.28 69.87 69.57 69.18 69.21 69.66 69.65 69.48 69.02 68.04 68.14 68.08 67.97 67.80 67.90 67.83 67.45 67.20 66.85 66.93 66.81 67.25 67.76 68.56 69.37 69.46 69.02 69.82 69.95 68.84 70.15
70.51 71.48 70.22 70.95 71.58 71.17 71.09 71.29 71.19 71.16 71.07 70.01 69.47 69.08 68.91 68.60 68.68 68.48 68.97 68.73 67.65 67.10 66.84 66.46 65.69 65.35 65.08 64.74 64.41 64.61 65.10 65.36 65.76 66.50 66.85 68.35 68.60 69.08 68.64 67.88 68.88 68.78 69.14
70.46 71.44 70.74 70.46 71.52 71.27 71.49 71.79 71.58 71.14 70.28 69.86 68.96 68.50 68.14 67.44 67.20 67.10 67.64 67.71 67.05 65.89 65.52 64.88 64.29 64.00 63.39 63.19 63.20 63.32 63.61 64.20 64.56 64.89 65.63 67.27 67.08 68.05 68.38 69.23 68.88 69.02 68.82
70.58 71.35 70.64 70.37 71.17 71.40 71.60 71.73 71.41 70.81 70.32 69.42 68.65 68.19 67.20 66.74 66.67 66.35 66.28 66.74 66.47 64.71 64.19 63.72 63.03 63.19 63.44 63.65 63.69 63.64 63.89 63.72 63.84 64.31 66.67 67.11 66.44 67.78 68.24 67.46 67.05 67.88 68.17
70.24 70.86 70.48 70.16 70.65 71.28 71.35 71.40 71.04 70.86 70.24 69.39 68.73 67.59 66.54 65.93 65.80 65.61 65.85 66.02 65.80 64.49 64.49 63.50 63.22 63.39 63.36 63.55 63.52 63.50 63.87 62.95 63.16 66.03 66.21 66.85 66.64 67.76 67.97 66.39 67.27 67.39 67.86
70.02 70.70 69.67 69.68 70.51 71.30 71.35 71.37 70.99 70.39 69.49 69.00 68.56 67.49 65.93 65.46 64.90 64.77 65.77 65.92 65.18 65.06 64.50 64.07 63.83 63.63 63.73 64.17 63.67 63.25 63.30 62.23 62.89 65.56 65.77 65.44 66.78 67.44 67.15 67.54 67.63 67.73 67.73
69.51 70.45 70.76 68.77 69.73 70.87 71.40 71.03 70.38 69.76 69.12 68.82 68.39 67.71 66.45 64.92 64.48 64.42 65.42 65.46 65.06 64.70 64.55 64.27 64.10 64.11 64.30 64.36 63.29 62.72 62.84 61.84 61.94 62.76 63.56 64.79 66.52 66.71 66.67 66.54 66.66 67.47 67.38
69.24 70.37 70.78 69.45 69.66 70.06 70.48 70.06 68.89 68.89 68.63 68.44 67.97 67.43 66.25 65.46 65.39 64.60 64.41 64.76 64.36 64.38 64.26 64.02 63.97 64.07 64.36 64.03 63.49 62.52 61.92 60.49 59.37 60.13 61.39 61.63 64.63 65.97 66.32 65.88 66.61 66.20 66.52
69.39 69.92 70.11 70.49 70.12 68.88 68.39 68.18 67.59 67.88 67.85 67.69 67.25 66.97 66.21 65.43 65.36 65.26 64.92 64.35 64.21 65.04 64.77 64.41 64.25 64.30 64.13 63.66 63.36 62.49 60.03 59.02 59.51 59.11 58.77 59.97 62.68 64.41 65.29 64.92 64.78 65.10 64.97
68.79 68.36 68.33 69.61 69.70 69.88 69.67 67.13 67.04 66.86 66.58 66.60 66.57 65.66 64.73 64.68 64.72 64.45 63.05 64.59 64.69 64.41 64.38 64.41 64.49 64.34 63.88 62.83 62.57 62.37 59.97 58.61 59.50 59.10 59.07 58.73 61.25 62.86 63.63 63.71 63.71 63.36 63.44
66.68 66.93 66.88 67.57 68.59 68.50 68.13 67.45 66.50 66.69 66.16 65.87 66.01 64.70 63.88 64.80 64.87 64.63 63.60 63.98 64.34 64.20 64.11 63.89 63.70 63.32 61.33 61.13 61.05 61.57 60.55 61.83 60.99 60.08 59.66 57.67 60.03 62.42 63.07 64.06 64.56 64.22 63.06
64.44 64.61 65.96 67.07 66.77 66.11 65.39 66.47 66.24 65.82 65.97 65.91 65.80 65.61 65.41 65.18 65.19 64.28 63.59 62.75 62.66 61.78 61.50 61.92 61.55 60.57 60.94 61.33 61.66 61.41 61.63 61.44 60.99 60.69 60.22 57.60 59.72 61.31 62.10 63.60 64.48 64.53 64.37
64.06 65.77 65.83 65.63 65.27 64.57 64.49 65.32 64.57 65.14 65.33 65.46 65.36 65.59 65.75 65.73 65.77 65.87 65.49 63.19 62.37 59.81 61.11 60.74 60.80 60.19 60.03 59.97 59.50 59.35 59.07 59.12 59.01 58.71 58.93 57.60 59.27 61.27 62.24 62.17 62.53 63.81 64.58
64.14 64.66 64.10 64.16 63.87 63.50 63.94 63.89 63.91 64.43 64.84 65.06 65.78 65.78 66.05 65.08 64.60 64.10 61.22 60.69 60.73 60.37 59.97 59.87 59.81 59.38 58.33 57.34 57.12 57.35 57.46 56.82 57.37 57.60 58.37 56.46 57.69 59.62 61.19 62.16 62.28 62.31 62.56
61.74 62.30 62.89 62.66 62.59 62.50 62.95 63.16 63.36 63.50 64.23 64.73 64.87 64.43 64.20 62.88 61.50 60.78 60.03 59.08 58.81 58.81 58.26 58.11 57.48 56.67 55.89 55.52 55.14 54.72 54.09 54.77 54.71 54.69 55.46 55.67 55.94 57.65 59.36 60.25 60.85 60.85 60.94
60.68 61.69 62.50 62.36 62.11 62.18 62.51 62.22 62.18 62.85 62.75 63.10 62.61 62.16 61.89 61.78 60.91 59.72 57.61 57.23 57.49 57.42 56.88 56.69 55.72 54.60 54.05 53.98 53.55 53.41 52.99 53.29 52.95 53.80 53.85 55.04 53.45 53.62 54.49 55.53 56.35 56.74 57.51
61.35 62.09 62.27 62.16 62.48 61.59 61.23 61.87 60.60 58.45 57.95 58.89 59.71 60.07 59.78 60.23 57.89 56.81 56.65 56.74 56.52 56.11 55.66 55.80 54.31 53.62 53.08 52.54 52.01 52.04 52.03 52.47 51.64 53.03 53.70 54.66 54.02 51.05 50.42 51.92 52.51 52.85 53.83
62.13 62.41 62.35 61.52 61.28 61.30 61.27 61.39 60.48 58.09 57.55 57.10 57.38 57.10 56.40 56.06 56.66 56.82 54.85 54.87 54.20 53.12 53.02 51.37 52.23 51.40 50.82 50.45 50.42 50.63 51.35 50.96 51.23 52.23 53.94 52.74 52.20 51.26 50.87 49.54 49.87 50.55 50.99
62.15 61.48 61.28 62.22 62.13 61.64 60.29 59.64 58.01 55.62 54.36 53.76 55.34 55.93 56.06 55.50 55.42 54.08 51.71 52.13 52.58 51.81 51.23 50.87 50.76 50.30 49.06 49.25 48.74 49.47 50.15 49.15 50.32 51.82 51.81 50.50 50.47 50.32 49.77 48.81 48.20 48.41 48.82
61.82 61.29 61.67 61.39 59.69 59.56 57.39 56.01 54.44 54.69 54.92 55.52 54.68 53.10 53.63 53.01 53.06 52.84 51.46 51.65 51.45 50.74 50.24 50.61 50.04 50.09 49.33 48.23 46.84 47.51 48.05 48.48 50.39 51.13 49.81 49.45 49.27 49.10 48.74 48.32 48.12 47.98 46.84
60.91 60.90 60.82 59.81 58.98 56.62 54.23 53.86 54.97 54.93 54.61 51.74 51.81 51.86 51.87 51.41 51.27 51.46 50.70 50.54 50.75 50.19 49.53 49.34 49.18 47.67 46.98 47.82 45.23 44.82 45.42 48.62 49.62 48.67 48.95 47.90 47.92 47.67 47.69 47.65 47.27 47.04 46.76
60.59 60.69 60.23 60.04 59.74 56.12 56.17 56.78 57.90 56.71 54.75 51.57 50.84 50.54 50.63 50.63 50.58 50.08 50.78 50.51 50.13 49.47 49.05 47.91 47.44 45.89 45.69 46.60 42.53 41.81 39.66 42.49 47.29 46.45 46.58 46.72 46.20 46.48 46.32 46.31 46.35 46.16 46.36
57.71 59.01 58.73 56.47 56.10 56.12 56.92 55.76 54.79 54.74 53.48 52.16 49.96 49.37 49.44 49.84 49.84 49.86 49.79 49.74 49.12 48.59 47.39 46.49 45.69 44.06 41.56 43.79 43.95 41.46 37.63 36.47 39.02 43.18 43.61 44.20 44.79 44.35 44.91 45.24 45.03 45.14 45.46
52.68 54.24 54.77 54.23 53.87 53.05 53.52 54.16 53.31 52.69 51.80 49.63 49.51 49.95 50.11 49.56 49.26 49.10 49.04 48.64 48.23 47.55 46.23 45.75 44.51 43.24 41.86 38.93 41.11 42.97 41.86 40.44 35.33 34.23 40.01 40.75 41.97 41.61 42.94 43.00 43.22 43.76 44.71
51.30 52.36 52.52 51.87 51.86 52.02 52.19 52.26 51.41 49.91 49.39 49.50 49.57 48.43 49.20 49.34 49.16 48.84 48.44 47.54 46.68 46.60 45.84 44.55 43.79 43.06 43.05 40.72 39.34 38.91 38.83 38.94 38.78 35.79 32.33 35.42 38.70 40.06 41.31 40.47 41.90 41.95 43.60
51.58 51.42 51.20 50.42 49.83 50.87 51.18 50.99 50.60 49.60 48.87 49.15 48.79 48.74 49.33 49.59 49.22 48.61 47.48 46.72 46.25 45.42 44.62 44.22 43.64 41.99 41.60 40.74 40.21 39.24 37.49 35.93 35.02 34.99 33.20 33.85 34.14 36.49 38.47 39.83 40.36 40.87 41.80

GFSSE_sfc_wetblb_024.txt.gz
Wetbulb
70.22 71.10 71.60 71.72 71.92 71.50 71.23 71.17 71.21 71.38 71.68 70.85 70.41 70.09 69.91 69.62 69.41 69.58 69.51 69.43 69.03 68.15 67.93 67.31 66.50 65.91 65.54 65.10 65.25 65.44 66.04 66.24 66.68 67.37 68.19 69.45 69.80 69.72 68.89 68.21 69.19 68.87 69.45
71.30 70.73 70.62 71.42 71.58 71.54 71.39 71.51 71.44 71.41 71.15 70.09 69.77 69.45 69.28 69.02 69.09 69.21 69.02 68.72 67.21 66.54 65.97 65.45 64.82 64.28 63.84 63.80 63.98 64.07 64.70 65.33 65.82 66.56 67.15 68.92 68.99 69.17 69.03 68.65 69.65 69.24 69.38
70.72 70.29 70.52 70.75 71.19 71.44 71.44 71.71 71.64 70.72 70.16 69.46 69.14 68.43 67.97 67.80 67.65 67.48 67.95 67.87 66.32 65.41 64.84 64.18 63.99 64.25 64.68 64.43 64.34 64.93 65.14 65.57 65.49 65.75 67.41 68.19 68.54 68.89 68.35 67.44 67.95 68.48 68.43
70.80 71.01 70.80 70.39 70.94 71.54 71.65 71.59 71.44 70.50 69.77 69.04 68.41 67.68 67.39 67.27 66.88 66.58 66.46 66.85 66.43 64.63 63.94 64.20 64.45 64.48 64.41 64.12 64.17 64.78 64.51 64.88 65.66 66.42 68.09 67.95 67.88 68.13 67.61 67.55 67.01 67.53 67.90
71.39 71.22 71.09 70.18 70.36 71.07 71.31 71.26 71.13 70.62 69.78 69.55 68.65 66.89 66.67 66.38 65.95 65.63 66.25 66.52 66.08 64.98 64.65 64.55 63.99 63.68 63.62 63.84 63.88 63.94 63.79 63.18 64.50 67.43 66.97 67.24 67.47 67.50 67.84 67.39 67.93 67.61 67.32
70.77 71.36 69.33 69.43 70.20 70.70 71.42 71.26 70.91 70.25 69.60 69.16 68.37 67.36 66.02 65.47 65.16 65.21 66.55 66.79 65.53 65.24 64.96 64.81 64.67 63.96 63.84 63.99 63.42 62.91 62.30 62.96 63.94 64.52 65.34 66.32 67.11 67.22 67.04 65.96 66.33 66.64 67.57
69.86 70.96 70.91 68.68 69.07 70.15 70.59 70.97 70.31 69.55 69.18 69.06 68.21 67.34 66.42 64.92 64.68 64.94 65.86 66.42 65.51 65.15 64.84 64.58 64.60 64.39 64.22 64.21 62.41 62.02 62.00 61.87 60.75 60.96 62.08 63.63 65.61 66.43 66.54 65.83 65.22 64.96 66.15
70.15 70.66 70.75 69.15 68.81 68.67 70.58 69.89 69.32 68.88 68.81 68.68 67.87 67.17 65.56 65.23 65.39 64.89 64.74 64.86 64.79 64.81 64.50 64.45 64.57 64.70 64.46 63.99 63.31 61.31 60.97 60.99 61.13 60.63 60.72 61.57 64.48 64.75 64.98 64.80 65.35 65.21 64.46
71.07 70.55 70.40 70.28 69.72 68.62 68.42 67.89 67.74 68.04 68.16 67.75 67.56 66.78 65.96 65.83 65.86 65.45 64.71 64.46 64.65 64.66 64.82 64.70 64.64 64.59 63.95 63.42 62.90 62.21 59.26 59.57 62.20 61.44 60.14 60.69 62.20 63.78 64.09 63.66 63.64 64.07 63.50
70.20 70.44 70.53 70.45 70.47 70.45 70.36 67.20 67.33 66.97 66.83 66.91 66.59 65.68 65.00 65.11 65.06 64.44 64.88 64.92 64.74 64.53 64.51 64.79 64.37 63.67 62.48 62.42 62.42 62.19 61.23 60.46 62.39 62.13 61.92 61.35 61.48 62.99 63.28 63.44 63.10 63.24 63.45
68.69 68.92 69.14 69.91 69.80 70.10 69.51 68.47 66.70 66.74 66.34 66.13 65.78 64.97 64.34 67.45 66.98 65.81 63.76 64.19 64.22 63.38 63.34 63.36 62.99 61.60 61.60 62.16 62.16 61.74 62.24 61.65 62.03 61.70 61.95 60.01 60.95 62.58 62.87 62.83 64.60 63.80 63.38
66.19 67.01 67.52 69.32 69.31 69.12 67.00 67.04 66.26 65.56 66.64 67.87 67.57 67.35 68.69 68.40 68.07 66.24 64.79 62.51 61.44 60.92 61.65 61.32 60.61 61.13 62.57 62.02 61.74 62.62 61.10 61.40 60.93 60.93 61.63 59.22 60.40 62.07 62.97 62.85 62.99 63.37 64.68
66.08 66.23 66.90 68.27 68.37 66.75 66.03 65.46 65.30 66.18 67.69 68.24 68.57 69.03 68.96 68.76 69.33 68.76 66.99 65.30 66.16 61.49 65.01 64.15 64.15 62.08 61.61 61.07 60.56 60.53 60.36 59.90 59.73 59.88 59.97 57.74 59.10 60.80 61.78 62.52 62.73 62.82 62.94
67.10 66.62 67.20 67.22 66.45 66.09 65.17 64.68 65.41 66.77 68.22 68.59 68.42 68.77 69.04 67.84 68.73 68.24 65.23 65.75 65.64 64.94 64.12 63.38 62.55 61.70 60.55 59.61 59.20 58.78 58.30 58.06 57.77 57.52 58.74 56.54 57.63 59.29 60.73 61.03 60.99 60.96 60.90
64.60 65.11 65.14 65.53 65.25 65.27 65.27 65.94 66.64 66.88 66.69 67.12 67.65 67.50 67.18 66.18 66.77 65.38 65.32 64.72 63.60 63.52 62.04 61.56 60.95 59.98 58.88 58.41 58.15 57.21 56.48 56.72 56.65 56.03 56.20 55.77 55.57 56.07 57.28 58.29 58.33 58.08 58.04
63.46 64.32 65.08 64.55 64.92 65.63 66.07 66.52 66.18 65.55 64.34 63.79 64.92 63.95 63.39 63.03 64.44 65.19 64.03 63.09 63.10 61.56 61.00 60.13 58.99 57.85 57.42 57.33 56.72 56.59 56.14 56.24 56.17 55.82 55.85 56.85 52.91 52.22 53.43 54.21 54.68 55.04 55.18
63.18 64.80 65.26 65.24 65.45 65.58 65.50 65.01 63.69 62.43 61.51 61.42 62.39 62.53 61.28 61.68 61.87 62.80 62.15 62.26 60.80 60.15 59.08 58.38 57.66 57.18 56.28 55.72 55.36 55.51 55.22 55.84 55.42 55.15 55.47 55.89 55.68 51.48 50.86 51.24 51.75 52.03 52.41
64.10 64.95 65.51 64.54 63.93 65.15 64.39 63.26 61.47 61.12 61.75 60.66 60.94 60.22 58.59 58.23 59.44 60.51 58.69 57.61 57.52 56.98 56.39 55.97 55.51 54.66 54.59 54.40 54.15 54.28 54.24 55.22 54.79 54.46 54.96 55.48 55.02 54.49 52.94 50.31 49.85 49.95 49.94
65.48 65.16 64.91 65.22 63.85 61.97 60.80 61.72 61.84 59.30 58.22 57.32 57.81 57.85 56.73 56.64 57.24 56.80 56.78 56.25 56.41 55.93 55.26 54.61 54.56 54.19 53.44 53.49 52.94 52.31 52.43 52.66 51.83 50.85 53.05 54.11 53.72 52.95 52.42 52.88 50.54 50.07 48.79
65.61 65.18 64.32 63.82 62.26 62.04 61.25 61.79 57.91 56.83 56.34 58.38 57.59 56.86 57.19 57.44 56.76 57.32 56.45 55.40 55.44 54.86 54.79 54.58 53.81 53.74 52.43 51.62 49.77 48.43 49.84 49.86 50.36 51.33 52.42 52.02 51.70 51.54 51.40 50.93 50.71 50.18 49.59
64.49 63.27 63.41 62.23 63.79 63.04 61.56 59.68 58.13 57.83 57.59 56.66 57.05 56.40 56.17 55.76 55.40 55.57 56.00 55.53 55.16 53.91 53.13 52.62 51.60 50.58 49.61 50.49 48.24 47.55 48.00 49.47 50.74 51.11 51.12 50.29 50.60 50.05 50.04 49.49 49.43 49.10 49.08
61.74 62.57 63.18 63.65 64.29 63.73 62.11 60.67 60.34 59.80 59.34 57.43 56.61 55.73 55.47 55.06 54.65 54.48 54.13 53.49 53.33 51.63 51.66 51.48 50.43 48.95 48.82 48.84 45.24 44.24 42.01 44.79 47.27 48.47 47.78 48.33 47.88 48.48 47.85 48.11 48.14 47.98 47.90
61.85 63.51 63.85 63.86 63.46 60.81 60.78 60.65 60.09 59.24 56.94 56.36 56.42 56.48 54.72 54.74 54.20 53.47 52.73 52.39 51.63 51.07 49.46 50.28 49.44 47.60 45.23 45.99 45.60 42.91 39.98 38.68 41.53 44.63 45.59 45.37 46.35 45.47 45.82 45.92 46.22 46.00 46.41
62.50 63.41 61.73 60.49 59.79 59.58 59.03 58.21 57.42 57.68 56.30 55.38 55.77 55.16 55.42 54.14 52.81 51.93 52.10 52.31 51.77 50.92 49.85 49.20 47.56 46.63 45.16 42.99 44.09 44.36 43.93 42.48 37.87 36.90 42.51 43.39 44.12 43.53 44.12 43.84 44.73 44.20 44.99
61.09 59.95 59.16 58.48 57.62 57.88 58.17 58.02 56.53 54.90 54.27 54.12 54.52 52.46 53.32 53.07 52.70 52.45 52.09 52.00 51.54 50.61 49.40 47.33 46.28 45.68 45.02 43.43 42.87 41.81 41.73 41.23 41.11 37.76 34.61 37.91 41.05 42.27 43.00 42.73 42.53 42.86 43.37
57.87 57.60 57.36 56.63 55.99 56.36 55.97 55.26 54.10 52.48 50.75 51.14 51.01 50.56 50.45 50.93 51.42 51.91 51.50 51.48 50.88 49.77 47.91 47.21 46.98 45.79 44.84 43.53 42.51 41.64 39.87 38.11 37.55 36.70 35.38 36.45 36.78 39.17 41.19 41.77 41.66 42.03 42.46

GFSSE_sfc_wetblb_027.txt.gz
Wetbulb
69.01 70.06 71.25 71.83 71.66 71.53 71.35 71.32 71.20 71.44 71.32 70.61 70.41 70.12 69.61 69.22 69.34 69.83 69.54 69.29 68.44 66.94 66.28 65.57 64.91 64.33 64.41 64.53 64.63 64.93 65.76 66.25 66.65 67.08 69.38 69.83 69.65 69.63 68.82 68.68 69.34 68.52 69.68
69.97 70.07 70.69 71.49 71.61 71.45 71.25 71.40 71.50 71.42 70.72 70.12 69.58 69.12 69.02 69.19 69.07 68.71 68.51 68.16 66.89 65.76 65.10 64.54 64.64 65.14 65.22 65.17 65.50 65.71 66.12 65.98 66.12 66.46 68.02 69.36 69.09 68.85 68.15 67.61 69.18 68.62 69.07
69.90 70.04 70.09 70.94 71.36 71.39 71.37 71.36 71.48 70.51 69.92 69.46 68.76 68.08 68.20 67.90 67.36 67.17 67.61 67.41 66.04 64.86 64.73 65.26 65.37 65.14 64.80 65.11 65.42 65.35 65.80 66.05 65.76 66.96 68.73 67.81 67.46 68.34 68.18 68.15 68.66 67.98 68.36
69.97 69.35 69.28 70.73 71.04 71.62 71.50 71.33 71.14 69.98 69.39 68.49 67.81 67.73 67.39 67.07 66.53 66.11 66.02 66.96 66.43 64.89 65.22 64.58 64.54 64.46 64.49 64.44 64.56 64.68 64.61 64.79 66.11 67.38 66.40 66.79 65.93 67.78 67.30 67.82 68.13 67.28 67.71
69.28 69.18 69.84 70.19 70.53 71.19 70.96 70.91 70.88 70.11 69.71 68.87 68.10 66.97 66.52 66.15 65.68 65.44 66.28 67.30 66.61 65.19 64.95 64.47 63.98 63.30 63.30 63.63 63.81 63.25 63.37 64.46 64.98 64.97 65.72 65.76 65.72 67.04 66.26 65.52 65.79 67.43 66.86
70.59 69.77 68.71 69.34 69.95 70.70 70.40 70.65 70.25 69.91 69.22 68.56 67.78 66.90 65.66 65.48 65.47 66.00 67.03 66.96 65.72 65.34 65.15 65.03 64.61 64.11 63.83 64.04 63.46 62.84 63.57 63.95 63.08 62.39 63.66 65.74 65.84 66.88 66.15 65.43 65.45 65.33 66.87
68.49 69.77 69.43 67.93 68.85 69.61 70.64 70.14 69.60 69.48 69.08 68.50 67.68 67.11 66.01 65.36 65.40 65.85 66.47 66.07 65.47 65.08 64.89 64.87 64.89 64.76 64.30 63.90 63.01 62.71 62.78 63.02 61.64 60.28 61.79 62.33 64.23 65.73 65.13 64.80 64.27 64.20 64.47
68.82 68.67 69.53 68.84 68.76 69.33 70.06 69.68 68.88 68.83 68.92 68.15 67.31 66.57 65.08 65.30 65.59 65.25 65.18 65.13 65.06 64.94 64.77 64.76 64.85 64.62 64.31 63.92 63.60 62.39 61.63 62.40 62.72 61.32 60.84 61.53 64.50 65.11 64.20 63.83 64.02 64.56 64.11
67.40 68.24 68.81 68.95 68.84 68.39 68.03 68.02 67.73 68.06 68.04 67.80 67.32 66.60 65.99 66.30 66.16 65.48 64.91 64.80 64.91 65.03 64.94 65.07 64.69 63.87 63.25 63.22 62.91 62.82 62.19 62.55 62.48 62.23 61.72 61.42 62.71 63.89 63.88 63.57 63.54 63.42 63.10
66.55 68.98 68.90 69.26 69.41 69.57 68.79 67.09 66.90 66.92 66.82 66.94 66.16 65.60 65.32 65.32 65.24 64.90 65.60 65.08 64.89 64.56 64.56 64.53 64.05 63.17 62.51 62.75 62.84 62.49 63.25 63.22 61.66 61.59 62.57 61.55 62.51 63.61 63.75 63.39 63.43 63.53 63.86
67.91 68.63 68.49 68.38 68.92 69.02 67.86 66.91 66.67 66.97 66.68 65.99 65.04 64.76 63.93 66.20 66.09 65.84 64.30 64.24 63.24 62.23 63.00 62.78 62.16 62.33 62.93 62.68 62.78 62.22 62.21 60.99 60.97 60.64 61.84 60.94 61.81 63.05 63.66 63.43 63.36 63.43 64.20
66.69 67.40 68.10 68.69 69.05 68.33 66.17 66.19 65.27 65.08 65.81 66.60 66.57 66.59 67.27 67.27 67.50 65.72 64.41 63.20 61.34 61.20 62.14 61.88 61.67 62.98 62.96 62.21 61.81 62.99 60.75 60.61 59.95 59.69 59.94 59.83 59.87 61.47 62.27 63.07 63.16 63.39 63.56
66.62 66.84 67.36 68.06 68.15 66.75 65.96 65.06 64.30 65.62 66.88 67.55 67.97 68.08 68.11 67.67 67.91 66.93 66.38 64.56 65.31 62.99 64.16 63.34 63.35 62.41 62.11 61.44 60.65 60.45 59.73 59.49 59.03 58.46 58.74 58.60 57.84 59.02 61.12 61.89 61.94 61.82 61.86
66.05 66.80 67.76 67.24 66.56 66.15 64.59 64.01 65.01 66.27 67.13 67.51 67.97 68.22 67.71 66.70 67.33 66.33 64.65 64.09 64.32 63.88 63.16 63.06 62.23 62.10 61.60 60.80 59.87 59.47 58.94 58.19 57.89 57.62 58.07 57.99 57.56 56.78 57.89 59.41 59.52 59.42 58.92
64.70 65.18 65.58 65.81 65.32 64.85 65.14 65.47 67.06 67.10 68.24 67.86 67.74 67.54 67.31 65.89 66.35 64.96 64.97 63.72 63.44 62.95 62.66 62.14 61.80 61.03 60.10 59.64 59.04 58.16 57.47 57.70 57.65 57.08 56.93 56.62 56.14 55.62 55.67 56.24 56.61 56.65 56.51
64.48 64.27 64.95 64.21 64.75 65.46 66.38 66.80 66.80 65.98 65.02 64.65 65.02 65.49 65.97 64.39 65.30 62.90 61.97 60.48 62.36 62.31 62.12 61.05 59.80 58.63 58.11 58.09 57.25 57.65 56.71 56.77 56.83 57.13 56.34 56.54 54.91 54.65 54.19 53.55 53.66 54.35 54.78
64.09 64.85 64.76 65.04 66.60 66.68 65.70 65.04 64.68 64.05 62.40 62.19 63.54 64.21 64.02 62.83 62.56 60.66 59.32 59.83 61.16 59.30 59.46 58.64 58.08 57.32 56.66 56.69 56.12 56.16 56.01 55.60 55.19 56.04 55.28 55.04 55.98 53.55 52.83 51.95 51.54 51.79 51.92
65.01 64.87 65.53 65.24 65.79 66.09 63.82 61.77 60.94 61.60 62.73 62.21 62.23 61.64 59.41 58.93 58.58 59.15 58.33 57.29 57.46 57.89 57.50 56.83 56.21 55.58 55.63 55.18 54.92 54.92 54.37 53.33 53.42 53.87 53.02 53.65 54.95 54.65 53.08 50.79 50.18 50.79 50.57
65.36 65.90 65.18 65.25 64.97 62.44 61.26 61.73 61.99 62.40 61.84 59.36 58.63 58.62 57.62 58.00 58.46 58.14 58.00 57.75 57.94 57.06 56.87 56.45 56.04 55.48 54.35 53.82 52.53 52.31 52.27 50.63 51.27 50.45 51.20 52.27 54.36 53.46 52.51 53.30 52.95 52.11 49.53
65.72 66.20 65.30 64.44 63.55 62.92 62.92 61.77 62.06 59.66 59.41 59.01 58.60 58.74 59.35 59.05 58.56 59.09 57.73 57.29 57.28 56.35 56.06 55.60 54.34 53.81 52.57 51.27 49.24 49.43 51.02 50.25 51.00 50.79 52.11 52.43 52.60 51.93 51.96 51.06 50.43 49.98 51.75
65.35 64.35 64.49 63.33 63.39 63.94 62.84 61.67 60.90 59.58 59.61 59.44 59.76 58.76 58.46 58.13 57.16 57.52 57.33 56.88 56.32 54.87 53.81 53.92 52.61 50.82 49.17 50.12 48.08 47.45 47.74 49.84 50.82 49.86 50.47 50.63 49.41 49.91 49.55 49.35 49.32 48.55 48.62
63.86 63.85 64.37 63.48 63.79 64.35 63.12 63.00 62.30 61.04 60.18 59.39 58.59 58.18 57.76 57.08 56.63 55.92 55.55 54.74 53.95 52.47 51.75 50.90 50.90 48.83 48.39 49.03 45.17 44.25 40.87 43.35 46.65 48.33 47.79 47.66 48.31 47.51 47.54 47.15 46.94 46.89 46.82
61.77 62.58 63.49 63.54 63.92 63.86 62.68 61.90 61.53 61.11 58.88 57.56 57.41 57.30 56.50 56.22 55.29 54.69 53.99 53.03 52.46 51.60 49.93 50.20 49.88 48.34 45.43 47.06 47.63 43.81 39.21 37.72 40.81 43.96 45.14 45.43 47.17 45.66 46.47 45.85 45.71 45.27 45.77
62.08 63.20 63.32 62.78 62.99 61.79 61.74 60.52 59.38 57.89 56.10 57.73 57.44 56.64 56.64 55.35 53.96 53.08 52.45 52.59 52.13 51.35 50.43 49.93 49.31 47.95 46.61 43.99 45.67 45.74 45.15 42.79 37.55 36.48 41.68 43.03 44.41 43.89 45.47 44.79 44.38 44.20 43.98
62.42 62.59 63.31 61.98 60.90 60.61 59.93 59.90 59.07 57.47 56.88 56.26 55.54 53.26 53.37 53.63 52.96 52.73 52.79 52.35 51.61 50.63 50.28 49.53 48.46 47.47 47.06 44.60 43.02 43.10 42.28 41.58 41.33 37.68 34.60 37.56 40.71 42.38 43.57 43.83 43.49 43.20 43.24
63.02 61.19 60.55 59.52 58.69 59.09 58.92 58.25 56.94 54.99 52.70 51.88 51.26 50.72 51.17 51.27 51.18 50.74 50.02 49.91 49.41 49.09 49.31 48.82 48.80 47.65 45.84 44.63 44.57 42.59 40.68 38.54 37.59 36.54 35.26 36.18 37.19 39.65 41.26 42.66 43.22 43.12 43.67

GFSSE_sfc_wetblb_030.txt.gz
Wetbulb
66.51 69.37 71.44 71.94 72.00 71.74 71.27 71.38 71.35 71.26 71.41 71.27 70.94 70.32 70.15 70.03 69.75 69.41 68.83 68.28 67.73 66.27 65.66 65.42 65.72 65.63 65.72 66.18 66.18 66.57 66.57 66.49 66.95 69.58 69.71 69.72 69.27 69.01 68.10 68.63 69.24 67.95 70.07
67.56 69.11 70.86 71.19 71.41 71.42 71.45 71.47 71.20 71.18 70.91 69.80 69.67 70.08 69.72 69.36 69.17 68.68 68.22 67.72 66.74 65.77 66.34 66.12 65.82 65.65 66.47 66.43 66.26 66.58 67.05 67.23 67.62 68.18 69.19 69.11 68.90 69.20 68.20 69.04 69.00 68.09 69.51
67.63 68.88 69.79 70.76 71.13 71.30 71.73 71.53 71.30 70.86 69.58 68.75 69.09 69.31 68.95 68.61 68.05 68.07 67.51 67.04 66.99 65.95 65.86 65.53 65.37 65.53 65.60 65.37 65.11 65.20 65.75 66.81 67.13 67.74 68.39 66.36 65.41 67.68 68.21 68.75 68.62 68.75 69.56
68.29 68.46 69.21 70.69 70.91 71.24 71.30 71.07 70.41 69.87 68.85 68.97 68.78 68.41 68.17 67.21 66.45 66.64 67.59 66.88 66.87 65.31 64.71 64.60 64.40 63.93 63.48 63.19 63.54 64.23 65.29 65.45 65.45 65.81 63.77 64.93 64.98 66.89 65.81 65.68 66.73 67.49 68.22
67.62 68.71 69.83 70.20 70.33 70.58 70.97 70.67 70.00 69.35 68.76 68.43 67.95 67.16 66.39 66.16 66.58 66.59 67.18 66.89 66.95 65.67 65.29 64.97 64.32 63.60 63.32 64.23 64.29 64.63 64.86 64.88 64.79 64.18 62.83 63.66 63.93 66.07 66.17 65.02 64.02 65.88 67.55
67.75 68.96 69.05 68.76 69.27 70.11 70.73 70.42 69.89 69.01 68.14 67.74 67.47 67.27 66.11 66.56 66.72 66.93 67.21 67.05 66.08 65.83 65.59 65.43 65.08 64.60 65.45 64.89 64.46 64.49 64.20 64.12 64.16 60.28 60.43 63.19 63.03 66.08 65.16 64.57 65.46 65.32 66.19
67.61 68.25 68.42 67.61 68.46 69.99 70.22 69.97 69.38 68.54 67.80 67.37 67.12 66.83 66.76 66.09 66.31 66.46 66.76 66.64 65.87 65.42 65.42 65.18 65.05 64.84 65.26 65.08 64.61 64.06 63.54 63.38 60.95 58.27 58.83 61.08 62.67 65.28 64.59 64.18 63.91 64.37 64.65
67.41 67.46 67.68 68.27 68.65 69.04 69.36 68.89 68.57 68.10 67.58 66.90 66.62 66.60 66.30 66.14 66.51 66.53 66.47 66.43 66.26 65.84 65.35 64.98 64.78 64.59 64.40 64.25 64.02 63.40 63.01 63.39 60.66 58.40 59.26 60.10 64.39 65.02 64.54 64.03 65.35 65.02 65.00
67.30 66.70 66.81 67.42 68.53 67.81 67.38 67.41 67.34 67.43 67.15 66.71 66.57 66.36 66.32 66.10 65.91 66.22 66.31 66.08 65.78 65.78 65.52 65.11 64.69 63.76 63.64 63.63 63.00 62.96 62.68 63.19 59.17 59.70 60.10 59.89 64.41 64.47 64.46 64.08 64.74 65.25 64.89
64.27 65.93 66.71 67.16 67.81 66.70 66.00 66.56 66.48 66.55 66.07 65.63 65.68 65.39 64.85 65.01 65.40 65.85 65.72 65.49 65.10 64.65 64.46 64.33 64.09 63.17 63.59 62.70 62.76 61.90 62.30 62.42 57.13 57.86 58.37 59.88 64.08 64.02 64.30 64.41 63.84 64.25 65.69
63.63 64.83 66.11 66.28 66.98 65.89 65.59 66.09 66.34 66.67 65.73 64.87 64.76 64.99 63.70 63.55 63.53 64.63 64.43 64.55 63.80 63.64 64.10 63.91 63.18 62.30 63.57 63.25 63.37 63.26 62.23 57.15 57.04 56.68 56.50 61.85 62.25 62.58 62.93 63.46 63.81 64.09 64.15
60.41 64.04 65.60 66.45 66.88 65.69 63.79 64.12 64.09 64.25 63.29 63.41 63.47 63.29 64.26 65.73 64.34 64.42 63.92 63.78 62.72 62.55 63.25 63.09 62.52 62.90 62.63 58.67 58.18 60.26 56.62 56.86 55.72 55.23 55.29 60.47 60.23 60.11 61.18 62.19 62.41 62.52 62.42
63.50 64.69 65.76 65.32 65.89 63.85 63.53 63.44 63.45 63.91 65.24 65.30 65.99 66.32 66.11 66.60 65.49 63.80 63.79 61.17 60.75 61.76 62.12 60.26 61.22 59.91 59.40 58.49 57.18 56.88 56.45 55.14 54.10 54.31 56.30 58.77 58.80 58.24 58.37 59.56 60.20 60.23 59.97
64.60 64.91 65.89 65.39 65.11 63.63 63.57 62.62 62.73 65.10 64.99 66.32 66.24 66.33 65.60 64.94 64.60 63.65 62.03 62.13 61.76 61.01 60.49 60.38 60.03 59.74 58.91 58.15 56.88 56.50 55.77 54.27 54.18 53.83 54.75 58.03 57.93 56.69 56.79 57.26 57.70 57.93 57.51
63.49 64.72 64.02 64.42 63.95 63.60 64.25 65.04 65.42 65.66 66.09 66.52 65.99 65.25 65.64 64.07 63.46 63.35 61.88 59.79 59.38 59.82 59.70 58.70 57.82 57.15 55.69 55.16 55.91 54.96 54.58 54.25 54.01 53.69 52.86 57.21 57.13 55.71 55.69 56.25 56.35 55.94 55.85
62.98 63.31 63.52 63.44 64.13 64.45 65.41 65.31 64.46 64.18 63.89 63.46 63.18 64.25 64.67 63.30 62.65 61.43 59.88 59.15 59.49 57.52 56.87 55.98 54.77 54.21 54.42 54.99 54.11 54.61 54.43 53.62 52.48 51.97 52.05 52.23 56.19 56.59 55.12 54.59 54.01 53.72 53.41
62.65 62.96 62.69 62.55 64.00 64.92 64.39 63.56 62.83 61.97 61.89 61.88 62.49 63.15 62.80 61.26 60.29 59.41 58.59 56.48 55.87 56.26 54.82 54.51 54.45 54.32 53.54 54.00 52.80 52.83 52.45 51.65 49.43 49.69 50.59 49.84 51.42 55.48 54.50 52.94 52.01 51.91 52.34
62.79 62.63 62.86 63.85 64.56 63.89 62.39 61.90 60.37 60.99 61.89 61.10 60.71 59.03 58.45 58.63 58.97 56.34 56.35 55.88 55.72 55.71 54.74 53.59 53.59 52.50 51.89 51.65 50.37 49.40 48.94 48.41 48.03 48.41 47.94 48.29 47.92 51.28 52.80 52.70 51.07 51.46 51.71
63.28 63.39 63.93 64.76 63.37 62.20 61.94 62.28 62.03 62.19 59.59 58.72 58.29 57.51 57.41 57.44 57.74 56.88 56.39 55.82 55.35 54.39 54.00 53.98 52.31 51.22 49.07 48.14 47.71 45.90 46.56 46.23 46.80 48.22 47.61 48.72 50.06 50.57 49.95 53.47 53.77 53.11 50.00
64.45 64.08 63.87 64.56 63.43 62.61 62.23 61.93 61.41 60.06 59.05 58.67 58.20 57.30 57.71 57.53 57.65 56.88 55.27 54.33 54.43 53.53 52.18 51.55 50.54 49.66 47.34 45.97 47.46 46.60 45.68 45.39 45.27 45.91 46.92 49.05 47.82 48.18 48.89 47.61 47.46 46.85 50.30
64.75 63.69 63.49 62.83 62.59 62.19 61.47 60.52 59.41 57.94 58.11 58.32 58.25 58.18 57.58 56.69 56.12 55.46 54.66 53.96 53.28 51.13 50.17 48.99 47.38 46.43 45.47 45.94 43.36 42.48 42.46 43.01 42.78 43.89 43.46 43.38 44.24 45.98 44.95 45.32 43.52 42.60 43.43
63.73 63.32 62.43 62.15 62.11 62.82 62.71 61.65 60.91 59.17 58.56 58.23 57.08 56.58 56.38 55.74 54.93 54.84 52.98 51.73 50.52 48.77 47.99 48.00 46.77 44.98 44.48 44.72 41.27 40.34 37.15 38.97 41.25 41.97 41.19 42.34 41.35 43.40 43.49 43.59 43.09 43.35 41.31
63.12 63.20 62.32 62.33 62.68 63.08 63.11 62.07 60.67 59.65 57.05 55.46 55.26 54.82 54.51 54.88 53.92 52.67 51.56 50.15 49.27 48.65 47.12 47.11 45.96 44.68 41.43 42.34 43.32 39.60 35.85 33.52 36.62 38.98 39.04 39.97 39.59 39.26 40.20 41.70 42.04 42.60 41.67
62.54 63.45 63.46 63.22 63.32 63.37 62.45 60.00 58.37 56.39 54.07 55.36 55.55 54.46 53.81 54.23 52.66 51.58 50.81 49.96 49.52 48.59 47.28 46.66 46.54 43.96 42.76 40.35 41.36 43.35 40.52 38.08 33.68 32.32 36.24 37.29 38.10 38.83 38.03 38.80 39.77 40.69 40.76
62.38 62.86 63.62 63.54 62.64 60.83 60.16 59.44 58.04 55.24 55.46 54.52 53.11 51.89 51.44 52.26 52.15 51.05 50.25 48.44 47.16 46.92 46.75 46.52 45.58 43.74 43.04 40.88 39.51 39.17 39.03 37.04 36.13 32.74 30.46 32.45 35.94 37.06 37.55 37.42 37.88 38.21 39.56
62.43 62.99 62.32 61.76 59.28 59.44 58.54 58.45 57.02 54.51 52.28 50.62 49.95 49.40 50.11 49.25 48.70 48.27 47.56 45.74 45.68 45.12 44.73 44.75 45.22 45.39 41.85 41.31 40.90 39.82 38.15 35.01 33.75 32.34 30.79 31.77 32.62 34.41 35.75 36.45 36.69 36.92 37.78

GFSSE_sfc_wetblb_033.txt.gz
Wetbulb
68.44 71.03 71.62 72.02 71.90 71.66 71.35 71.37 71.14 71.03 71.01 70.73 70.46 70.05 69.67 69.24 68.76 68.35 67.73 67.48 67.83 66.87 66.61 66.51 66.70 66.69 66.84 67.13 67.28 67.61 67.89 67.68 68.77 69.34 69.17 69.57 69.51 68.95 68.53 68.37 69.19 67.80 69.54
69.68 70.93 70.99 71.48 71.45 71.65 71.60 71.44 70.86 70.60 70.20 69.82 69.95 69.49 69.16 68.80 68.18 67.76 67.68 67.97 67.76 66.48 66.43 66.32 66.44 66.25 66.08 65.72 65.69 65.85 66.27 67.45 67.94 68.16 68.83 67.73 67.72 67.99 68.04 69.21 68.95 68.73 70.07
69.02 70.25 70.46 70.52 71.18 71.61 71.76 71.27 70.68 70.16 69.75 69.32 68.92 68.89 68.34 67.91 68.01 67.64 67.76 67.18 66.98 65.59 65.59 65.09 64.41 63.86 63.72 64.01 65.04 65.93 66.14 65.88 65.85 66.14 67.98 63.32 63.77 66.41 65.68 66.72 68.28 68.17 68.10
68.74 69.19 69.70 70.33 71.07 71.37 71.02 70.38 69.72 69.34 69.05 68.97 68.59 68.20 67.81 67.30 67.28 67.88 67.23 66.62 66.65 65.46 64.89 64.81 64.64 64.31 64.14 64.45 65.24 65.98 65.97 66.06 66.12 65.93 63.39 63.34 64.24 66.50 65.47 64.46 64.52 67.32 67.51
66.96 68.74 69.99 69.86 70.04 70.53 70.16 69.68 69.31 69.09 68.52 68.10 67.69 67.59 67.08 66.81 66.61 67.06 67.40 67.01 67.10 65.73 65.62 65.50 65.15 64.79 64.82 65.23 65.07 65.00 65.17 65.28 65.38 63.05 61.52 61.68 61.68 64.17 64.91 64.20 64.13 64.27 66.03
67.63 68.82 68.36 68.28 68.90 69.48 70.09 69.32 68.70 68.22 67.66 67.19 67.49 67.95 67.11 66.93 66.75 66.82 67.23 66.93 65.94 65.71 65.61 65.26 64.82 64.64 65.24 64.66 64.50 64.34 64.25 64.62 61.09 58.02 59.41 63.28 61.78 65.36 64.77 64.08 64.73 64.30 65.03
67.62 67.83 67.25 67.42 68.38 69.76 69.65 69.01 68.38 67.87 67.23 67.34 67.60 67.54 67.49 66.70 66.38 66.48 67.04 66.54 65.88 65.35 65.16 64.95 64.78 64.90 64.97 64.58 64.33 63.70 63.54 64.05 57.09 57.12 58.99 60.52 62.15 65.26 64.72 64.34 64.30 64.30 64.33
66.24 66.84 67.39 68.08 68.74 68.71 68.79 68.27 67.37 66.94 66.70 66.89 67.02 67.13 67.01 66.77 66.75 66.80 66.88 66.71 66.15 65.81 65.44 64.55 64.50 64.26 64.20 64.13 63.97 63.18 62.54 62.71 58.69 57.09 58.83 59.64 65.00 65.30 65.04 64.52 65.61 65.59 65.36
66.27 66.31 66.37 67.12 67.74 67.50 67.00 66.64 66.20 66.24 66.37 66.41 66.51 66.45 66.34 65.86 66.13 66.56 66.43 66.46 66.19 65.97 65.55 64.70 63.44 62.87 62.92 63.08 63.39 62.58 61.69 62.01 56.45 56.94 60.18 59.77 65.52 64.66 64.76 64.56 64.52 64.54 65.51
65.15 65.57 66.06 66.89 66.49 65.66 65.49 65.80 65.79 65.42 65.55 65.41 65.53 65.24 64.89 64.93 65.53 65.81 65.53 65.53 65.08 64.81 64.61 64.15 63.58 62.57 62.14 61.81 62.38 62.35 60.45 59.44 53.66 55.49 57.27 59.96 64.11 63.14 63.69 63.68 64.19 64.30 64.33
62.69 63.46 64.75 65.29 65.13 64.51 64.20 65.49 65.37 65.41 64.80 64.56 64.55 64.34 63.23 62.08 62.73 63.97 63.86 64.14 63.77 63.33 63.31 63.46 62.97 62.08 62.55 62.30 62.44 62.46 59.38 53.92 53.48 54.30 55.45 61.60 62.57 61.03 61.98 62.48 62.42 62.39 62.54
60.25 60.02 60.55 64.25 64.23 63.32 64.25 63.06 62.69 62.89 61.90 61.41 61.81 62.05 61.23 61.53 61.62 62.53 62.96 63.56 62.90 62.45 62.67 62.67 62.92 62.00 60.23 56.25 55.55 57.85 53.91 53.14 52.69 52.73 54.41 60.04 60.05 59.07 59.76 60.48 60.41 60.51 59.79
60.44 60.85 61.57 63.64 64.00 61.11 61.89 61.08 61.29 61.29 60.41 61.08 61.35 61.45 63.01 63.40 61.43 61.57 61.77 60.11 58.15 61.45 59.17 59.59 60.34 58.90 56.46 55.32 54.41 53.80 53.34 52.33 51.45 51.52 55.55 58.69 58.36 57.93 58.02 59.23 58.88 58.78 57.91
61.36 62.20 62.87 64.55 62.61 61.14 61.79 60.79 60.92 61.95 63.68 63.88 64.16 63.89 62.49 62.46 61.30 60.52 58.86 59.27 59.22 58.42 56.98 56.43 55.44 54.67 53.20 53.77 53.59 52.65 52.61 51.45 52.02 51.32 53.10 57.96 58.63 56.63 57.08 57.92 57.61 57.22 56.42
61.51 62.82 63.34 63.16 61.11 61.34 60.04 62.52 63.48 63.35 63.41 63.47 62.47 63.24 61.89 61.06 59.90 59.01 57.50 57.22 55.97 55.83 55.45 53.34 53.93 52.13 52.23 52.92 52.56 52.63 52.47 51.63 49.94 49.52 48.66 57.46 57.58 56.58 56.40 56.99 56.08 54.97 54.46
63.13 62.66 61.68 60.99 60.22 62.30 63.02 62.82 62.80 61.64 60.85 60.98 61.53 62.36 61.62 60.81 58.37 57.20 56.02 54.87 53.90 53.54 53.87 52.56 52.91 51.95 51.11 51.29 51.32 51.38 50.39 49.14 46.96 46.58 47.91 47.66 56.60 56.82 55.86 55.09 54.16 53.69 53.34
61.90 61.42 60.09 59.77 62.63 62.56 61.09 60.35 59.59 59.48 59.50 59.80 60.91 60.40 58.03 58.03 56.30 55.54 53.77 53.23 52.86 52.75 52.45 51.76 51.34 50.77 50.26 51.28 49.80 48.64 47.93 46.30 46.18 46.39 45.84 46.18 51.09 55.69 55.51 53.61 51.91 52.53 52.09
60.60 59.83 59.66 62.78 61.26 60.11 59.80 58.81 58.34 58.74 58.72 58.85 56.83 56.05 56.11 56.39 54.62 53.92 53.22 52.35 52.52 53.27 51.04 51.12 50.25 49.16 48.02 46.62 45.26 44.25 44.63 44.95 45.28 44.64 45.26 45.61 45.96 50.20 53.93 53.72 52.00 51.78 51.58
60.25 59.54 59.48 61.97 60.13 59.17 59.03 58.42 59.42 57.60 56.66 55.88 55.27 54.01 54.83 55.40 55.61 53.66 52.57 51.48 52.25 51.38 50.66 50.06 48.62 47.57 44.85 43.78 44.28 42.84 43.01 42.83 42.24 45.17 43.84 44.55 44.99 45.76 48.23 53.62 50.35 50.46 49.49
60.03 60.17 62.01 61.14 59.60 59.70 59.23 58.84 58.58 55.84 55.19 55.65 54.60 53.90 54.83 54.71 55.09 52.64 51.66 51.26 50.79 49.36 47.37 47.00 46.19 45.69 44.16 42.96 45.63 43.56 40.77 41.22 41.09 40.80 40.62 43.23 42.88 43.16 44.33 44.93 44.86 45.21 49.80
60.85 61.58 61.53 60.31 59.78 59.35 58.42 57.28 56.61 55.22 54.28 54.20 54.11 54.72 54.35 53.26 52.72 51.40 50.36 48.77 47.86 46.89 45.16 45.34 44.01 42.96 42.52 42.13 39.87 39.43 39.92 40.04 40.67 39.15 39.49 39.59 40.89 41.32 41.32 41.47 42.41 42.70 42.20
60.19 60.95 61.09 60.33 59.61 59.83 59.20 59.23 58.06 55.08 54.45 53.68 53.03 52.71 52.71 51.86 51.67 51.35 48.85 47.33 46.60 45.62 44.82 44.34 43.16 42.02 41.42 40.72 37.75 37.39 34.30 36.45 38.33 39.00 38.02 38.82 37.04 38.62 39.84 40.82 40.76 40.68 40.36
59.59 60.27 60.51 60.21 60.03 60.36 60.44 59.53 57.53 54.39 52.31 51.17 50.66 50.32 50.86 51.29 50.61 49.56 47.98 46.68 45.95 45.47 44.08 43.45 42.58 40.86 38.68 39.79 40.08 37.44 33.20 31.14 33.36 35.81 36.51 35.99 35.91 35.83 36.01 37.60 39.12 39.31 39.25
59.39 59.88 60.34 60.43 60.28 60.47 60.64 57.56 54.45 51.42 50.24 50.34 50.59 50.00 49.68 50.56 49.48 48.57 47.62 46.46 45.60 45.00 43.53 43.53 44.13 41.21 39.65 37.89 38.85 41.17 37.49 35.55 31.20 29.40 33.31 34.80 35.47 36.37 35.12 35.26 35.76 37.38 37.78
60.11 59.82 60.57 60.52 60.46 60.95 61.08 57.13 55.38 51.17 49.98 50.17 50.20 49.34 49.08 48.65 49.25 46.16 44.81 43.02 42.11 42.29 41.54 41.60 41.71 41.76 40.42 38.78 37.57 37.16 36.33 35.37 33.73 30.47 27.42 30.12 33.18 34.60 34.92 34.38 34.40 35.05 36.56
59.00 59.12 59.65 60.18 60.04 59.38 56.12 55.24 52.43 50.72 47.80 46.35 45.38 45.58 46.75 44.95 43.89 43.67 43.15 41.77 41.40 40.85 40.71 40.74 40.50 41.12 39.55 38.94 40.38 39.55 36.51 34.49 32.56 30.91 29.01 29.20 29.71 31.95 33.35 34.16 33.92 34.29 35.05

GFSSE_sfc_wetblb_036.txt.gz
Wetbulb
69.58 71.22 71.77 71.87 71.94 71.72 71.64 71.20 70.79 70.38 70.18 69.71 69.35 69.13 68.79 68.43 67.90 67.95 68.26 68.14 67.78 66.59 67.06 66.91 66.74 66.78 66.94 66.95 66.92 67.58 68.15 68.57 68.99 68.90 68.85 67.93 67.79 68.20 68.34 68.63 69.18 67.34 68.82
70.44 71.16 71.00 71.31 71.50 71.67 71.49 70.89 70.20 69.78 69.59 68.68 68.72 68.91 68.43 68.12 68.22 68.51 68.19 67.87 67.33 66.28 65.71 65.08 65.18 65.23 65.20 65.49 65.66 65.87 66.02 67.54 68.38 67.81 66.76 66.72 66.63 65.75 65.73 67.38 68.83 67.07 68.26
70.13 70.59 70.37 70.67 71.18 71.45 71.06 70.59 70.11 69.66 68.51 68.12 67.80 67.90 68.14 68.02 68.14 67.61 67.32 66.99 66.71 65.37 65.19 65.29 65.08 65.10 65.20 65.27 66.09 66.42 65.82 65.96 66.48 67.64 66.59 62.37 62.35 65.19 64.86 64.89 66.42 67.43 67.72
69.98 69.87 69.74 70.59 70.79 71.13 70.47 69.93 69.42 68.75 67.92 68.17 67.90 67.56 67.63 67.85 67.32 67.63 67.08 66.61 66.88 65.91 65.55 65.37 65.13 64.75 64.90 65.70 65.78 67.41 67.43 67.15 66.61 65.52 61.40 61.46 61.71 64.67 64.20 63.81 63.90 64.37 66.56
68.68 69.06 69.86 70.14 70.21 70.25 69.75 69.32 68.89 68.85 68.25 68.16 68.11 67.58 67.36 67.14 66.61 66.84 67.31 66.86 67.02 65.87 65.34 65.10 64.73 64.55 65.27 65.41 64.96 65.55 65.12 64.70 64.04 62.11 59.56 59.92 60.03 63.91 64.60 64.04 63.46 63.72 63.39
68.02 68.62 68.94 68.93 69.40 69.66 69.66 69.20 68.65 67.99 67.54 67.87 67.98 68.12 67.71 66.63 66.61 66.79 67.25 66.96 66.52 65.67 65.26 64.83 64.58 64.77 65.07 64.56 64.68 64.63 64.62 63.53 61.88 58.70 59.43 62.51 61.09 65.35 64.99 64.57 64.08 64.01 64.10
67.24 67.63 67.71 67.86 68.66 69.01 69.13 68.84 68.11 67.53 67.49 67.87 67.80 67.83 67.50 66.81 66.16 66.43 66.84 66.71 66.25 65.03 64.68 64.13 64.34 65.03 64.78 64.14 63.86 64.05 63.31 62.37 57.76 57.66 58.40 60.41 62.13 65.28 65.12 64.79 64.70 64.81 64.31
66.26 66.82 67.11 67.88 67.82 67.75 68.15 67.74 67.05 67.12 67.41 67.45 67.42 67.46 67.33 67.08 66.70 66.62 66.73 66.59 66.27 65.88 65.33 64.74 64.14 64.29 64.55 64.16 63.58 62.32 62.65 61.29 57.79 57.38 59.07 59.36 65.14 64.69 64.71 64.80 64.57 64.82 64.94
66.49 65.93 65.89 65.29 66.17 66.93 66.44 66.30 66.05 66.41 66.65 66.91 66.70 66.58 66.23 66.13 66.11 66.53 66.53 66.39 66.22 65.62 64.85 64.14 63.22 62.75 63.13 63.31 62.89 61.54 60.95 61.19 55.51 57.20 60.22 59.33 64.63 63.40 63.33 63.84 64.25 63.99 63.87
62.09 61.70 62.53 64.85 64.16 65.24 64.96 65.69 65.55 65.65 65.83 65.88 65.71 65.41 65.00 65.47 65.81 65.78 65.59 65.55 65.19 64.93 64.22 63.55 62.66 62.40 63.19 62.31 62.30 60.97 59.12 59.01 54.07 55.13 56.40 58.62 63.03 62.01 61.94 62.11 62.55 62.49 62.10
62.76 60.83 61.61 63.77 64.83 64.50 63.87 64.68 65.20 65.47 65.22 65.04 64.90 64.56 63.24 62.15 62.53 62.98 63.17 64.08 64.18 63.58 63.01 62.71 62.26 62.17 61.60 62.51 61.54 60.42 57.23 51.75 53.02 52.87 53.79 60.69 61.76 60.00 60.73 60.56 60.93 60.38 59.94
60.18 61.93 61.51 63.21 63.41 63.45 63.85 62.36 60.96 61.71 60.93 61.13 61.13 61.26 60.67 60.72 61.32 62.13 62.48 63.12 62.53 62.72 62.40 62.06 62.09 60.95 58.39 54.29 54.08 56.11 51.47 51.09 50.99 51.98 52.19 59.17 59.65 58.74 59.15 59.84 59.61 58.92 58.27
59.70 60.67 61.25 63.49 63.10 61.69 61.45 60.63 59.98 59.48 59.34 59.76 60.26 60.16 60.59 61.67 61.48 60.47 61.01 59.06 57.19 60.39 58.42 58.31 55.68 54.30 53.27 52.48 51.77 51.75 51.02 50.64 49.88 50.05 53.03 57.92 58.26 57.43 57.91 58.72 58.69 57.98 57.04
57.01 59.35 61.54 62.18 62.63 59.85 60.24 60.07 59.41 59.42 60.09 61.47 62.63 62.71 62.00 60.88 60.35 58.88 58.67 57.37 56.55 55.94 54.20 53.47 52.46 52.02 51.67 52.19 51.87 51.23 50.56 49.28 47.50 47.83 49.36 57.07 57.12 56.41 56.59 57.94 57.26 56.53 55.38
58.51 60.04 60.71 62.05 62.52 59.76 59.42 59.13 60.10 61.49 62.56 62.03 61.84 61.95 61.40 59.04 57.35 56.80 55.88 54.81 53.79 53.42 51.94 51.32 50.97 51.33 51.20 51.11 50.82 49.59 48.73 46.72 45.46 45.44 45.85 53.90 56.44 55.75 56.06 56.96 55.64 54.72 54.02
59.96 60.67 61.23 63.02 60.44 59.80 61.28 61.30 61.91 61.44 60.88 60.63 61.09 60.77 60.59 58.50 56.47 55.35 53.49 52.49 51.88 51.49 51.54 51.04 50.25 49.77 49.18 49.14 48.25 47.47 46.05 45.08 45.13 44.45 44.13 43.81 54.10 56.50 56.40 55.46 53.67 53.64 52.65
60.88 61.74 61.71 61.47 60.45 61.81 61.06 60.06 59.54 59.17 59.23 59.73 59.58 58.28 58.18 56.82 55.58 53.45 52.03 51.37 51.52 51.49 50.37 50.27 49.48 48.55 46.85 46.93 45.23 45.31 44.93 44.30 43.83 43.24 43.36 44.01 45.85 55.80 55.78 52.93 52.29 52.31 51.50
62.25 61.36 60.22 62.26 61.18 59.47 59.05 58.45 57.94 58.08 58.63 57.72 55.95 55.65 55.81 55.51 54.05 52.76 51.60 51.24 51.62 50.91 50.28 48.90 47.96 46.59 44.45 43.79 42.65 41.41 42.74 42.51 42.12 42.34 42.10 42.81 43.76 49.75 52.74 51.88 51.63 50.98 50.63
61.41 59.71 59.90 60.53 59.14 58.33 57.36 58.39 57.85 57.43 56.81 55.57 54.25 53.84 54.53 54.51 53.88 52.33 50.82 50.61 50.45 48.89 47.91 48.28 46.65 45.32 42.79 42.41 43.34 41.46 40.37 40.11 40.26 42.43 40.77 41.30 42.32 44.66 44.09 49.52 48.64 48.82 48.38
59.83 58.68 60.68 59.55 58.45 58.03 58.17 57.99 55.97 55.14 54.58 54.52 52.71 52.99 53.74 53.94 53.84 51.43 50.51 49.23 48.20 46.04 44.80 43.96 43.66 43.30 42.52 41.52 44.31 41.66 39.59 39.27 38.56 37.94 38.51 41.29 39.83 40.18 40.65 40.55 39.83 41.18 48.80
58.24 59.03 60.11 58.34 58.21 57.74 57.71 56.31 53.97 53.12 53.58 53.79 52.99 53.89 53.58 52.62 52.48 49.99 47.72 46.61 45.98 44.83 44.52 44.35 42.72 41.75 41.20 40.03 38.16 37.88 38.07 38.34 38.43 37.35 37.59 37.05 38.01 38.66 38.44 38.41 38.42 38.81 39.78
57.49 59.60 59.51 58.82 58.23 57.74 58.14 56.79 55.49 53.96 53.58 53.08 52.74 52.87 51.58 51.03 50.16 48.93 46.83 45.66 45.19 44.55 43.86 43.08 42.00 40.86 40.13 39.29 37.01 35.73 32.95 35.41 37.00 37.98 35.87 37.35 34.70 36.35 37.34 38.20 37.56 37.58 36.59
58.75 59.58 59.52 59.13 58.41 58.50 58.52 57.74 55.27 53.81 51.49 50.09 49.60 49.11 49.60 50.42 50.10 48.50 46.77 45.84 44.94 44.59 43.16 42.10 41.25 39.91 38.15 38.39 38.59 36.69 32.23 30.43 32.32 34.42 34.73 34.53 34.15 34.48 34.36 35.39 36.66 37.02 36.69
58.63 60.26 60.09 59.45 58.87 59.11 59.02 57.26 54.70 53.66 50.58 49.46 49.19 48.53 48.41 49.12 48.29 47.12 46.48 45.63 44.47 43.11 41.93 42.10 42.83 40.51 38.43 36.96 37.63 39.74 36.39 35.56 30.91 29.36 32.31 33.73 34.07 35.28 33.56 33.50 33.87 34.98 35.83
58.60 58.71 59.34 59.59 58.72 59.16 59.18 57.36 54.21 50.65 50.16 49.53 48.92 48.02 47.66 46.58 45.67 44.94 43.42 41.88 41.41 41.05 40.55 40.17 40.45 38.88 39.14 37.79 36.68 36.16 36.18 34.80 33.10 30.62 28.62 29.51 32.33 33.58 33.62 33.35 33.46 33.59 35.06
59.01 59.06 59.10 58.76 58.99 59.00 59.03 56.44 53.46 50.77 48.75 49.55 47.40 46.72 45.86 43.02 42.94 42.84 41.84 41.53 40.84 41.03 40.61 40.46 39.61 39.57 38.46 37.97 37.80 37.72 36.40 34.16 33.10 30.93 28.14 28.39 29.26 31.93 32.39 34.27 33.06 33.24 33.79

GFSSE_sfc_wetblb_039.txt.gz
Wetbulb
69.10 70.73 71.42 71.42 71.51 71.37 70.94 70.35 69.81 69.58 69.16 68.91 68.26 68.43 68.31 68.21 68.43 68.33 68.12 68.16 68.17 67.04 66.77 66.88 66.52 65.91 66.04 66.85 68.43 68.62 68.31 68.00 68.12 68.26 67.55 66.35 66.12 67.01 67.94 67.98 67.76 66.29 68.40
69.92 70.67 70.59 71.16 71.26 71.26 70.87 70.13 69.54 69.06 68.60 67.34 67.85 68.09 68.39 68.52 68.40 68.04 67.97 67.79 67.33 66.23 66.41 66.02 65.81 66.12 66.42 66.20 65.60 66.59 68.24 68.14 67.60 67.06 65.75 65.50 65.29 65.01 65.00 66.06 67.64 66.53 68.01
69.26 70.29 69.93 70.48 71.05 70.91 70.30 70.01 69.50 68.53 67.11 66.77 66.90 67.68 68.23 67.44 67.68 67.75 67.09 66.90 67.14 66.62 65.84 65.97 65.86 66.21 67.22 67.63 66.68 66.56 67.01 67.97 67.25 66.46 64.72 59.44 59.93 64.33 64.38 63.93 64.62 65.77 67.40
69.60 69.49 69.24 70.37 70.50 70.43 69.85 69.46 68.64 68.02 67.01 67.61 67.05 67.27 67.68 66.73 67.10 67.19 67.24 66.78 67.26 67.23 65.71 65.78 65.56 65.64 66.06 67.29 67.98 67.99 67.39 66.31 65.21 63.26 59.57 59.41 61.28 64.81 64.47 64.06 63.98 63.67 64.02
69.06 69.19 69.57 69.87 69.65 69.77 69.37 68.69 68.32 68.10 68.08 68.11 67.97 67.21 67.19 66.42 66.65 66.83 67.27 66.98 67.12 67.14 66.18 65.62 65.29 65.25 65.40 65.58 65.87 65.81 65.52 64.90 63.50 61.48 59.52 59.79 60.19 64.13 64.97 64.48 63.98 64.05 63.60
68.48 68.88 68.68 68.89 68.88 69.11 68.96 68.75 68.29 67.88 67.75 67.78 67.67 67.78 67.41 66.47 66.41 66.86 67.16 66.81 66.90 66.42 65.43 65.05 64.52 65.10 64.65 64.94 64.88 64.97 64.07 62.61 60.80 58.23 59.24 61.76 61.20 65.03 65.34 64.98 64.97 64.66 64.28
67.79 68.54 68.61 67.94 68.55 69.08 68.92 68.59 67.86 67.90 67.68 67.64 67.69 67.53 67.43 67.36 66.40 66.95 66.84 66.70 66.47 66.01 65.73 65.47 65.46 64.71 63.83 64.32 64.41 63.63 62.89 62.35 57.86 57.88 58.66 60.54 60.92 64.33 64.83 65.00 64.82 64.57 64.81
66.58 67.05 67.21 68.12 67.96 67.91 67.96 67.42 67.29 67.65 67.63 67.56 67.44 67.40 67.36 67.03 66.75 66.70 66.65 66.34 65.89 65.38 65.26 65.26 64.87 64.33 63.47 62.84 63.57 62.84 61.81 61.01 58.27 57.88 58.70 58.08 63.88 63.20 63.44 63.79 63.75 63.55 63.53
63.12 65.36 65.28 65.89 67.30 66.86 66.39 66.35 66.55 67.25 67.35 67.14 66.99 66.81 66.60 66.35 66.00 66.17 66.14 66.01 65.54 64.99 64.40 64.02 63.76 64.00 63.40 62.46 62.40 62.13 61.06 60.54 55.40 56.88 58.59 57.99 63.42 62.11 61.93 62.39 62.28 62.32 61.86
60.72 62.07 61.82 62.68 63.17 64.04 63.99 65.56 66.00 66.22 66.51 66.52 66.41 65.70 65.33 65.61 65.62 65.67 65.49 65.54 65.20 64.96 64.04 63.64 63.73 63.95 63.08 62.34 61.12 60.93 60.31 57.76 53.13 53.46 54.31 56.79 62.42 61.11 60.95 61.01 61.00 60.49 60.41
60.31 60.07 61.51 62.56 61.63 62.94 63.61 64.42 65.35 66.19 65.80 65.35 65.19 64.84 63.00 61.87 61.73 61.21 63.37 63.92 64.05 63.78 63.34 63.65 62.99 61.54 61.32 61.35 60.74 59.09 55.76 52.22 51.27 51.09 51.75 59.85 60.90 59.47 60.15 60.42 59.97 59.29 58.76
58.32 59.10 60.51 61.37 61.10 63.23 63.69 62.02 61.13 62.80 61.75 61.51 60.98 60.46 60.26 60.02 60.49 61.30 62.36 62.23 62.37 62.37 62.47 62.56 61.39 59.96 56.24 52.67 52.42 53.75 49.33 49.62 49.14 50.61 50.49 58.96 59.01 58.26 59.45 59.61 59.01 58.24 57.65
58.31 58.79 59.33 60.51 62.70 62.14 61.22 60.36 59.54 59.31 59.47 59.88 60.25 59.51 59.78 60.47 60.65 59.48 59.25 56.81 56.23 59.53 55.91 54.46 52.97 52.22 51.51 50.90 50.31 49.47 48.45 47.12 45.68 46.74 51.14 58.59 57.68 56.75 57.56 58.41 58.32 57.15 56.07
58.18 58.05 59.45 62.95 62.37 60.49 60.24 59.34 58.97 58.19 58.86 59.41 59.34 59.56 59.68 60.08 59.23 58.62 57.18 56.36 54.87 53.53 52.17 51.29 51.02 51.18 50.60 50.43 49.19 48.26 46.10 44.46 43.86 44.51 46.74 54.36 56.67 56.02 55.96 57.97 57.01 55.49 54.92
58.37 59.66 60.59 61.91 61.70 59.55 58.78 58.53 58.45 59.03 61.09 61.99 61.88 61.95 60.49 59.23 56.10 56.30 54.59 53.54 52.41 51.69 50.73 50.16 50.41 50.21 49.40 48.21 47.24 45.67 44.64 44.08 43.38 43.03 42.43 51.23 54.63 55.67 55.12 56.98 55.29 54.60 53.98
57.74 59.04 60.72 60.95 61.87 59.12 58.33 58.47 60.03 61.51 61.09 60.37 59.87 59.63 59.03 56.92 55.36 53.32 51.88 51.11 50.47 50.55 50.32 49.94 48.83 47.17 46.02 45.49 45.18 44.83 43.72 42.69 41.99 42.11 42.40 43.30 53.35 56.56 56.66 55.21 53.81 53.44 52.87
58.20 59.83 59.70 60.94 59.50 58.84 59.41 60.20 60.20 60.26 59.68 59.25 59.30 58.97 57.47 56.01 54.14 51.90 50.81 50.46 50.18 50.07 49.73 48.59 47.19 45.58 44.43 44.69 42.64 43.13 42.37 41.27 41.00 40.93 41.38 42.43 49.21 55.41 54.52 52.84 52.75 52.68 52.42
59.36 59.99 60.63 62.25 59.30 59.62 59.07 58.81 58.21 57.86 58.04 57.80 56.70 56.42 55.81 54.99 53.17 51.37 50.95 50.87 50.16 49.68 48.53 47.19 46.25 43.97 42.83 42.50 40.51 40.46 40.74 40.35 40.28 39.96 40.50 42.01 45.22 46.22 48.95 49.50 49.14 48.80 48.80
59.78 60.65 59.34 59.88 59.12 57.94 57.06 57.20 57.04 57.38 56.44 55.42 54.81 54.33 54.03 53.64 52.98 50.82 50.39 49.57 48.58 47.31 46.62 47.02 44.64 43.16 41.21 41.16 41.95 39.93 38.96 38.40 38.34 40.49 39.25 39.24 40.63 40.33 39.85 45.69 47.64 48.01 48.66
60.19 58.66 59.63 59.03 57.60 57.06 57.34 56.24 55.62 56.28 55.34 53.93 52.77 53.24 53.89 53.09 52.22 50.72 49.24 47.59 45.91 44.58 43.69 43.27 41.85 41.56 41.22 40.29 42.57 40.19 37.85 37.67 37.34 36.67 37.50 39.51 38.20 38.01 37.98 38.11 38.04 40.31 46.94
57.87 57.87 58.67 57.70 57.20 57.51 56.97 55.28 53.40 52.99 52.88 52.36 52.07 53.01 53.21 52.69 51.25 48.81 47.17 45.67 44.89 44.32 42.89 42.68 41.76 40.79 39.40 38.68 37.59 37.72 37.00 37.09 36.11 35.83 36.09 35.58 36.77 37.06 36.73 36.62 36.56 36.34 37.78
57.07 58.19 58.11 57.99 56.99 57.29 57.44 54.86 54.32 53.21 53.03 52.50 52.05 52.31 51.42 51.44 49.25 47.43 45.72 44.62 44.39 43.57 42.85 41.90 41.14 40.16 39.94 38.74 36.53 34.73 32.13 34.89 36.27 36.37 34.85 35.95 33.73 35.12 36.16 36.99 35.87 36.00 34.86
56.39 57.37 58.39 58.05 57.28 57.36 57.09 55.86 53.49 52.04 50.76 50.01 49.99 49.17 49.35 49.87 48.88 47.19 45.54 44.52 43.59 43.31 42.11 41.25 40.48 40.19 38.05 38.29 38.50 37.24 31.80 29.75 32.01 34.34 34.17 33.77 33.48 33.23 33.64 34.63 35.28 35.55 35.17
56.84 58.02 58.73 58.28 57.36 57.53 57.83 55.91 52.86 51.31 50.63 49.41 49.26 48.33 48.40 49.28 48.01 46.50 45.29 44.41 43.21 42.24 40.85 41.47 41.19 39.07 38.17 37.17 37.30 39.22 35.65 34.46 31.19 29.71 31.80 33.01 33.48 34.45 33.23 33.04 33.44 34.08 34.76
57.00 57.94 58.41 58.36 58.08 58.13 57.97 57.01 53.64 51.12 49.76 49.04 48.17 47.64 46.35 45.48 45.44 45.02 43.17 41.59 41.88 41.21 41.86 40.63 38.78 38.46 38.32 36.85 36.02 35.52 34.94 33.93 32.70 30.94 29.19 29.91 31.69 33.22 33.29 33.00 32.88 32.89 33.95
57.29 57.94 58.14 58.21 58.09 57.98 57.85 56.90 53.79 51.49 49.35 48.83 46.88 45.67 44.60 42.46 41.94 41.91 41.54 42.19 42.06 41.94 41.62 38.69 38.28 38.62 38.30 37.32 36.83 36.39 35.46 34.34 32.84 31.41 28.60 28.40 28.11 31.46 32.86 33.05 32.46 32.86 32.64

GFSSE_sfc_wetblb_042.txt.gz
Wetbulb
68.67 70.11 71.00 71.27 71.12 70.58 70.30 69.89 69.83 69.53 69.30 68.69 67.69 67.94 68.40 68.45 68.69 68.71 68.74 68.61 68.38 67.91 67.77 67.25 67.54 68.86 69.59 69.45 68.28 67.57 66.92 67.24 67.70 67.45 67.01 65.63 65.79 66.25 67.31 67.63 67.74 66.60 68.42
69.52 69.94 70.48 70.93 70.92 70.40 70.26 69.60 69.06 68.91 68.71 68.08 67.57 68.18 68.58 68.54 68.57 68.57 68.10 68.17 68.42 67.00 66.95 66.96 67.11 66.97 67.17 68.79 68.46 68.12 66.91 67.28 66.51 65.81 64.55 64.77 64.87 64.77 64.70 64.84 66.77 66.49 67.76
69.32 69.72 69.91 70.47 70.43 70.24 69.86 69.41 68.97 68.66 68.25 67.35 67.43 67.98 68.49 68.40 68.16 67.66 67.73 67.78 67.77 67.93 66.84 67.82 68.44 68.17 67.15 66.58 68.02 68.45 66.68 65.57 65.74 65.27 64.19 59.30 61.37 64.98 64.69 64.04 64.51 64.24 65.71
69.35 69.25 69.29 70.27 69.85 69.63 69.28 68.74 68.27 68.01 67.94 68.30 68.03 67.62 67.89 67.69 67.77 67.79 67.47 67.19 67.66 67.77 66.81 68.06 68.34 68.47 67.62 67.96 68.20 67.08 65.38 64.69 64.29 63.09 59.72 60.22 62.27 65.29 65.20 64.71 64.52 64.15 63.51
68.79 68.54 69.29 69.46 69.27 69.31 68.70 68.14 67.81 67.79 67.90 68.26 68.03 67.35 67.42 67.61 67.42 68.06 67.31 67.06 67.62 67.66 66.92 66.64 67.21 67.21 67.03 66.35 66.13 65.81 64.61 64.00 63.25 61.50 60.30 60.57 61.10 64.34 65.38 65.24 64.80 64.66 64.28
68.12 68.47 68.68 68.62 68.80 68.85 68.51 68.20 68.10 67.80 67.68 67.49 67.45 67.65 67.79 67.44 66.85 67.93 67.31 67.04 67.32 67.15 66.23 65.41 65.90 65.71 65.30 65.36 65.24 64.50 63.49 62.83 61.33 59.08 59.97 61.85 61.06 64.72 64.73 64.73 64.76 65.08 65.00
67.70 68.23 68.24 67.50 68.22 68.58 68.84 68.50 68.15 67.89 67.69 67.50 67.47 67.64 67.81 67.65 67.04 67.49 66.90 66.75 66.41 66.41 65.78 64.96 65.33 65.53 64.94 64.32 64.14 63.73 63.48 62.54 58.41 58.16 58.55 59.84 60.74 63.86 63.83 63.87 63.83 63.92 63.87
65.94 67.28 67.46 68.12 68.16 68.09 67.84 67.74 67.70 67.58 67.59 67.50 67.54 67.50 67.74 67.47 67.02 66.88 66.47 65.75 65.69 65.45 65.38 64.92 64.20 64.65 64.76 63.94 63.49 62.69 62.06 61.25 58.47 57.72 57.89 57.68 62.86 62.55 62.78 62.36 62.20 62.14 62.14
63.57 65.67 65.68 64.20 66.00 66.67 66.40 66.74 67.03 67.34 67.24 67.16 67.02 67.02 66.79 66.25 66.36 66.12 65.58 65.48 65.27 65.34 65.22 64.55 63.78 63.38 64.00 64.12 62.82 61.98 61.33 60.29 54.97 55.56 56.93 57.15 62.81 61.68 61.48 61.02 60.95 61.10 61.11
60.37 61.48 62.05 62.06 62.97 63.66 64.34 66.14 66.52 66.72 66.62 66.66 66.59 65.92 65.30 65.28 65.54 65.43 65.12 65.16 64.87 64.98 64.98 65.15 63.68 63.23 62.59 62.56 62.17 60.31 58.47 56.54 51.73 51.89 52.27 57.17 62.02 60.91 61.05 60.53 60.44 59.78 59.40
58.53 57.79 59.21 60.85 61.59 62.75 63.11 64.83 65.67 66.56 65.98 65.69 65.13 64.87 62.29 61.31 61.60 60.31 63.59 64.15 64.20 64.08 64.15 63.67 62.87 61.73 61.15 60.20 58.68 57.14 54.52 50.29 50.80 50.74 51.11 60.52 59.87 59.48 60.65 59.92 59.26 58.73 58.43
56.75 56.41 58.11 60.57 60.21 62.51 63.19 61.62 62.09 62.98 61.74 61.31 61.21 60.31 60.31 59.85 59.10 60.66 61.76 62.58 63.13 63.22 62.56 61.33 59.84 58.11 54.33 50.96 51.29 52.02 48.02 47.42 47.54 48.56 52.24 59.69 58.17 57.81 59.93 59.56 58.45 57.66 57.11
57.84 58.80 59.15 59.40 60.42 62.63 60.85 59.61 59.48 59.46 59.48 59.65 59.58 59.00 59.13 60.22 59.34 58.89 57.45 56.26 57.30 57.26 52.61 52.84 52.35 51.32 50.41 49.68 48.00 46.23 45.64 45.07 44.51 45.28 51.53 57.12 56.86 55.78 58.18 58.98 57.63 56.68 56.15
57.69 58.76 59.66 59.90 62.35 61.18 60.18 58.52 58.52 58.56 58.47 58.80 59.04 59.45 59.80 59.49 58.52 57.71 56.06 54.79 52.96 51.88 50.68 50.73 50.82 49.74 48.60 48.02 46.61 45.44 44.49 43.85 43.32 43.97 45.30 53.90 56.11 54.99 55.48 58.35 56.75 55.64 55.23
57.14 57.38 58.64 60.35 61.56 59.95 59.20 57.99 57.89 57.70 58.28 59.35 59.16 59.21 59.70 58.83 56.59 55.99 53.88 52.29 50.88 50.50 50.33 49.93 49.09 47.65 46.61 46.13 45.18 44.50 43.52 42.86 42.79 42.67 43.20 51.67 55.10 55.55 55.57 57.09 55.74 54.61 54.02
57.86 57.49 58.32 61.08 61.18 59.30 57.99 57.29 57.59 58.96 60.34 60.82 60.21 60.45 59.56 57.26 55.28 52.60 51.09 50.25 50.04 50.21 49.45 48.39 46.85 45.55 44.10 44.26 43.96 43.24 42.22 41.45 41.46 42.00 43.08 47.36 56.92 57.72 57.04 55.09 53.87 53.52 53.01
57.78 57.82 58.99 60.09 60.42 58.33 57.60 57.56 58.77 59.60 59.33 58.48 58.40 58.14 57.47 55.54 53.11 51.16 49.83 49.33 49.55 49.20 48.19 47.00 45.21 44.30 43.33 43.30 42.45 41.81 41.28 40.85 40.87 41.88 43.18 46.82 48.51 53.29 53.42 53.36 53.39 52.79 52.51
57.00 58.51 59.53 61.26 59.42 57.87 57.66 58.25 58.40 58.46 58.06 57.94 57.17 56.55 55.79 54.18 51.78 50.44 50.04 49.22 49.32 48.80 47.84 46.26 44.31 42.75 42.24 41.52 40.52 39.95 39.83 40.19 40.04 40.50 41.41 43.20 43.53 42.57 46.06 49.40 49.75 49.54 48.86
57.82 58.75 58.84 59.72 58.61 57.83 57.19 57.33 57.23 57.11 57.19 56.15 55.53 54.88 54.21 53.24 52.04 50.84 50.16 49.53 48.75 47.52 46.45 45.96 43.37 42.66 41.03 41.16 40.99 39.31 38.83 38.14 38.82 40.35 39.39 39.77 40.78 40.07 40.09 45.88 47.70 48.72 48.02
57.84 58.94 58.81 58.53 57.47 56.63 56.23 55.75 55.69 55.85 55.19 55.14 54.59 53.79 53.30 52.39 51.45 50.60 49.09 47.67 46.32 44.55 43.70 42.49 41.74 41.64 40.77 40.48 42.00 39.47 38.28 37.84 37.46 37.74 38.05 39.42 38.62 38.51 38.93 39.80 40.08 41.72 46.58
58.12 57.37 58.44 57.41 56.37 56.75 55.59 54.75 53.76 53.43 54.86 54.06 53.67 53.14 52.85 51.56 50.64 49.12 47.15 45.21 44.64 43.28 42.14 42.14 41.21 40.64 39.36 38.80 37.92 37.69 37.18 37.32 37.30 36.59 37.57 36.80 37.54 37.63 38.13 37.85 37.85 37.57 38.02
58.31 57.77 57.89 57.92 56.81 57.13 57.60 54.72 54.32 52.98 53.06 53.91 53.22 52.31 52.23 50.75 49.72 47.74 45.56 44.20 43.79 42.75 42.08 41.68 41.06 40.04 39.22 38.51 36.66 34.94 32.73 35.25 37.18 37.24 35.74 36.91 35.87 36.26 37.64 38.53 37.76 37.91 37.26
57.36 57.18 57.76 57.84 57.09 57.50 56.90 54.67 52.48 51.89 51.31 51.13 49.97 49.93 50.15 50.10 48.16 46.63 45.01 43.85 43.06 42.62 41.72 40.70 40.08 39.35 37.70 38.35 38.58 36.30 32.23 30.75 32.64 35.53 35.06 35.14 35.12 35.26 35.35 35.77 36.87 37.19 37.36
57.81 56.51 57.90 57.64 57.11 57.26 56.59 55.57 52.69 52.17 50.00 49.90 50.51 50.25 48.45 48.85 47.25 45.55 44.43 43.64 42.72 42.05 40.85 40.44 40.88 39.58 38.40 36.97 37.36 38.77 36.21 35.76 33.07 31.40 34.02 34.38 34.85 35.42 34.96 35.03 35.94 35.70 35.95
56.53 55.58 56.57 57.01 56.99 57.35 57.13 56.04 53.42 51.04 50.50 49.13 48.51 48.16 46.90 46.56 45.63 44.91 43.91 41.17 40.37 40.12 39.55 39.76 39.49 39.86 38.58 37.53 36.57 36.12 35.59 34.58 33.48 32.13 29.90 32.01 33.61 35.36 35.53 34.92 34.95 34.74 35.42
54.98 55.97 56.69 56.89 56.79 57.53 57.17 55.88 53.61 51.83 49.95 49.86 47.99 47.21 45.08 43.48 42.57 42.08 41.47 40.51 39.93 40.26 40.58 40.14 41.01 39.64 38.08 38.01 37.08 36.66 36.49 34.75 33.71 32.57 30.23 30.23 29.52 32.12 34.54 35.79 34.91 35.44 34.56

GFSSE_sfc_wetblb_045.txt.gz
Wetbulb
68.62 70.31 70.70 71.40 71.46 70.97 70.78 70.55 70.25 70.03 69.72 69.42 69.03 68.96 68.81 69.11 69.01 68.96 69.16 69.43 69.89 70.09 70.23 70.36 70.44 69.78 68.59 67.19 66.91 66.83 66.44 66.49 66.90 67.10 66.88 65.54 65.64 66.08 67.26 67.70 68.38 68.06 68.38
69.59 70.21 70.12 70.84 71.06 70.87 70.65 70.08 69.52 69.40 68.95 68.91 69.12 68.97 69.02 69.25 69.20 68.79 69.06 68.88 68.75 68.22 68.24 68.91 69.85 69.88 68.71 66.84 66.83 66.68 65.94 66.42 66.11 65.86 66.11 65.61 65.48 65.32 65.00 64.99 66.92 67.23 67.58
69.32 70.01 70.42 70.11 70.47 70.48 70.09 69.65 69.26 69.25 68.91 68.43 68.69 69.12 69.10 68.81 68.62 68.89 68.34 68.41 68.81 68.60 68.60 68.25 68.63 69.30 68.86 66.95 67.01 66.19 65.50 65.72 65.95 65.85 65.85 64.07 64.85 65.64 65.41 64.65 64.59 64.35 65.18
69.22 69.81 69.97 69.65 69.81 69.86 69.41 69.13 68.75 68.77 68.55 68.69 68.95 69.17 68.52 68.60 68.62 68.40 68.25 68.15 69.23 69.59 69.36 69.01 68.20 68.22 68.37 67.52 66.59 65.84 65.37 65.03 64.54 65.29 64.31 64.15 64.19 65.73 65.79 65.29 65.07 64.44 64.15
68.67 69.61 69.77 69.12 68.84 69.14 68.64 68.29 68.32 68.63 68.70 68.61 68.59 68.60 68.69 68.64 68.54 68.42 67.82 67.84 68.51 69.78 69.35 69.05 68.69 68.15 67.40 66.68 66.09 65.38 65.02 64.48 64.76 63.99 63.79 64.37 64.18 64.74 65.24 65.55 65.50 65.50 65.04
68.53 69.41 69.03 68.26 68.26 68.56 68.43 68.27 68.33 68.41 67.93 67.73 67.72 68.30 68.52 68.77 68.60 68.21 67.55 67.43 67.95 68.70 68.66 68.50 67.42 66.13 66.02 65.57 65.23 64.56 63.98 63.75 63.23 62.63 62.93 63.96 63.67 63.98 64.13 64.07 64.37 64.50 64.48
68.28 69.17 68.78 67.30 67.83 68.37 68.64 68.56 68.24 67.87 67.47 67.37 67.57 67.87 68.21 68.27 68.15 67.57 66.97 66.83 66.80 67.31 67.55 66.56 66.12 65.53 65.10 64.75 64.46 63.95 63.35 63.14 61.71 61.64 61.92 62.33 63.05 63.14 62.91 62.60 62.84 62.81 62.62
66.86 67.93 67.74 68.01 68.12 67.98 67.98 67.99 67.62 67.21 67.33 67.59 67.52 67.72 68.05 67.66 67.27 66.85 66.50 66.43 66.07 65.79 66.21 66.01 65.59 65.11 64.52 64.15 63.53 63.07 62.26 61.57 60.32 60.65 61.29 61.53 63.09 62.28 61.79 61.61 61.33 61.46 61.18
65.06 66.53 66.13 65.76 65.03 65.20 66.96 66.97 66.83 67.26 67.45 67.41 67.28 67.25 66.85 66.12 65.56 65.67 65.93 66.27 65.77 65.16 65.01 65.25 65.46 64.71 64.00 63.39 62.31 61.33 60.40 59.77 58.94 59.47 59.61 60.52 61.70 61.76 61.00 60.64 60.68 60.32 60.25
61.87 61.04 61.97 61.85 61.95 63.75 66.22 66.47 66.72 66.72 66.85 66.76 66.47 65.70 65.18 65.29 65.43 65.40 65.11 65.39 65.95 65.61 64.77 64.42 64.09 64.09 63.07 61.40 60.15 58.74 58.15 58.28 57.95 57.93 59.34 59.97 61.64 61.02 60.74 59.95 59.86 59.58 59.25
59.20 57.93 57.48 58.74 60.73 62.26 64.37 66.72 66.73 66.67 66.14 65.46 65.16 64.73 63.42 63.19 63.46 63.34 64.01 64.39 64.72 65.00 64.39 63.59 62.14 60.87 60.63 59.68 57.70 55.92 57.23 57.14 56.98 57.38 58.21 60.79 59.69 61.24 60.61 59.35 58.82 58.65 58.58
55.67 56.67 57.69 59.50 60.25 61.53 62.58 64.91 65.03 65.29 64.22 63.82 63.62 63.47 63.46 63.99 63.58 63.28 63.22 63.45 63.88 63.17 62.27 60.99 58.95 57.69 57.96 56.20 54.13 54.33 53.89 54.15 55.00 55.92 56.68 59.83 58.23 58.79 60.41 58.91 58.03 57.62 57.30
56.05 57.18 59.10 59.56 60.00 60.69 62.17 62.97 63.38 62.85 62.66 63.14 63.49 63.36 63.75 63.45 63.62 62.43 62.19 61.92 60.88 59.47 57.98 57.44 56.90 56.16 55.28 54.22 53.53 53.49 53.21 53.24 53.21 52.89 54.15 56.51 56.93 54.87 60.25 58.72 57.60 56.84 56.48
54.85 56.55 57.98 59.43 59.11 60.19 61.16 61.73 61.43 61.12 62.05 62.12 62.53 63.40 63.57 62.08 61.83 60.54 60.49 60.63 58.14 57.66 57.47 56.91 55.57 55.15 53.82 53.43 53.27 52.61 52.09 51.90 52.22 52.48 52.65 53.92 55.56 55.30 58.86 58.24 56.87 55.82 55.26
55.97 57.77 58.63 60.97 62.14 62.48 61.39 60.91 61.03 61.50 61.48 62.72 62.40 63.15 63.37 61.62 60.89 60.55 59.10 58.92 57.54 57.38 56.89 55.36 54.79 53.89 53.21 52.47 51.56 51.00 50.47 50.44 50.73 51.84 53.63 55.80 55.53 55.80 57.55 57.77 56.21 55.32 54.15
58.24 58.76 60.36 60.98 62.50 61.74 60.38 60.20 60.71 61.94 62.27 62.38 62.83 62.76 63.98 63.86 62.32 60.14 57.78 56.59 56.61 56.95 56.24 54.92 54.21 53.47 51.97 51.51 50.38 50.06 49.34 49.74 50.30 52.25 55.23 56.06 56.67 57.80 57.44 55.66 55.07 53.80 53.36
59.32 59.78 60.03 61.50 63.24 62.34 61.78 60.76 61.13 61.59 62.62 63.75 63.89 64.48 63.83 62.41 60.75 58.85 56.71 56.16 56.23 55.93 54.85 53.77 52.55 52.48 51.32 50.35 49.12 48.90 48.79 49.09 50.16 52.49 54.11 54.38 54.23 52.93 53.36 54.07 53.90 52.95 52.55
59.97 59.32 60.06 61.70 63.15 61.95 61.29 60.83 61.55 62.79 63.88 63.31 63.13 62.79 62.00 60.24 58.63 57.14 56.03 55.96 55.74 55.16 54.44 51.96 52.49 50.85 50.35 50.56 49.46 48.97 48.94 48.63 49.15 51.17 52.42 52.02 50.59 50.85 50.58 50.06 49.90 49.56 49.01
60.29 60.11 60.20 62.15 62.93 61.96 61.74 61.76 62.01 62.98 63.27 62.78 62.07 61.15 60.03 58.24 57.28 56.98 56.36 55.85 55.97 54.49 52.83 52.84 51.18 51.08 49.86 49.49 48.61 48.76 49.00 48.18 47.73 47.51 47.82 48.42 48.18 48.55 49.38 47.40 47.92 48.12 47.87
60.42 60.88 60.97 61.91 62.84 62.63 61.78 61.33 61.42 61.99 61.87 61.67 61.54 60.56 59.27 57.88 57.24 57.05 56.34 55.60 53.55 51.26 51.64 51.10 50.50 50.43 50.02 50.22 47.65 48.10 48.74 47.18 47.42 47.21 46.61 46.53 47.59 47.27 47.90 47.80 48.42 47.70 45.89
60.48 60.80 61.28 61.67 62.26 61.43 59.99 59.61 59.73 59.86 60.09 59.53 59.71 59.25 59.04 58.15 56.96 56.46 55.08 53.63 52.74 52.19 51.19 51.10 50.08 49.51 48.90 49.41 48.45 47.29 47.38 45.64 45.97 46.69 46.18 46.70 46.32 45.74 46.43 46.54 46.17 46.15 45.86
59.68 60.60 61.17 61.37 61.81 61.55 61.22 60.35 60.47 60.87 60.47 60.08 56.61 55.69 56.14 57.20 56.16 54.42 53.47 52.37 52.15 50.83 50.63 50.49 50.57 48.88 49.11 48.88 46.43 44.94 42.25 43.06 44.82 45.97 45.57 45.20 45.66 45.61 45.06 44.99 45.12 44.85 44.85
59.71 59.83 60.91 61.48 61.80 62.07 61.83 60.34 58.97 58.93 58.02 56.98 55.58 55.50 56.06 55.81 54.25 52.64 52.57 52.22 51.63 51.36 50.13 50.17 49.89 48.36 46.40 47.16 46.43 44.26 41.02 40.09 43.08 45.26 44.47 44.71 45.19 44.82 45.33 45.78 44.48 43.65 43.32
60.52 61.20 61.14 61.51 61.24 61.51 61.21 59.93 58.62 58.98 57.62 57.69 57.33 57.01 55.11 54.62 53.06 51.13 51.37 51.82 51.05 50.69 49.76 49.35 48.51 48.17 47.03 44.13 45.62 45.19 45.63 44.99 40.85 39.39 43.77 44.22 45.22 44.20 45.17 45.42 44.24 43.61 42.71
61.74 60.94 61.41 61.23 61.20 61.14 60.44 60.64 59.18 59.37 59.61 57.98 57.01 56.07 54.01 52.69 52.11 50.45 50.87 50.72 50.39 49.97 48.95 48.32 47.18 46.64 44.30 42.80 44.28 44.85 44.62 44.50 44.03 40.69 37.47 40.29 42.55 43.35 43.95 44.07 44.45 43.62 42.39
61.71 61.13 60.84 60.66 60.40 60.85 60.51 59.92 59.11 58.31 56.55 55.53 54.97 53.52 52.24 53.13 51.51 50.46 50.33 50.12 49.23 47.78 47.14 46.87 47.17 45.48 44.34 44.52 45.42 45.40 44.05 42.19 41.63 40.52 38.42 38.64 38.27 40.10 42.04 42.99 43.53 43.20 42.46

GFSSE_sfc_wetblb_048.txt.gz
Wetbulb
69.40 70.68 71.13 71.81 72.10 71.86 71.56 71.46 71.14 71.01 70.69 70.22 69.74 69.60 69.57 69.75 69.89 70.04 70.46 70.63 71.24 71.63 71.02 69.42 69.19 67.84 67.11 66.92 66.62 66.39 66.42 67.12 67.17 67.14 67.17 66.02 66.10 66.65 67.19 67.48 68.91 67.94 68.33
71.04 70.40 70.56 71.26 71.71 71.64 71.31 70.87 70.27 70.00 69.68 69.67 69.60 69.42 69.40 69.52 69.67 70.14 70.29 70.65 71.10 71.40 70.74 69.66 68.08 67.19 67.00 66.45 65.86 66.30 65.94 66.69 66.49 67.41 67.40 66.53 66.11 65.80 65.48 65.28 66.08 67.11 67.31
70.51 70.34 70.94 70.42 71.01 70.92 70.79 70.19 69.84 69.69 69.52 69.33 69.51 69.64 69.55 69.38 69.70 69.31 69.18 69.45 69.93 70.69 70.43 70.02 67.43 66.94 66.45 66.25 66.32 65.98 65.65 65.74 66.36 66.30 67.44 64.87 65.60 65.89 65.88 65.14 65.60 64.97 65.48
70.82 69.84 70.14 70.30 70.39 70.22 69.80 69.47 69.32 69.28 69.18 69.47 69.71 69.43 69.23 69.50 69.16 69.26 69.36 69.38 69.70 70.08 69.61 69.83 68.10 66.78 66.25 66.43 66.20 65.82 65.48 65.39 65.87 66.72 64.87 64.77 64.64 65.68 66.10 65.70 65.60 65.42 64.86
69.89 70.12 70.34 69.68 69.64 69.59 69.29 69.01 68.88 69.05 69.02 69.26 68.99 69.16 69.38 69.19 69.19 69.21 69.49 69.74 70.24 70.62 69.76 69.39 68.08 66.20 66.31 66.55 66.15 65.56 65.02 65.25 65.67 64.74 64.34 64.73 64.39 64.43 65.34 65.65 65.75 65.47 65.17
69.37 69.68 68.36 68.52 68.71 69.15 68.79 68.78 68.91 68.54 68.30 68.27 68.47 69.01 69.04 69.16 68.94 68.87 68.59 69.72 70.24 70.36 69.55 68.94 66.27 65.85 65.95 65.75 65.50 64.43 64.26 64.03 64.51 63.39 64.11 64.24 63.55 63.32 63.72 64.19 63.68 63.42 63.67
68.74 69.33 68.97 67.36 68.10 68.53 68.92 69.05 68.63 68.09 67.57 67.78 68.15 68.45 68.70 68.75 68.65 68.13 67.84 68.45 69.44 69.63 68.40 66.47 65.60 65.21 65.40 65.15 64.24 63.75 63.25 62.69 62.14 62.32 63.14 63.39 63.32 62.34 62.32 62.35 62.09 62.06 62.22
67.60 68.12 68.13 67.54 67.60 67.68 68.00 68.13 67.68 67.31 67.26 67.51 67.85 68.11 68.44 68.05 67.62 67.50 66.97 67.42 67.64 67.19 66.62 66.17 65.63 65.29 64.80 63.82 62.80 62.54 61.82 61.70 61.22 61.34 62.33 62.67 62.22 61.75 61.50 61.47 61.29 61.07 60.96
65.60 66.49 66.56 66.76 66.26 65.99 65.95 66.40 66.57 67.11 67.32 67.42 67.48 67.33 67.19 66.78 66.49 66.59 65.92 66.04 66.50 66.24 65.89 65.66 65.16 64.45 63.54 62.36 61.40 60.71 59.94 59.96 60.25 60.31 60.18 61.53 61.64 61.42 60.74 60.26 60.38 60.05 60.07
62.27 63.91 61.74 61.46 62.25 65.18 65.10 65.98 66.62 66.71 66.95 67.06 66.57 66.00 65.47 65.58 65.84 66.02 65.57 65.66 65.35 65.76 65.79 65.51 63.98 63.26 61.71 60.55 59.46 59.13 58.94 60.00 59.14 59.25 59.44 60.23 61.81 61.31 60.38 59.66 59.73 59.49 59.24
59.97 60.20 60.59 58.66 57.65 59.94 63.14 65.83 66.60 66.89 65.90 65.28 65.16 64.61 63.69 63.80 63.92 64.67 64.51 65.53 65.17 64.66 64.18 63.52 62.39 61.51 60.54 58.60 57.34 57.85 58.61 59.08 58.76 58.74 58.39 60.57 60.91 61.19 60.12 58.93 58.85 58.85 58.66
56.56 57.46 58.38 58.87 58.67 60.66 63.37 64.34 65.95 65.26 64.67 64.09 63.01 63.37 63.49 64.55 64.74 63.89 64.16 64.38 63.94 62.99 62.24 61.04 60.08 60.36 61.20 59.81 57.67 57.24 58.18 57.96 57.38 56.80 57.36 58.97 57.48 61.27 60.00 58.52 58.06 57.92 57.47
55.52 56.02 56.25 56.87 58.02 59.85 62.09 64.60 64.31 63.66 63.77 63.97 64.17 63.95 64.48 64.17 64.28 64.00 63.63 63.36 62.63 62.00 60.42 60.08 59.94 60.83 59.90 59.46 58.60 58.28 57.58 56.74 56.09 55.34 55.53 55.97 57.88 57.23 59.91 58.24 57.40 57.17 56.51
55.94 55.64 56.23 56.86 59.00 59.84 60.56 62.35 63.01 61.03 62.26 62.71 63.37 64.46 64.41 63.83 63.73 63.95 63.82 63.89 62.91 62.56 61.83 61.37 60.68 59.74 58.85 58.19 57.53 56.61 56.35 54.89 54.03 54.27 55.12 55.95 55.92 57.19 60.28 58.08 56.87 55.96 55.10
55.70 55.82 56.74 58.60 59.22 59.44 60.09 62.26 62.06 62.51 62.14 62.81 63.29 64.27 63.94 63.50 63.34 63.46 63.79 63.22 62.57 62.47 61.58 60.50 59.33 58.42 57.87 56.86 56.22 55.31 53.88 53.70 53.66 54.39 56.35 57.40 55.98 56.51 59.30 57.91 56.42 55.32 54.06
55.45 55.36 57.60 59.63 60.10 60.60 61.10 62.80 62.93 62.69 62.58 63.29 63.25 64.51 65.54 63.71 63.84 63.69 63.35 62.98 62.27 62.12 60.79 60.14 59.06 58.34 57.53 56.69 55.15 53.72 52.99 53.04 53.31 54.71 55.89 56.81 55.72 57.43 57.58 56.04 55.21 54.15 53.74
58.30 59.76 59.67 60.44 60.91 60.59 61.46 62.91 62.46 62.24 62.55 62.53 64.09 66.40 66.41 65.76 65.04 64.20 63.14 62.03 61.96 61.61 60.87 59.47 58.31 58.02 56.82 55.49 53.51 53.26 53.19 53.66 53.86 54.91 56.43 56.53 55.62 53.23 53.65 54.22 54.36 53.05 52.76
60.51 60.37 61.90 62.26 62.41 62.95 63.07 61.55 62.76 62.90 63.40 63.95 65.53 66.72 67.08 66.58 65.71 64.36 62.53 61.78 61.13 60.28 59.64 58.53 57.29 57.15 56.24 55.13 54.33 53.95 54.08 53.52 53.01 53.97 55.59 55.16 55.72 55.19 51.44 50.51 50.13 49.83 49.26
61.77 61.31 61.70 62.96 63.61 64.23 64.24 62.22 62.72 63.48 64.10 65.66 66.62 66.57 66.19 65.53 64.17 63.66 62.28 61.39 60.93 59.73 58.89 57.47 57.30 56.78 54.61 53.48 52.81 54.03 54.07 53.26 52.73 51.53 52.73 53.32 53.37 53.08 51.50 48.52 47.70 47.47 47.35
62.30 62.38 62.81 63.22 64.16 65.27 64.58 63.66 62.18 63.26 64.41 66.23 66.31 65.83 65.24 64.25 62.97 62.57 61.74 60.59 60.56 59.29 58.00 56.67 56.35 55.26 54.95 54.51 50.80 51.90 53.29 52.11 51.72 51.13 50.39 50.15 51.14 50.36 49.99 49.72 49.89 49.38 45.93
62.63 62.49 62.38 63.22 64.44 64.81 63.72 61.67 60.26 61.03 63.48 65.38 65.81 65.60 64.81 63.72 62.24 62.11 61.26 60.69 59.76 57.71 57.89 57.04 55.17 53.54 52.52 54.06 52.51 52.20 52.29 50.87 49.86 50.00 50.21 49.78 49.43 49.46 49.09 48.70 48.87 48.78 48.92
61.85 62.70 62.72 62.82 63.85 65.12 64.68 62.99 61.89 61.38 62.99 64.00 65.10 65.02 64.43 63.66 62.49 62.04 61.44 59.19 58.53 58.19 56.90 55.59 54.65 53.16 53.75 53.56 52.03 50.00 47.56 48.32 48.76 49.47 49.76 48.86 49.43 49.42 47.82 48.09 48.66 48.62 48.17
61.86 62.95 62.64 62.86 63.93 65.07 65.06 63.93 62.52 62.68 63.55 63.08 63.27 62.39 60.11 58.59 60.23 61.30 59.28 57.12 57.17 57.64 55.75 55.50 54.91 53.39 51.60 51.64 50.34 49.61 46.74 46.12 47.88 49.41 49.08 48.98 48.56 48.24 48.51 48.40 48.61 47.84 47.45
62.97 63.27 63.55 63.53 64.12 65.13 65.57 64.13 62.10 60.23 60.35 62.48 63.43 63.32 62.04 61.64 60.25 59.51 58.04 56.21 56.72 56.85 56.13 55.08 54.20 53.04 51.79 50.39 50.25 49.43 49.50 47.78 44.95 44.47 47.80 47.71 48.35 47.61 48.00 47.80 47.34 47.45 47.43
63.89 63.95 63.56 63.86 64.14 64.74 65.54 65.28 63.30 61.33 61.68 63.66 63.80 62.58 61.61 60.47 59.74 58.05 56.80 55.61 55.66 55.22 55.98 54.64 52.69 52.09 52.08 51.39 47.74 48.58 47.62 48.24 47.52 43.89 41.50 44.36 46.76 47.18 46.65 46.10 46.47 46.64 46.71
65.09 64.58 64.77 63.80 63.78 64.66 64.70 64.87 64.54 63.42 62.43 62.36 62.11 61.47 60.75 58.93 57.62 56.78 55.89 56.23 55.03 55.47 54.79 53.08 52.86 52.64 49.69 46.75 46.36 48.17 47.62 46.00 44.84 44.43 42.65 43.10 42.59 44.16 45.29 45.64 45.86 46.18 46.27

GFSSE_sfc_wetblb_051.txt.gz
Wetbulb
70.42 70.83 71.70 72.78 72.73 72.37 72.12 71.70 71.46 71.30 71.32 71.03 70.42 70.38 70.48 70.67 70.77 70.82 71.10 71.17 71.27 70.45 68.55 68.34 67.77 67.18 66.93 67.01 66.92 66.78 67.90 67.78 67.34 67.58 67.52 66.35 66.68 67.10 67.34 67.53 68.36 67.51 68.42
70.19 71.08 71.09 71.86 72.21 72.25 72.05 71.65 71.32 70.77 70.48 70.33 70.21 70.13 70.30 70.42 70.69 71.07 71.54 71.34 70.92 69.72 68.18 67.69 67.19 66.64 66.36 66.21 66.27 66.42 66.30 66.88 67.53 67.75 67.76 67.01 66.46 66.19 65.94 65.82 66.62 66.32 67.07
68.98 70.87 72.17 71.39 71.91 71.86 71.81 71.35 70.78 70.36 70.28 70.16 70.13 69.98 70.06 70.45 70.79 71.14 71.17 70.95 70.83 69.83 68.00 67.59 67.15 66.94 66.70 66.28 66.42 65.92 65.73 66.25 66.32 67.17 68.07 64.49 65.35 66.42 66.36 66.57 66.35 65.33 65.52
68.19 70.28 71.48 70.98 71.09 71.14 70.73 70.16 70.09 70.04 69.74 69.86 70.03 70.01 70.21 70.16 70.04 70.09 70.21 70.53 70.63 70.60 67.76 67.32 67.03 66.94 66.45 66.38 66.17 66.05 65.89 65.80 65.66 67.84 64.61 63.91 64.58 66.93 66.86 66.06 66.05 66.09 65.26
68.07 68.96 70.45 70.10 70.10 70.19 69.84 69.42 69.24 69.36 69.41 69.46 69.61 70.16 69.85 69.94 70.09 70.31 69.98 69.84 70.39 70.58 68.06 67.16 66.94 66.37 66.14 66.40 66.04 65.56 65.59 65.46 65.60 64.45 63.51 63.48 62.82 64.63 65.25 65.27 64.88 64.85 64.62
68.80 67.61 69.11 68.93 69.07 69.39 69.37 69.35 69.05 69.05 68.90 68.77 69.15 69.79 69.85 69.85 70.23 70.65 70.25 70.06 70.17 70.48 67.86 66.67 65.97 65.49 65.58 65.66 64.98 64.67 63.91 64.51 65.54 63.75 63.12 62.93 62.24 63.16 63.21 62.94 62.84 62.96 63.02
69.77 69.47 69.00 68.00 68.56 68.91 69.22 69.11 68.96 68.68 68.32 68.67 68.90 68.79 69.08 69.35 69.63 70.06 69.88 69.81 69.81 69.61 67.29 65.75 64.98 64.79 64.88 64.61 64.02 63.42 63.16 62.93 62.36 62.85 62.73 62.00 62.19 62.39 62.57 62.32 62.04 62.04 61.66
67.78 67.65 67.57 68.04 68.06 68.17 68.50 68.32 68.14 67.92 68.08 68.24 68.38 68.63 68.89 68.41 68.17 69.05 69.28 68.97 68.54 67.28 66.74 65.99 65.38 64.55 63.83 63.08 62.31 61.87 61.52 62.49 61.58 62.19 62.52 61.68 61.86 61.78 61.74 61.22 61.01 60.80 60.89
67.24 66.19 66.55 67.04 67.09 66.74 66.85 66.80 66.88 67.52 67.75 67.95 67.91 67.75 67.41 66.92 66.77 67.63 67.91 67.46 66.87 66.39 65.90 65.58 65.01 64.28 62.70 61.82 60.87 60.24 59.79 60.94 60.81 60.29 60.23 61.31 61.65 61.28 60.82 60.67 60.49 60.31 60.14
63.97 65.12 64.59 64.74 65.26 66.21 67.09 65.94 66.36 66.83 66.94 67.10 66.95 66.24 65.92 65.90 65.95 66.04 66.28 66.38 66.35 66.09 65.43 64.62 63.97 63.02 61.35 60.25 60.10 59.87 59.19 61.08 59.83 59.52 58.30 61.30 61.66 60.98 60.26 59.97 59.79 59.49 59.12
60.52 59.95 62.63 62.68 62.89 64.81 65.43 65.44 65.79 66.88 66.45 65.61 65.58 64.71 63.57 62.75 62.92 64.18 64.61 65.23 65.74 65.41 64.50 63.48 62.83 61.89 60.55 59.20 58.90 58.33 59.29 58.88 58.38 58.51 57.17 60.40 61.74 60.96 59.90 59.28 59.08 58.87 58.13
57.71 57.20 57.58 58.58 60.38 60.33 63.12 64.01 64.30 65.75 64.93 64.30 64.12 64.46 62.83 64.96 64.90 62.96 64.08 64.28 64.20 63.89 63.44 62.72 61.85 61.01 61.20 59.78 58.81 58.75 58.47 58.14 56.69 56.57 55.72 58.49 59.79 60.96 59.89 58.82 58.22 57.86 57.24
57.42 57.20 56.76 58.00 58.91 58.35 60.10 61.04 61.87 63.47 63.94 63.50 63.97 63.84 65.08 64.15 63.19 63.96 62.97 61.45 61.99 61.77 60.44 59.86 59.73 61.63 61.87 61.10 59.73 58.83 57.98 56.86 55.24 55.14 54.77 55.48 57.08 60.26 59.73 58.68 57.85 57.19 56.55
54.31 56.20 57.19 58.60 58.91 60.46 60.16 60.43 61.00 62.78 63.04 62.41 63.69 65.87 65.40 64.15 64.28 63.71 63.31 63.07 62.54 62.30 61.17 61.72 62.07 61.58 60.79 59.90 58.73 57.63 56.59 55.18 54.64 54.92 55.13 55.89 54.97 56.96 60.12 58.82 57.42 56.30 55.34
53.77 54.99 56.28 57.53 57.81 59.08 60.57 60.44 61.70 61.29 60.32 62.04 63.78 64.92 64.53 63.60 64.70 64.22 64.45 63.81 63.39 63.56 62.92 62.41 61.38 60.61 59.79 58.86 57.84 56.34 54.93 54.83 54.79 55.07 57.46 57.99 55.44 55.75 60.17 58.91 57.53 56.09 54.78
55.41 55.11 56.78 58.30 58.56 59.05 58.81 59.50 60.47 61.45 61.66 63.07 63.79 64.45 65.49 64.97 65.48 63.67 64.02 63.19 63.31 63.55 63.40 62.41 61.02 60.49 59.76 58.59 56.34 54.86 54.20 54.04 54.47 55.47 55.99 56.15 56.97 58.02 58.96 57.37 56.26 55.43 54.72
55.03 55.90 56.69 57.74 57.97 57.19 57.34 58.90 60.47 62.18 62.37 62.60 63.23 66.08 66.09 65.30 64.97 65.02 64.45 63.75 63.76 64.00 63.07 62.33 61.13 60.26 59.02 57.32 55.18 54.40 53.93 54.10 54.32 54.59 55.39 56.85 55.68 54.88 55.59 55.11 55.10 54.00 52.95
57.69 57.84 58.38 58.55 59.05 58.15 59.44 60.12 60.70 62.63 62.66 62.55 63.48 65.40 66.22 65.15 65.14 64.82 63.96 63.50 63.83 63.18 62.05 60.94 60.04 59.35 58.53 56.86 55.39 54.51 54.45 53.96 53.69 53.93 55.23 54.84 55.00 55.31 53.39 52.97 51.62 50.15 49.26
58.71 57.90 59.07 59.58 58.59 60.26 62.57 62.92 63.85 63.52 61.97 61.27 63.56 64.95 65.89 66.34 66.26 66.08 64.37 64.00 63.68 62.24 61.50 60.72 59.79 59.71 57.24 55.31 54.50 54.40 54.97 54.01 52.91 52.08 53.53 53.50 53.37 52.32 52.25 52.08 50.45 48.45 47.34
61.40 61.90 61.37 61.30 61.58 62.85 63.41 62.46 61.49 62.34 62.68 63.56 64.63 65.56 66.21 66.46 65.98 65.65 64.41 63.86 62.94 61.79 60.94 60.32 59.61 58.54 57.09 55.65 52.56 52.64 54.75 54.05 53.14 52.47 51.89 51.61 51.19 51.07 50.99 50.78 50.08 49.87 48.95
62.45 62.24 62.50 62.63 63.40 63.46 62.39 60.93 59.53 60.69 61.84 62.96 64.38 65.66 65.92 65.87 65.29 64.83 63.87 63.39 62.60 61.54 60.83 60.04 58.66 56.48 54.94 55.29 53.84 53.73 53.79 53.56 52.22 51.83 52.20 51.55 51.04 50.75 50.99 50.00 49.51 49.36 49.38
61.88 62.58 62.56 62.58 62.95 64.26 63.79 62.69 61.73 61.05 61.72 62.43 64.21 65.61 65.73 65.34 64.77 64.23 63.87 62.55 62.15 60.91 59.89 59.09 57.93 55.32 55.41 55.50 52.80 52.72 50.28 51.85 51.05 51.21 51.67 51.01 51.04 50.99 50.22 49.40 49.23 49.37 49.65
61.85 62.57 62.95 63.54 64.22 64.45 64.67 64.17 62.49 61.74 62.09 61.75 62.83 64.03 64.82 65.32 64.77 63.97 63.57 62.78 61.85 60.84 59.25 58.56 57.32 56.27 53.83 54.24 53.81 51.87 49.28 47.21 49.98 51.46 50.65 51.02 50.86 50.01 49.95 49.83 49.57 49.70 49.11
61.74 63.40 63.43 63.70 64.08 64.35 65.02 64.17 62.55 60.20 58.81 61.19 62.36 63.70 64.19 64.19 62.91 62.49 62.58 62.03 60.72 60.18 58.75 58.08 57.67 57.29 55.46 52.89 53.14 52.83 52.58 50.27 45.76 46.13 50.19 50.15 50.18 49.24 49.90 49.39 48.88 48.24 48.26
63.38 63.91 64.45 63.75 63.71 64.31 64.92 64.82 64.03 62.11 61.50 62.42 63.40 63.54 64.22 63.79 63.08 62.81 62.26 61.05 59.59 58.87 58.99 57.80 57.83 56.53 54.50 53.51 53.00 50.72 48.39 49.21 50.10 46.55 44.07 46.48 48.40 48.87 48.97 48.09 47.67 47.29 47.48
64.40 64.81 64.93 63.67 63.60 64.29 64.88 64.82 64.85 63.80 62.55 61.28 63.43 63.00 63.36 63.53 62.83 62.06 60.34 60.00 59.14 58.24 57.69 57.53 57.56 55.49 54.55 52.69 48.23 47.92 49.20 48.27 47.73 46.85 44.93 45.75 45.35 46.83 47.57 47.12 46.68 47.01 47.28

GFSSE_sfc_wetblb_054.txt.gz
Wetbulb
68.17 71.18 72.25 72.39 72.50 72.23 71.97 71.61 71.45 71.27 71.12 71.10 71.15 71.20 71.23 71.06 71.14 71.29 71.10 70.14 69.94 69.90 68.58 67.77 67.12 67.13 67.07 67.07 67.20 67.61 68.24 68.00 67.61 67.66 67.77 66.69 67.21 67.31 67.44 68.19 67.95 66.55 68.21
68.49 71.65 71.67 72.05 72.20 72.29 72.00 71.52 71.28 70.89 70.85 70.79 70.76 70.82 70.85 70.94 71.19 71.34 70.34 69.60 69.67 68.32 67.67 67.13 66.78 66.39 66.37 66.63 66.42 66.96 67.44 67.91 67.53 67.56 67.49 66.67 66.56 66.87 66.52 65.95 66.96 66.14 67.08
67.62 71.28 72.11 71.52 71.94 71.99 71.86 71.54 71.07 70.85 70.74 70.81 70.70 70.75 70.80 71.11 71.52 71.07 69.93 69.28 69.43 68.83 67.70 67.45 66.88 66.35 66.09 66.08 66.71 67.07 67.00 66.50 67.44 67.68 67.13 64.23 64.15 66.67 67.15 66.50 66.55 65.56 65.58
69.15 70.72 71.69 71.22 71.47 71.53 71.16 70.87 70.60 70.60 70.50 70.44 70.39 70.66 70.79 71.18 71.38 71.05 70.34 68.88 68.92 68.66 67.60 67.30 66.85 65.98 65.99 66.13 66.63 66.47 66.46 66.33 66.97 66.09 61.30 62.15 63.66 66.28 65.99 65.66 65.74 65.28 64.70
68.52 70.40 70.60 70.13 70.52 70.70 70.41 70.14 69.80 69.99 69.82 69.92 69.98 70.74 70.67 70.77 70.97 70.89 70.05 68.68 68.87 68.49 67.32 66.97 66.41 65.39 65.33 65.84 65.37 64.96 64.89 65.30 65.24 61.93 59.37 59.95 60.23 63.19 64.20 64.23 63.91 63.96 63.68
68.43 70.18 69.05 69.10 69.54 69.94 70.03 69.78 69.65 69.27 68.94 69.11 69.62 69.89 70.26 70.51 70.53 70.37 69.56 69.46 68.68 68.07 66.78 66.10 65.23 64.72 65.18 64.57 64.20 64.20 63.97 64.25 63.90 59.62 58.98 60.99 60.03 63.14 63.27 62.87 62.61 62.38 62.54
67.57 69.46 68.75 67.98 68.98 69.50 69.87 69.82 69.27 68.99 68.66 69.04 69.07 69.37 69.95 70.51 70.38 69.86 69.39 69.30 67.98 67.59 66.04 65.04 64.34 64.02 64.41 63.72 63.31 62.72 62.82 63.01 60.42 58.99 58.67 58.87 59.24 62.25 62.42 61.81 61.69 61.60 61.22
66.48 68.33 68.18 68.35 68.17 68.37 68.69 68.65 68.35 68.31 68.72 68.59 68.87 69.16 69.86 70.11 69.93 69.61 69.25 68.46 67.24 66.73 66.34 65.48 64.76 64.08 63.68 62.68 61.55 61.48 61.75 62.35 60.91 59.23 58.78 58.40 61.08 61.78 61.78 61.22 60.87 60.61 60.40
67.24 66.50 66.19 66.72 67.21 67.01 66.84 67.21 67.34 67.85 68.17 68.19 68.11 67.80 68.06 68.33 68.52 68.87 68.32 67.51 66.99 66.24 65.86 65.07 64.50 63.76 62.48 61.33 60.57 60.01 60.64 61.80 56.09 56.97 59.31 58.38 61.40 61.32 60.95 60.66 60.36 59.85 59.66
65.36 65.25 64.76 65.08 64.83 63.98 64.11 65.53 66.21 67.04 67.12 67.14 66.77 66.19 66.17 67.04 67.26 66.94 66.44 66.44 65.99 65.92 65.37 64.49 63.64 62.62 61.65 60.02 59.22 58.88 59.98 60.39 55.55 55.87 57.62 59.13 61.48 60.73 60.48 59.96 59.66 59.08 58.87
62.15 63.81 64.02 63.60 62.87 62.38 62.23 64.21 65.68 66.89 66.31 65.73 65.38 64.82 63.57 64.43 64.57 64.40 64.92 65.23 65.33 64.96 64.39 63.75 62.68 61.42 60.46 59.63 59.54 59.82 59.26 54.34 54.31 53.92 54.81 62.24 61.51 60.46 59.93 59.45 58.97 58.46 58.02
57.21 59.44 62.35 62.23 61.91 60.68 60.74 62.13 63.06 64.45 63.82 63.09 62.05 61.60 61.00 61.27 62.35 63.57 64.54 64.70 64.39 63.72 63.44 62.73 62.05 60.96 59.89 54.60 54.44 58.14 54.13 54.39 53.74 52.33 54.01 60.10 61.60 60.71 59.82 58.90 58.30 57.70 57.27
56.25 57.15 59.08 60.57 61.18 61.24 60.83 61.78 61.83 62.09 62.07 62.61 62.61 62.04 62.42 61.51 61.43 61.58 61.26 61.27 60.66 61.03 58.18 58.98 58.58 57.15 58.27 57.25 56.03 54.91 54.11 52.27 51.59 50.68 54.60 57.96 59.89 60.76 60.06 58.85 58.00 57.24 56.79
55.29 56.81 58.01 58.51 59.00 59.23 59.44 59.45 60.15 60.21 60.49 61.08 63.40 63.50 62.15 61.51 61.38 60.09 59.51 59.66 58.42 58.53 56.83 57.94 57.61 58.91 57.63 56.80 55.56 54.06 52.75 51.62 50.55 50.35 52.68 56.39 57.37 60.36 59.99 58.83 57.68 56.62 55.99
54.93 56.19 57.59 58.43 57.39 56.97 56.83 58.20 58.97 59.61 60.28 61.68 62.55 63.44 63.61 61.64 61.81 60.89 60.63 60.06 59.49 60.16 58.63 59.25 58.40 57.56 56.83 55.79 54.84 53.27 51.99 51.07 51.29 53.32 52.30 56.90 56.79 57.15 59.96 59.01 57.63 56.32 55.35
54.96 55.45 56.97 57.29 57.73 57.23 55.93 57.22 57.59 59.19 60.30 61.10 62.58 62.88 63.80 62.78 62.77 62.23 62.73 61.68 61.07 61.17 60.69 59.84 58.23 57.28 56.34 55.09 52.92 51.79 51.04 50.69 51.08 51.47 52.02 54.56 57.83 59.67 60.31 58.78 57.86 56.67 55.55
54.92 55.84 56.86 57.32 58.30 57.92 57.24 58.68 58.61 59.35 61.19 61.56 61.87 62.92 62.59 63.06 62.50 61.85 61.82 61.38 61.20 61.35 60.82 59.45 58.03 57.77 55.71 55.48 52.25 51.17 50.74 50.54 50.76 50.85 52.28 52.45 53.89 56.65 57.28 56.84 56.22 55.11 54.05
55.13 55.94 57.07 57.47 57.05 56.48 56.23 57.16 56.77 57.83 61.36 61.04 61.67 61.99 63.36 63.40 62.88 62.14 61.63 61.80 62.02 61.42 59.77 58.56 57.16 55.82 55.51 53.66 50.98 49.86 49.48 49.82 49.70 50.14 51.16 51.11 52.27 52.55 55.00 55.90 54.17 52.60 50.91
56.30 56.74 56.77 56.68 55.61 54.77 55.44 55.91 58.51 59.01 60.82 60.62 60.55 62.14 63.20 63.33 63.33 62.61 62.71 61.96 62.08 60.49 59.09 58.13 56.95 56.70 54.48 52.32 51.27 50.14 49.68 49.35 49.16 50.50 50.53 50.12 48.89 49.17 50.66 54.53 53.95 52.36 50.66
57.17 57.19 57.26 56.54 56.92 56.33 55.92 57.69 58.64 60.00 60.69 60.62 59.89 61.79 63.36 63.44 64.09 63.20 62.57 62.27 60.72 59.52 58.71 57.79 56.44 56.55 54.69 52.28 52.96 50.68 50.35 49.74 48.74 47.54 47.92 49.84 48.44 47.29 46.60 47.45 46.71 46.62 51.22
57.48 58.16 57.26 57.35 57.67 56.96 58.60 57.90 57.88 58.34 58.87 59.10 60.48 62.77 63.48 63.42 63.60 63.16 62.48 61.65 60.34 59.24 58.07 58.07 56.37 54.62 52.13 51.26 49.16 49.00 49.85 49.69 48.38 47.74 47.96 47.57 47.52 47.23 46.56 46.21 44.99 44.47 45.83
57.57 58.20 58.37 58.46 57.08 57.97 59.93 60.19 58.48 58.76 59.98 60.15 60.97 62.73 63.76 63.77 63.65 63.22 61.70 60.65 59.72 59.20 58.58 57.16 55.91 52.62 51.90 52.02 48.38 48.38 44.80 46.52 47.35 48.27 47.57 47.82 46.44 46.79 47.43 47.05 45.32 45.31 44.63
59.27 59.61 59.89 60.31 59.82 60.36 61.27 61.44 60.61 59.22 59.28 59.55 60.12 61.89 62.80 62.96 62.76 62.42 61.96 60.81 59.97 59.28 57.30 56.85 55.88 53.55 50.34 52.08 49.95 47.65 44.63 43.14 43.82 46.37 47.32 46.59 46.39 45.17 45.70 45.92 46.50 46.25 45.93
60.54 61.26 61.47 61.64 61.66 61.78 62.64 61.62 60.30 58.27 56.24 58.21 59.06 61.47 62.15 63.33 62.71 62.49 61.69 61.10 60.10 58.81 57.19 56.50 55.90 54.46 53.75 50.24 50.52 50.07 48.57 45.87 41.64 42.52 44.50 45.68 46.75 46.39 45.38 44.86 44.99 44.88 44.24
61.16 61.07 61.49 62.02 62.02 62.28 62.90 62.90 61.07 59.48 58.82 58.70 60.03 60.03 62.05 62.75 62.50 61.73 60.86 60.21 58.99 58.14 57.10 56.07 54.55 54.39 53.52 51.61 50.17 48.83 45.23 45.48 46.71 43.89 39.47 43.37 44.38 44.78 44.93 45.99 42.95 42.42 44.00
60.94 61.53 61.74 61.89 61.91 62.38 63.15 63.31 62.19 60.67 59.82 58.66 59.57 59.98 61.48 61.76 61.24 61.04 60.72 59.90 58.65 57.40 57.19 56.35 55.58 54.31 52.54 50.80 47.62 46.11 46.32 45.53 45.06 44.75 41.59 40.86 41.35 43.33 44.28 43.48 42.03 42.02 43.02

GFSSE_sfc_wetblb_057.txt.gz
Wetbulb
61.49 70.53 71.79 72.10 72.53 72.18 71.87 71.42 71.27 71.05 71.29 71.70 71.46 71.50 71.41 71.68 71.05 70.27 70.05 69.93 69.63 69.14 67.96 67.46 68.04 68.33 67.97 67.82 67.48 68.35 68.37 67.90 67.42 67.84 67.95 66.90 67.13 67.71 67.84 67.56 67.81 66.63 68.32
62.80 65.91 70.15 71.58 72.13 72.31 72.00 71.50 70.96 70.94 71.32 71.45 71.03 71.11 71.38 71.28 70.22 70.00 69.93 69.42 69.06 68.00 67.34 66.94 67.23 67.63 67.69 67.62 67.71 68.38 68.19 67.88 67.39 67.39 67.23 67.09 67.07 66.68 66.40 66.51 66.93 65.35 67.13
62.84 64.34 68.84 70.47 71.60 71.99 71.89 71.41 71.21 71.23 71.50 71.27 70.96 71.03 71.38 70.85 70.08 69.83 69.17 68.83 68.92 68.54 67.02 66.63 66.93 67.03 66.84 66.60 67.41 67.48 67.03 66.79 67.08 67.24 66.55 63.35 62.99 66.60 66.96 65.78 65.98 65.08 65.34
63.78 65.44 69.54 70.36 70.95 71.68 71.27 70.98 70.85 71.04 71.22 71.00 70.82 71.35 71.52 70.64 69.93 69.61 69.00 68.42 68.81 68.54 66.72 66.13 66.81 66.84 66.07 65.88 65.99 66.26 66.00 64.73 64.46 64.01 61.00 61.00 61.94 65.00 65.32 64.85 64.61 64.66 64.57
68.13 70.58 70.55 70.35 70.58 70.98 70.81 70.39 70.34 70.47 70.25 70.30 70.47 71.47 71.60 70.86 69.83 69.49 68.63 68.44 68.64 68.08 66.22 66.07 66.27 65.30 64.94 64.97 64.76 64.63 65.35 64.13 63.16 60.88 58.24 58.25 59.84 62.79 63.85 63.49 63.19 63.68 64.16
67.84 69.66 68.93 69.11 69.65 70.03 70.42 70.19 69.98 69.64 69.35 69.60 70.18 71.00 71.01 71.02 70.10 69.17 68.44 68.32 68.42 67.43 65.54 65.24 64.69 64.14 64.55 64.14 63.56 64.14 64.23 63.10 61.49 57.51 56.97 60.31 59.43 63.03 62.88 62.50 62.28 62.36 62.66
68.01 68.62 68.61 68.28 69.07 69.32 69.26 69.95 69.68 69.16 69.33 69.23 69.81 70.23 70.80 70.39 70.07 68.82 68.11 67.82 67.47 66.82 65.19 64.19 63.54 63.54 63.63 62.82 63.26 63.14 64.10 62.40 58.25 57.18 56.35 56.96 58.70 62.47 62.38 62.08 61.44 61.34 61.51
67.86 68.08 68.19 69.02 68.93 68.73 68.82 68.57 68.40 68.88 68.90 69.07 69.32 69.75 70.05 69.82 69.52 68.84 67.82 67.31 66.88 66.20 65.68 64.51 64.11 63.31 62.59 62.79 62.51 61.97 62.35 61.68 59.02 57.27 56.75 56.41 61.09 61.86 61.91 61.18 60.64 60.55 60.45
67.61 67.18 67.20 67.52 67.65 67.07 66.87 67.03 67.33 68.19 68.40 68.70 69.02 69.32 69.16 68.75 68.50 67.83 67.41 66.95 66.51 65.86 65.14 64.26 63.53 62.47 62.02 61.61 61.44 61.30 61.17 61.25 57.11 57.84 58.42 56.56 61.34 61.39 61.44 60.55 60.13 59.83 59.78
65.36 65.18 65.00 65.61 65.37 64.91 64.85 65.68 66.43 66.83 67.09 67.18 67.79 67.70 67.78 67.77 67.97 67.08 66.54 66.44 66.01 65.36 64.68 63.51 62.64 61.52 60.66 60.18 59.78 59.52 59.82 59.21 56.34 56.81 57.15 58.56 61.18 60.84 60.50 60.08 59.51 59.27 59.13
63.59 63.67 63.66 62.79 62.62 62.22 62.33 64.58 66.82 67.00 66.35 66.02 66.58 65.82 64.93 65.27 64.65 63.95 65.18 65.38 65.23 64.66 63.99 63.16 62.05 60.86 59.84 59.02 58.39 59.55 57.18 52.04 52.96 54.54 56.83 62.17 61.09 60.66 60.17 59.34 58.81 58.69 58.53
58.85 62.07 62.22 61.49 61.11 61.01 60.74 63.48 64.00 64.47 63.13 62.26 61.77 61.04 63.24 62.15 63.42 64.24 64.45 64.45 64.33 63.84 63.22 62.75 61.51 60.40 57.91 52.27 53.04 56.06 51.19 50.67 51.12 52.82 56.33 62.26 61.07 60.52 59.64 58.67 58.19 57.84 57.34
57.25 60.52 61.08 60.56 59.90 59.82 60.32 61.25 61.75 62.53 62.30 60.52 60.64 60.57 61.55 62.32 62.03 61.98 61.26 60.85 60.17 61.34 58.95 59.63 58.39 55.31 55.48 53.70 52.40 50.65 49.97 49.41 47.31 49.14 56.73 60.94 61.18 60.38 59.31 58.67 57.84 57.32 56.22
56.62 57.67 59.35 59.48 58.56 58.84 59.72 59.96 60.44 60.98 60.82 60.12 61.41 60.70 60.36 59.83 59.49 58.84 58.50 58.32 57.00 56.92 54.92 55.42 54.97 56.01 54.22 53.72 52.19 50.74 49.33 48.16 47.25 47.40 53.49 58.56 60.94 59.92 59.85 58.68 57.75 56.93 55.93
55.98 57.51 57.81 58.21 58.21 58.13 58.43 59.00 58.78 59.39 60.26 61.06 61.71 61.63 60.95 59.44 58.42 58.25 58.19 57.34 56.98 57.15 54.95 55.81 56.06 55.41 53.59 53.09 51.57 50.28 49.24 48.24 48.89 49.24 49.47 57.35 58.09 60.88 59.85 59.04 58.03 56.67 55.58
56.16 55.78 56.06 56.18 57.14 57.65 57.32 57.73 58.06 58.80 59.45 59.88 60.99 61.94 60.99 60.47 58.89 58.97 59.05 57.30 57.28 57.89 56.34 57.34 55.45 54.51 53.56 51.97 49.75 49.12 48.85 48.57 50.11 50.00 51.33 53.07 57.50 58.17 60.65 59.27 58.44 57.13 55.69
55.51 55.94 55.92 55.73 56.70 56.70 56.21 56.77 57.37 58.26 59.35 59.05 60.39 61.35 60.99 61.02 60.71 60.17 60.72 59.24 58.72 58.99 57.81 56.60 55.66 54.80 53.70 52.39 49.66 48.61 48.51 48.20 48.46 49.73 50.46 51.86 54.88 58.41 59.21 59.86 58.07 56.57 55.09
55.39 55.64 56.92 57.54 55.38 55.54 55.78 56.08 57.19 58.49 58.56 59.09 59.71 59.80 60.44 61.00 61.13 60.11 59.45 59.50 58.83 59.15 57.80 55.98 54.97 53.69 52.99 50.08 47.70 47.27 47.74 47.75 47.70 48.38 50.42 50.81 51.19 53.03 56.32 57.61 56.80 55.14 53.99
54.29 55.46 56.01 56.33 54.94 55.26 56.93 57.14 57.04 57.38 58.48 58.75 59.04 59.44 60.32 61.48 61.88 59.44 59.94 59.64 59.76 58.39 56.88 56.14 54.90 53.98 52.66 50.74 48.38 47.35 46.60 46.73 46.53 49.15 48.26 49.54 50.00 50.11 50.02 55.70 55.57 54.78 53.57
54.27 55.26 55.09 55.79 55.50 55.91 56.35 55.47 55.09 55.67 56.08 57.91 57.61 58.55 61.06 61.21 61.45 60.87 60.43 60.25 59.16 57.61 56.55 55.49 54.24 54.36 53.15 50.17 51.48 48.97 46.43 46.83 46.01 44.96 46.63 48.41 46.34 48.56 48.59 49.04 49.07 48.31 52.90
54.23 54.54 54.49 53.81 53.20 53.66 53.11 52.87 53.39 54.16 55.08 57.37 57.88 58.31 60.54 61.25 62.23 61.61 60.85 59.81 58.74 57.23 56.26 55.59 54.01 53.27 51.33 49.89 46.90 46.06 46.32 46.40 45.97 45.03 45.06 45.20 45.65 44.91 44.76 45.06 43.85 42.94 45.95
53.68 54.68 53.77 53.94 53.01 52.73 53.02 54.17 55.21 55.63 56.18 57.47 57.92 58.26 61.35 61.64 61.88 61.30 60.57 59.40 58.46 57.07 56.23 55.27 53.88 51.51 50.42 49.01 45.92 46.47 45.02 45.22 45.38 45.45 44.77 45.62 45.52 44.61 44.73 44.89 43.71 43.27 42.58
54.07 54.46 53.83 54.74 54.03 54.41 54.96 56.34 56.55 55.46 56.24 57.14 57.15 56.85 61.05 61.38 61.49 61.39 60.48 59.24 58.38 57.53 56.31 54.83 53.72 51.46 49.05 49.33 48.10 47.35 43.34 41.52 42.15 44.01 45.06 47.07 45.62 43.15 43.63 44.46 43.96 43.59 43.11
54.16 55.75 55.52 56.24 55.47 55.18 56.96 57.24 56.79 55.51 54.32 56.91 57.47 57.66 59.73 60.97 61.19 61.55 60.91 59.39 58.31 58.15 55.84 55.13 54.70 52.24 50.06 49.29 48.15 50.37 48.66 45.95 41.94 41.53 44.33 44.51 46.09 44.09 42.72 42.89 43.48 44.21 43.13
55.60 55.65 56.21 56.97 55.59 55.69 56.13 58.23 57.93 57.63 56.46 56.24 57.48 56.47 59.29 60.68 61.06 61.04 60.52 59.28 58.06 57.69 55.94 54.95 53.56 52.38 53.21 51.08 48.25 47.77 46.51 45.48 45.45 43.26 40.35 43.46 44.96 45.11 43.97 43.74 42.59 41.36 42.08
57.50 57.37 57.65 57.44 57.47 57.02 57.77 58.62 59.04 58.78 56.06 54.86 54.80 55.72 58.45 59.67 60.40 60.22 59.53 58.09 57.51 56.28 55.51 55.29 55.41 54.31 54.26 51.44 49.34 48.25 46.68 44.92 44.76 45.13 42.19 41.41 41.74 42.98 43.21 42.73 41.59 40.43 42.40

GFSSE_sfc_wetblb_060.txt.gz
Wetbulb
65.39 70.69 70.96 72.38 72.19 71.77 71.45 71.21 71.10 71.14 71.46 71.59 71.66 71.65 71.22 70.72 70.40 69.91 69.70 69.58 69.45 68.92 68.12 68.51 68.67 68.52 67.83 67.57 67.31 67.73 68.18 67.87 67.55 67.61 67.41 67.10 68.06 67.97 67.70 67.38 67.45 66.18 68.16
66.70 69.74 70.37 70.90 72.05 71.75 71.60 71.22 71.11 71.01 71.39 71.57 71.65 71.11 70.49 70.20 70.01 69.62 69.16 69.09 68.85 68.85 68.39 68.44 68.46 68.20 68.10 67.70 68.18 68.24 67.89 67.30 66.81 66.99 67.41 66.41 66.32 66.49 66.25 65.92 66.38 66.23 67.31
64.48 69.07 69.60 69.89 70.19 71.25 71.45 71.31 71.40 71.32 71.47 71.65 71.40 70.61 70.30 70.06 69.70 69.26 68.87 68.40 68.36 68.84 68.15 68.09 67.77 67.66 67.31 67.07 67.37 67.83 67.83 66.97 66.25 65.77 65.02 63.12 63.17 65.19 65.70 65.17 65.56 65.21 65.70
63.27 63.71 68.19 66.90 69.71 70.22 71.15 70.94 71.16 71.18 71.27 71.41 71.02 70.49 70.15 69.72 69.40 69.26 68.60 68.09 67.97 68.61 67.81 67.63 67.43 65.75 64.95 66.30 67.15 66.40 65.40 64.34 64.10 62.62 59.86 60.35 61.65 64.85 64.90 64.76 64.50 64.98 64.48
63.36 63.84 63.28 65.93 68.39 70.07 70.79 70.72 70.66 70.43 70.42 70.81 70.51 70.35 70.18 69.77 69.57 69.10 68.40 67.70 67.73 68.11 67.43 67.17 65.80 64.36 64.43 65.43 65.34 65.13 64.64 63.86 62.93 60.08 56.96 57.88 59.50 62.72 63.91 63.70 63.48 64.32 64.32
66.92 68.79 67.85 66.76 69.01 69.96 70.68 70.50 70.08 69.96 69.80 70.12 69.96 69.88 70.08 69.91 69.54 68.93 67.93 67.70 67.45 67.55 66.44 65.58 64.39 63.70 64.16 65.19 64.99 64.54 63.68 62.68 60.37 55.89 56.19 59.95 58.89 62.93 62.96 62.70 62.63 62.35 62.53
66.98 67.96 68.58 67.75 68.64 69.04 69.38 69.51 69.40 69.65 69.58 70.25 70.05 69.39 69.61 69.49 69.06 68.35 67.61 67.17 66.62 66.20 64.62 63.90 63.61 64.08 63.75 65.13 64.38 63.44 62.55 61.73 56.84 54.96 55.45 56.57 58.93 62.39 62.54 62.14 61.80 61.57 61.22
66.87 67.44 67.87 68.27 68.31 67.73 68.51 67.76 67.58 68.97 69.40 69.60 69.82 69.36 69.03 68.76 68.31 67.77 67.18 66.61 66.22 65.52 64.78 64.17 63.83 63.66 63.11 63.78 63.85 62.63 61.84 61.03 57.48 55.58 55.70 56.41 61.22 61.92 61.73 61.31 60.96 60.77 60.19
66.80 66.79 67.31 67.62 67.82 67.46 66.57 65.65 65.45 68.12 68.78 69.04 68.66 68.41 68.48 67.69 67.25 67.17 66.88 66.43 65.86 64.96 64.26 63.61 63.04 62.79 62.64 62.25 62.91 62.36 61.19 60.54 55.79 56.36 57.19 56.05 61.62 61.45 61.22 60.73 60.47 60.18 59.71
65.54 65.67 65.88 66.26 66.48 64.87 64.43 64.68 64.68 66.61 67.64 68.21 68.43 67.85 66.83 66.93 66.86 66.54 66.15 65.76 65.31 64.53 63.71 62.87 62.17 62.17 61.75 61.47 61.84 61.30 60.96 59.56 54.82 55.36 55.99 58.38 61.34 61.17 60.49 59.93 59.82 59.54 58.88
64.02 64.48 64.92 64.63 64.76 64.00 64.47 65.14 66.06 67.33 67.22 67.15 66.59 66.34 65.79 65.43 64.50 63.84 64.85 64.90 64.79 63.85 63.17 62.31 62.10 60.61 59.21 60.43 60.38 59.36 57.00 53.62 54.87 55.75 56.41 61.77 61.19 60.81 59.98 59.40 59.08 58.82 58.17
61.51 61.90 61.94 61.63 61.66 62.62 63.64 64.66 65.25 66.28 65.79 65.48 63.75 63.94 63.55 63.29 62.96 63.51 64.10 64.23 63.89 63.18 62.62 61.65 61.13 59.88 56.88 51.58 52.78 55.15 50.09 51.77 53.99 55.77 57.47 61.77 60.98 60.47 59.52 58.71 58.29 58.04 57.85
59.89 60.91 60.64 60.00 60.51 61.01 62.19 63.62 63.26 62.84 62.76 61.65 62.24 62.02 62.88 63.18 62.29 61.87 61.26 60.76 60.34 61.03 57.96 57.46 55.05 54.20 54.01 51.09 49.02 48.59 48.49 48.94 49.88 53.55 59.69 61.81 60.82 60.49 59.59 58.52 57.81 57.05 57.48
58.00 59.92 60.05 59.98 60.05 60.16 61.36 61.02 61.48 60.79 60.52 60.12 60.88 61.74 61.27 60.59 59.95 59.40 58.88 58.49 57.29 56.11 55.89 54.98 53.74 54.44 52.80 51.41 49.83 48.45 47.93 46.43 46.49 49.56 57.13 61.26 61.52 60.05 59.63 58.80 58.09 56.94 56.82
56.81 58.48 58.23 58.61 58.68 59.27 59.19 59.72 59.53 59.92 60.49 60.54 60.49 60.20 60.12 58.85 58.41 58.14 57.74 56.29 55.11 55.58 53.88 54.04 55.11 53.49 52.44 51.68 50.28 48.37 47.69 46.52 46.01 47.39 50.14 59.18 60.40 60.50 59.47 59.14 58.38 57.21 55.87
56.47 56.61 58.13 58.04 58.59 58.82 58.50 58.34 58.61 59.20 60.23 60.79 60.33 59.91 58.68 58.35 57.79 57.32 56.62 56.08 54.93 55.84 54.02 55.06 54.41 53.12 52.38 49.84 48.31 48.30 47.78 47.84 48.59 47.36 48.94 52.93 58.92 60.91 60.52 59.47 58.57 57.44 55.82
56.03 56.27 56.85 57.17 57.90 57.65 57.60 57.92 57.86 58.56 59.47 59.90 60.76 60.51 59.24 58.01 57.18 57.32 57.20 55.46 55.39 56.06 54.75 55.87 54.67 53.50 52.18 50.86 48.71 47.71 47.34 47.83 49.52 48.27 49.73 51.06 54.24 58.44 60.08 60.55 58.86 57.88 57.05
55.47 55.52 56.73 57.63 56.65 56.80 56.97 56.93 56.76 57.99 58.07 58.28 59.21 60.22 60.27 59.45 58.43 58.66 58.61 58.07 57.48 57.17 56.24 55.65 54.46 53.33 51.74 49.64 47.31 46.65 46.37 46.52 47.32 48.71 49.22 51.00 52.16 54.21 57.78 59.13 59.35 57.61 56.09
55.61 56.20 55.97 56.31 55.74 55.88 56.05 56.42 56.64 57.49 57.20 57.61 58.10 58.46 59.11 59.63 60.74 59.60 58.97 58.99 58.47 58.21 56.79 56.22 53.99 52.95 51.50 48.98 47.37 45.97 45.95 45.89 45.87 48.76 48.46 49.35 50.65 51.45 51.69 56.99 56.96 56.53 55.61
55.63 56.23 55.50 54.95 55.00 54.97 55.26 56.08 56.35 56.34 57.21 57.62 57.41 57.26 59.21 59.39 60.61 59.36 59.16 58.49 58.90 57.77 55.65 54.56 53.59 53.18 52.46 51.15 50.87 48.42 45.03 45.23 44.71 44.41 46.95 49.79 49.10 49.82 49.50 50.56 51.10 50.84 54.48
54.96 54.27 54.71 53.67 53.96 55.37 54.96 54.34 54.23 54.18 55.80 56.89 57.16 57.69 58.64 59.53 60.20 59.49 58.83 59.33 58.36 57.33 55.86 54.64 53.00 52.60 52.04 49.63 46.43 45.03 45.14 45.38 44.41 44.03 44.75 45.36 44.98 47.39 47.70 48.11 47.28 44.90 46.77
53.68 54.00 54.31 54.12 53.98 55.13 55.23 54.62 54.20 55.17 55.70 55.45 57.41 57.32 57.17 59.87 60.24 60.20 59.65 58.73 57.67 56.57 54.69 54.25 53.18 51.59 51.51 48.38 46.10 45.25 44.66 46.99 46.01 44.98 43.14 43.96 42.99 43.73 46.17 45.60 44.27 43.27 42.15
53.00 53.47 54.10 53.49 53.40 53.92 53.84 53.29 52.81 53.15 54.09 53.83 54.81 55.38 56.86 58.46 59.80 60.16 59.99 59.17 57.94 57.03 56.02 54.11 53.40 51.74 50.56 48.55 47.03 46.47 41.95 41.78 42.62 43.41 43.48 43.58 43.69 42.65 42.92 44.69 44.25 43.05 42.58
52.72 53.83 54.27 53.76 53.26 53.84 53.25 52.77 52.90 52.57 51.94 53.80 54.15 55.16 56.27 59.31 59.79 60.25 60.20 59.47 58.42 57.73 56.56 55.85 54.84 52.72 51.77 50.42 49.59 48.40 47.12 46.32 41.53 42.20 45.51 45.79 46.10 44.93 43.20 44.53 44.68 42.60 42.08
53.18 53.43 53.07 53.59 53.08 53.70 53.00 53.36 53.32 52.97 53.51 54.53 55.47 55.96 56.06 57.38 59.94 60.28 60.00 59.14 58.31 57.94 57.16 55.89 54.17 53.86 53.31 52.56 50.71 48.28 47.28 45.77 45.54 43.55 41.43 44.51 45.58 45.77 45.46 44.90 43.81 42.75 42.17
53.61 54.01 52.83 52.72 54.06 53.10 53.37 54.11 54.49 54.12 54.54 54.20 54.27 55.35 56.21 56.89 58.42 59.82 60.22 59.70 59.09 58.33 57.08 56.23 56.13 54.23 52.65 52.50 51.58 50.19 47.92 45.81 43.76 44.97 43.90 42.99 40.96 44.67 45.20 44.94 44.18 42.81 41.29

GFSSE_sfc_wetblb_063.txt.gz
Wetbulb
68.24 70.37 71.20 71.25 71.15 71.15 71.41 71.17 71.16 71.06 71.45 71.63 71.51 71.26 71.01 70.94 70.67 70.38 70.22 69.66 69.51 69.74 68.57 68.44 67.89 67.69 67.86 68.42 67.89 67.64 67.76 67.59 67.54 68.12 68.13 67.88 68.06 67.71 68.01 67.82 67.74 66.11 68.05
67.86 69.91 70.13 69.96 69.59 68.75 69.83 71.16 71.19 71.28 71.54 71.63 71.08 70.74 70.49 70.15 69.97 69.54 69.08 69.10 69.56 69.39 68.60 68.39 68.05 67.79 67.53 67.08 67.01 67.10 66.80 67.19 67.06 66.68 66.84 66.22 66.55 66.31 66.25 67.01 67.83 66.24 67.33
67.77 69.24 67.87 68.37 68.32 68.29 67.85 69.46 71.36 71.69 71.82 71.25 70.64 70.37 70.06 69.82 69.46 68.98 68.81 69.00 69.49 69.50 68.58 68.34 68.22 68.37 67.74 67.08 67.51 66.84 65.56 65.32 65.55 65.76 64.91 61.35 63.04 65.42 64.99 65.21 65.59 66.51 66.46
65.69 68.93 66.80 67.90 66.80 67.01 67.45 68.63 70.61 71.60 71.37 70.69 70.47 70.13 69.65 69.56 69.20 68.69 68.37 68.57 69.15 69.10 68.03 67.59 67.26 67.16 67.30 67.20 66.29 65.30 64.63 64.03 63.50 62.54 59.25 59.65 61.51 65.13 65.55 65.21 65.11 65.06 64.75
62.58 64.88 67.48 67.37 66.80 68.26 68.72 68.91 69.91 70.86 70.50 70.24 69.95 69.95 69.66 69.51 68.95 68.52 67.98 68.25 68.91 68.73 66.88 65.83 65.66 66.39 67.29 66.21 65.54 64.57 63.54 62.93 62.11 59.36 56.66 57.71 59.34 62.87 64.42 63.92 63.54 62.95 63.32
62.18 64.24 66.16 67.45 67.69 69.05 68.15 68.95 70.36 70.34 69.64 69.44 69.34 69.60 69.63 69.29 68.98 68.03 67.33 67.89 68.69 67.80 65.43 63.99 65.28 66.12 65.72 64.99 64.53 63.79 62.72 61.95 59.68 55.38 56.17 60.02 58.59 63.09 63.16 62.41 62.46 61.64 61.09
62.88 65.78 65.33 65.16 67.68 68.31 69.19 69.29 69.00 69.03 69.28 69.11 69.07 69.02 69.10 69.08 68.50 67.59 67.23 67.40 67.32 66.60 64.61 64.35 65.70 66.03 64.96 64.10 63.66 62.82 62.25 60.70 55.80 54.62 55.22 56.26 58.66 62.66 62.88 62.31 61.46 61.02 60.41
66.25 66.69 66.65 66.24 67.47 67.81 67.98 66.37 66.69 67.78 68.12 68.45 68.73 68.64 68.84 68.29 67.62 67.03 66.70 66.21 65.81 65.24 64.51 64.67 65.85 65.21 64.34 63.67 62.96 62.40 61.62 60.70 56.55 55.03 55.51 56.62 61.11 62.10 62.22 61.72 60.48 59.91 60.05
65.58 66.12 66.60 66.80 67.30 66.77 66.20 65.73 65.64 66.22 67.44 67.62 68.18 67.89 67.80 67.12 66.59 66.46 65.92 65.37 64.63 64.10 63.68 63.49 63.82 64.51 64.16 63.20 62.48 61.60 60.72 59.77 54.56 55.20 56.98 56.40 61.42 61.46 61.68 60.90 60.19 59.84 59.42
64.33 65.80 65.76 65.44 65.70 64.73 64.84 64.27 63.79 64.58 66.34 66.88 67.64 67.33 66.64 66.34 66.26 65.67 64.99 64.44 63.86 63.56 63.28 63.03 62.91 63.53 63.83 62.75 62.04 61.36 60.80 59.06 54.42 54.73 55.48 58.23 60.90 61.18 61.14 60.48 59.89 59.24 58.93
64.10 64.80 65.30 64.81 63.97 63.11 62.42 62.16 63.00 64.35 65.72 66.23 66.59 66.31 65.02 64.58 63.41 62.10 63.59 63.67 63.41 63.04 63.04 61.92 61.11 62.63 62.75 62.32 61.91 60.71 58.31 54.70 54.62 54.84 55.90 61.48 60.58 60.60 60.44 59.71 59.13 58.76 58.26
61.77 62.56 63.95 63.26 62.39 61.93 61.38 61.26 60.59 61.27 62.15 63.63 64.44 64.76 63.99 62.29 61.31 62.19 62.68 63.24 62.83 62.34 62.06 61.82 60.45 58.95 56.17 55.10 56.97 56.91 53.25 54.29 54.99 55.27 56.93 61.48 60.51 60.20 59.60 58.88 58.85 58.32 57.60
60.22 60.96 61.70 62.15 62.69 61.39 61.34 60.69 59.74 60.62 61.99 63.40 63.79 63.19 62.69 61.85 61.67 60.20 60.02 59.20 58.22 59.26 55.79 54.77 54.22 52.50 50.75 50.20 49.11 49.83 51.48 52.99 53.87 55.87 59.20 61.29 60.57 60.09 59.46 58.40 58.21 58.14 57.22
59.32 59.82 60.54 61.36 61.66 61.73 62.24 61.58 62.97 63.18 63.42 63.56 62.88 62.84 61.86 60.26 59.49 58.55 58.07 57.57 56.54 55.52 54.35 53.71 53.82 52.05 50.09 48.87 48.34 48.10 48.03 49.00 51.45 54.14 58.79 60.54 61.15 60.11 59.64 58.67 57.71 58.00 57.24
57.63 58.73 59.31 60.11 60.48 60.88 61.12 61.10 60.99 61.24 61.42 61.83 62.10 62.42 61.28 58.93 58.13 57.72 57.05 55.66 54.58 54.50 53.23 53.68 52.63 51.73 50.30 49.07 47.29 46.84 45.51 45.61 48.46 51.69 54.40 60.37 60.55 60.38 59.76 59.41 58.44 57.61 56.93
57.29 57.95 58.83 59.37 59.61 60.16 60.31 59.97 59.49 60.19 59.92 60.65 60.71 60.38 59.79 58.70 57.60 56.92 55.93 54.67 53.63 53.41 53.58 53.93 52.62 51.17 50.46 48.85 46.80 46.52 46.30 45.20 45.73 47.32 50.93 55.66 59.68 60.53 59.89 58.95 58.53 57.66 56.47
56.27 57.69 57.55 58.13 58.96 58.87 58.67 58.98 58.72 60.12 60.56 59.99 59.93 58.88 57.90 57.95 57.28 56.54 55.62 54.65 54.05 54.74 53.29 54.28 52.72 51.41 49.01 48.42 47.35 46.77 46.83 47.77 46.64 46.93 48.08 50.37 54.46 59.20 59.88 60.45 59.00 58.18 57.07
55.71 56.44 57.50 58.52 58.02 57.71 57.79 57.72 58.33 58.33 59.16 59.96 59.63 58.75 57.67 57.24 57.04 56.57 55.76 54.97 55.04 55.09 53.61 54.07 53.00 51.63 49.79 48.13 46.06 45.23 46.28 47.71 48.10 46.89 47.99 49.29 51.44 53.95 58.21 60.02 59.93 58.76 57.90
55.72 56.22 56.89 56.88 56.96 56.40 56.70 56.68 57.08 57.06 57.01 58.08 58.81 58.67 58.03 58.14 58.09 57.00 56.66 56.10 55.71 55.45 55.11 54.81 53.29 52.25 50.30 48.37 46.69 45.33 45.08 45.66 46.71 48.73 47.30 48.70 50.41 52.24 53.54 58.19 58.92 57.98 57.77
56.17 56.41 56.10 56.20 56.30 56.15 55.94 56.06 56.35 56.69 56.48 56.94 56.84 58.22 58.98 58.84 59.16 57.75 57.58 57.58 57.43 56.40 55.43 54.37 53.15 52.09 50.92 49.28 49.56 47.09 44.90 44.75 44.09 44.63 46.62 48.47 49.28 51.11 50.94 52.29 53.01 52.94 56.12
55.40 55.47 55.01 55.09 54.52 54.39 54.03 54.60 54.81 54.90 55.61 56.14 56.49 57.49 58.62 58.53 59.72 58.59 57.93 57.45 57.54 56.88 56.13 54.44 52.28 51.74 51.08 49.76 46.33 44.67 44.37 44.10 43.93 42.98 43.70 46.78 47.41 48.64 49.14 49.54 49.23 47.95 50.28
54.50 54.93 54.23 53.47 53.13 53.54 54.26 54.54 53.75 55.65 55.40 55.66 56.69 57.00 57.35 58.17 58.39 58.91 58.24 57.93 57.90 56.66 55.05 53.33 52.28 51.03 51.22 48.24 46.28 43.74 41.80 43.59 44.87 44.67 42.48 43.83 44.92 45.06 47.65 47.89 47.30 46.24 43.59
53.45 53.85 53.97 52.88 53.19 53.74 53.60 54.73 52.43 53.27 53.98 53.47 53.79 55.27 55.85 56.67 58.12 58.85 58.66 58.07 57.52 56.86 55.51 53.68 52.77 52.24 50.81 49.56 47.08 47.54 42.32 41.13 41.93 43.29 43.19 42.30 44.17 42.83 44.69 46.40 44.99 44.42 43.05
52.35 53.63 53.42 53.46 53.01 53.78 53.84 51.61 51.38 51.43 51.85 53.20 54.15 53.01 53.88 56.53 57.21 58.26 58.71 58.48 57.66 57.18 55.23 54.70 54.86 53.17 52.43 49.98 49.19 48.51 47.72 46.24 43.44 42.70 43.71 45.53 43.81 44.65 44.06 44.65 44.50 44.94 44.42
51.93 52.92 52.95 53.21 52.90 53.34 53.60 52.72 52.39 51.37 52.38 52.34 51.55 51.52 52.47 54.24 56.88 57.79 57.75 57.32 57.54 57.26 57.06 55.83 54.23 53.12 53.45 52.33 51.53 47.78 47.68 46.90 46.00 44.39 43.76 44.24 46.94 46.55 45.92 44.48 44.88 44.55 43.95
51.85 52.43 52.72 52.91 52.52 52.92 53.05 52.18 51.95 51.85 51.87 51.72 50.55 51.56 53.03 53.67 54.60 56.42 57.77 57.66 57.95 57.71 57.00 56.66 56.34 55.03 54.54 54.07 51.70 50.75 48.52 46.67 45.73 43.41 43.71 44.61 44.59 45.10 45.60 46.04 44.84 44.28 44.22

GFSSE_sfc_wetblb_069.txt.gz
Wetbulb
68.82 71.36 71.16 71.52 72.03 72.13 72.41 71.84 71.90 71.68 71.90 72.12 72.00 71.77 71.80 72.06 71.96 71.77 71.85 71.46 71.46 71.58 70.65 70.57 70.49 70.49 69.53 69.64 69.28 68.98 69.31 68.99 69.08 69.29 69.60 68.97 69.10 69.16 68.64 69.06 68.59 67.96 68.49
70.26 71.09 70.92 71.46 71.68 71.93 72.32 71.96 71.63 71.74 71.95 72.05 71.88 71.80 71.60 71.70 71.54 71.52 71.21 71.07 70.77 71.17 69.95 69.56 69.51 69.04 68.49 68.16 68.18 68.01 67.99 67.72 67.72 67.91 68.72 68.69 68.59 68.47 68.13 67.35 68.10 67.12 67.28
70.39 71.28 71.11 70.65 71.45 71.64 71.99 72.04 71.91 72.09 72.00 71.98 71.80 71.61 71.49 71.43 71.03 70.40 70.16 70.11 70.10 69.99 69.28 69.21 68.90 68.23 67.33 66.95 67.75 67.02 66.75 66.43 66.05 66.25 66.84 64.96 67.14 67.26 66.97 66.00 66.10 65.72 65.58
70.08 70.42 70.60 70.29 70.74 71.31 71.59 71.68 71.72 71.98 71.91 71.60 71.48 71.45 71.11 70.83 70.42 70.15 69.79 69.16 69.15 69.06 68.09 67.97 67.80 67.57 67.23 66.57 66.30 65.85 65.58 64.82 64.67 65.41 64.87 65.15 65.08 66.15 65.67 64.78 64.37 64.38 64.21
68.68 69.60 68.98 68.72 68.93 70.78 70.90 71.12 71.31 71.25 70.90 70.90 70.90 71.04 70.63 70.45 70.30 69.93 69.10 68.76 68.96 69.06 68.38 67.58 67.40 66.79 66.21 66.23 65.64 65.28 64.67 63.93 64.15 64.40 65.14 64.77 64.44 64.29 64.04 63.29 63.50 62.75 62.60
66.46 66.61 68.06 68.10 68.58 69.83 70.99 70.84 70.73 70.31 69.86 69.87 69.89 70.14 70.32 70.47 70.10 69.32 68.52 68.72 69.20 68.33 68.83 67.69 66.87 65.81 65.49 65.08 64.81 64.36 63.61 63.31 63.57 63.77 63.77 63.53 63.19 62.87 63.11 63.05 61.85 61.85 61.28
65.41 67.03 67.57 66.99 67.94 69.02 69.95 70.50 70.22 69.68 69.38 69.42 69.36 69.26 69.63 69.71 69.20 68.60 68.11 68.51 68.71 69.08 68.98 66.89 65.69 64.91 64.52 64.31 63.97 63.39 62.63 62.47 62.27 62.61 62.58 62.81 62.75 62.83 62.93 62.03 61.71 61.31 60.83
64.20 65.61 67.29 66.87 67.89 68.25 68.79 69.02 68.58 68.81 68.87 68.73 68.63 68.67 69.11 68.60 68.27 68.23 67.49 66.99 67.70 68.02 68.08 66.43 64.95 64.10 63.88 63.69 62.86 62.66 62.09 61.67 61.95 62.02 62.39 62.53 63.21 62.50 62.55 61.66 61.05 60.55 60.34
64.71 64.92 66.55 67.74 67.77 67.61 67.34 66.84 67.11 68.02 68.21 68.12 67.83 67.84 67.83 67.45 67.36 67.08 66.18 66.41 67.52 67.48 66.75 65.75 64.80 64.24 63.64 63.13 62.70 61.86 61.27 61.92 61.75 61.66 61.61 61.97 62.03 62.27 61.99 61.40 60.65 60.13 59.57
65.53 66.43 65.64 67.08 66.28 67.83 68.32 66.32 66.11 66.51 66.59 66.59 67.40 66.79 66.47 66.71 66.74 65.83 65.44 66.66 67.27 66.67 65.70 64.86 64.24 63.63 63.26 62.86 62.12 61.51 60.97 61.20 61.34 61.06 61.81 62.05 62.20 62.31 61.96 61.19 60.11 59.59 59.37
63.99 64.82 66.35 65.92 64.27 64.31 65.32 65.59 64.57 65.04 65.02 65.23 65.80 66.03 65.43 67.09 65.49 63.56 63.68 66.04 66.52 65.42 64.51 64.26 63.74 63.21 62.47 62.27 61.94 61.10 60.75 60.74 61.06 61.12 61.68 62.40 62.15 61.99 61.73 60.53 59.64 59.28 58.93
62.64 64.00 64.29 64.19 62.61 63.15 63.66 61.90 61.67 61.78 61.18 62.77 64.16 65.97 65.88 64.48 63.62 62.24 63.49 64.56 65.19 64.75 64.03 63.81 63.10 62.51 61.30 60.87 61.14 59.86 60.33 60.93 60.69 60.94 61.49 62.14 61.87 61.61 61.12 60.06 59.43 59.03 58.51
61.55 62.31 62.92 63.30 63.26 62.54 62.62 62.58 62.76 62.19 61.37 62.50 63.32 64.11 64.30 62.93 62.59 62.27 62.70 62.91 64.38 64.18 63.47 62.67 62.01 60.48 60.70 60.14 59.49 59.62 60.44 60.66 60.69 60.74 61.17 61.66 61.58 61.31 60.93 59.81 59.13 58.59 57.83
61.66 61.46 62.66 62.84 62.08 62.42 62.27 61.87 62.97 61.91 61.87 62.30 64.00 64.76 62.90 61.42 60.26 60.64 59.91 60.04 60.74 62.96 63.19 61.89 60.26 59.60 59.56 59.30 59.31 59.56 59.96 59.98 60.58 60.77 60.94 60.78 61.47 60.91 60.72 60.18 59.02 58.46 57.77
60.41 60.77 61.59 61.75 61.22 60.54 60.07 60.98 61.95 61.26 61.10 62.19 62.98 63.84 61.40 59.06 57.95 59.63 59.28 57.93 58.47 60.08 60.11 59.50 59.12 58.18 57.86 58.26 59.01 59.08 59.21 59.76 60.53 60.45 60.64 60.43 60.58 60.43 60.60 60.58 59.63 58.33 57.73
59.97 60.28 60.26 61.03 60.72 59.71 59.03 59.91 60.59 61.29 62.57 62.83 62.53 62.79 61.48 59.51 60.01 59.01 58.46 57.84 57.80 58.38 58.06 57.69 57.26 56.61 56.60 57.06 56.87 57.90 58.38 59.25 60.13 60.53 60.71 60.59 60.17 60.75 60.19 60.00 59.81 59.35 57.99
59.15 59.67 60.36 60.87 61.27 59.47 59.06 59.65 60.48 61.61 61.61 61.54 61.81 61.42 60.23 60.57 60.58 60.18 58.43 57.63 58.29 57.90 57.12 56.19 55.78 55.19 54.07 53.99 53.98 55.04 56.41 58.15 59.07 59.91 60.39 60.64 60.26 59.53 60.21 60.52 59.32 58.75 58.06
58.57 59.37 60.75 60.43 60.53 60.14 59.95 60.58 60.93 62.16 62.07 62.34 62.10 60.52 59.73 60.61 60.46 59.74 58.13 58.05 58.72 58.83 57.42 55.92 54.58 53.42 53.36 53.23 52.86 52.45 52.51 53.53 55.53 58.17 59.41 60.02 60.21 59.65 59.45 60.26 60.38 59.47 58.19
57.86 59.19 59.29 59.59 58.82 59.77 60.43 60.90 60.70 61.23 61.36 61.13 60.62 59.86 59.96 59.88 60.38 59.65 58.67 58.19 58.97 58.85 58.00 57.07 56.18 55.13 53.18 52.52 52.12 52.26 52.80 53.36 53.98 52.73 54.65 57.83 59.59 60.06 59.81 59.57 59.69 59.42 59.39
57.33 58.37 58.45 58.82 58.15 58.69 58.87 58.91 59.49 60.67 61.18 60.87 60.07 59.36 58.99 59.77 59.48 59.54 59.10 58.66 58.97 58.90 58.32 57.85 56.97 56.83 55.51 53.96 51.35 51.20 52.57 52.86 53.93 53.94 52.86 52.86 54.75 58.15 59.72 59.97 60.20 59.33 58.52
56.13 57.18 57.84 57.07 57.63 57.68 57.76 58.80 56.91 56.59 57.52 59.19 59.17 59.20 58.11 58.85 59.16 58.73 58.54 58.94 59.16 58.32 58.19 58.64 58.15 56.68 56.11 55.65 53.11 53.31 53.04 52.71 52.79 52.81 53.72 54.00 53.60 53.80 55.70 58.01 59.81 59.95 59.42
54.84 56.59 56.94 56.99 56.72 57.35 57.98 57.97 58.05 58.13 57.96 57.88 58.97 58.85 58.44 58.88 59.37 59.11 58.15 58.92 58.66 58.83 58.77 57.76 57.65 56.80 57.26 55.50 54.96 53.51 52.74 53.52 52.99 52.65 52.51 51.98 53.39 53.82 54.20 55.56 55.08 58.30 57.43
54.46 54.46 56.16 57.13 56.50 56.92 57.24 56.31 56.82 55.93 56.09 56.43 56.87 57.27 58.13 58.52 59.40 59.12 58.99 59.91 59.66 59.96 59.00 58.59 58.01 58.02 56.96 55.66 55.51 56.36 51.27 51.85 53.07 53.28 52.34 51.98 51.42 50.23 50.20 51.86 53.12 53.79 54.88
54.37 55.22 56.97 56.99 56.82 57.97 57.23 55.26 56.06 55.19 53.58 55.44 56.20 57.13 57.48 58.60 59.32 60.04 60.04 59.91 59.44 60.21 59.94 59.04 59.80 59.05 58.59 56.71 54.79 54.22 54.55 54.34 52.96 52.31 52.95 51.87 48.26 49.92 49.83 50.71 51.74 52.37 52.58
54.46 54.78 57.03 57.22 57.07 57.19 57.31 57.14 56.32 55.87 56.15 55.58 54.94 55.55 56.74 57.09 58.00 58.70 59.84 59.35 59.87 59.30 59.51 60.54 59.24 58.50 58.43 58.01 56.49 55.22 54.54 53.39 53.44 52.86 52.06 51.17 50.28 50.73 49.07 49.08 51.89 52.20 50.33
54.39 54.08 56.26 55.82 55.98 57.02 56.32 56.66 56.66 56.93 57.06 54.28 54.30 55.36 54.88 55.74 57.13 57.89 58.45 60.40 60.88 60.64 60.80 60.73 60.38 59.92 59.23 58.69 58.56 57.44 55.99 54.25 52.05 49.35 48.73 50.23 50.57 51.62 49.61 49.91 49.58 50.61 47.81

GFSSE_sfc_wetblb_072.txt.gz
Wetbulb
70.86 73.16 71.67 72.27 73.12 72.81 72.62 71.85 71.79 71.95 72.28 72.50 72.13 71.91 71.96 72.11 72.23 71.72 71.72 71.83 71.86 72.02 71.25 71.05 70.35 70.28 70.28 70.16 69.57 69.76 69.77 69.66 69.42 70.01 70.11 69.78 69.66 69.54 69.03 69.33 68.87 68.28 68.96
71.82 72.69 71.13 71.64 72.47 73.03 72.53 72.07 71.89 72.05 72.22 72.27 71.91 71.94 71.86 71.93 72.08 71.99 72.00 71.61 71.41 71.45 70.95 70.37 70.08 69.86 69.55 69.01 68.80 69.17 68.97 69.01 68.96 69.15 69.52 69.18 68.86 68.79 68.35 68.12 68.23 67.67 67.36
70.93 72.32 72.16 71.25 72.10 72.52 72.61 72.30 72.10 72.39 72.37 72.06 72.06 72.06 71.95 72.11 72.21 71.77 71.33 70.90 70.65 70.96 70.54 69.72 69.47 69.08 68.50 67.55 68.09 67.70 67.56 67.42 67.59 68.45 68.69 66.80 67.09 67.43 67.02 66.29 66.44 66.20 66.10
71.16 71.32 71.38 70.64 70.97 72.03 72.07 72.03 72.01 72.37 72.20 71.98 71.91 72.00 72.06 71.88 71.45 71.23 70.59 69.93 70.06 70.62 69.70 69.16 68.58 68.35 67.33 66.90 67.12 66.69 66.38 66.55 66.32 66.80 67.63 66.58 65.89 65.95 65.81 65.29 65.34 65.05 64.72
70.58 71.38 70.76 68.98 69.11 69.80 71.13 71.65 71.68 71.67 71.28 71.52 71.40 71.95 71.69 71.23 71.09 70.40 69.56 69.28 69.67 70.11 68.90 68.11 67.47 67.33 66.28 66.41 66.18 65.99 65.70 65.57 65.73 66.65 65.87 65.88 65.58 64.62 64.90 63.93 63.78 63.88 63.98
69.01 71.26 68.11 67.62 67.71 69.16 69.43 70.90 71.55 70.96 70.68 70.68 70.73 71.07 71.30 71.06 70.57 69.66 68.71 68.55 69.11 68.90 68.09 67.38 67.38 66.39 65.96 65.73 65.50 65.14 64.85 65.00 65.83 65.61 64.74 64.78 63.91 63.96 63.66 63.03 62.63 62.44 62.27
67.90 68.87 67.18 67.59 67.96 69.14 69.75 70.47 70.84 70.42 70.02 70.11 70.09 70.20 70.33 70.32 69.97 69.14 68.59 68.50 68.40 68.60 67.96 66.58 66.45 65.41 65.20 65.23 64.67 64.07 64.06 64.20 64.58 64.32 63.95 63.76 63.86 63.37 63.31 62.48 61.85 61.61 61.40
67.60 68.62 70.17 68.11 68.34 68.89 68.86 70.23 69.66 69.59 69.49 69.55 69.45 69.68 69.86 69.35 68.76 68.45 68.32 68.25 68.34 67.86 67.16 66.26 65.41 64.85 64.51 64.23 63.40 63.10 62.88 63.44 63.79 63.84 63.78 63.57 63.19 62.97 62.72 62.01 61.45 60.88 60.67
65.43 66.79 69.72 69.70 68.93 67.15 67.38 67.54 67.57 68.68 68.69 68.66 68.69 68.63 68.51 67.98 67.93 68.14 68.04 67.84 67.98 67.13 66.40 65.31 64.97 64.59 64.08 63.45 62.98 62.41 62.30 63.73 63.99 63.75 62.91 62.90 62.72 62.57 62.34 61.66 61.00 60.50 60.34
66.07 65.68 66.89 68.94 68.93 69.08 69.70 66.17 66.65 67.14 67.71 67.66 67.94 67.52 67.05 67.14 66.60 66.44 66.99 67.71 67.59 66.75 65.74 65.04 64.62 64.18 63.37 63.07 62.16 61.94 61.76 62.40 63.67 63.28 63.19 62.93 62.70 62.46 61.89 61.42 60.74 60.15 60.03
65.10 66.56 66.43 68.11 68.36 68.41 68.09 67.12 66.38 66.84 66.79 66.51 66.77 66.42 65.76 67.28 66.86 65.65 66.03 66.85 66.68 65.72 64.94 64.49 64.08 63.55 62.83 62.51 62.11 61.59 61.57 62.69 63.05 63.02 62.64 62.59 62.67 62.48 61.61 60.67 60.15 59.90 59.78
63.99 66.16 67.44 67.52 67.84 65.99 65.66 65.14 64.59 64.89 65.52 64.83 64.80 64.85 65.82 67.15 66.48 64.31 66.39 65.81 65.33 64.46 63.99 64.01 63.45 62.64 61.99 62.10 61.93 61.29 62.38 62.72 62.73 62.87 62.47 62.52 62.34 62.15 61.14 60.37 59.90 59.57 59.03
64.53 65.79 66.66 64.47 64.81 63.83 62.54 62.32 61.96 62.00 61.82 64.19 64.18 64.42 65.64 66.22 64.80 64.90 66.82 66.21 64.95 63.36 62.64 62.72 62.14 62.08 62.08 61.81 61.40 61.89 62.32 62.42 62.41 62.58 62.23 62.11 62.06 61.73 61.00 60.25 59.69 59.06 58.52
62.52 63.97 64.83 65.33 63.82 63.51 62.63 61.81 61.56 60.43 60.64 61.79 62.79 63.79 65.24 64.14 63.89 64.49 65.10 64.83 64.20 63.60 62.85 62.16 61.99 62.56 62.09 61.37 61.61 61.76 62.24 62.36 62.34 62.30 61.95 61.55 62.00 61.28 60.98 60.30 59.56 58.79 58.07
62.31 63.09 63.34 64.59 64.17 62.94 62.90 62.90 61.43 60.50 59.64 61.57 62.54 63.36 64.92 63.13 62.94 62.46 63.94 65.03 64.41 64.72 64.02 62.89 62.14 61.64 60.73 60.67 61.43 61.52 61.53 62.27 62.44 62.10 61.93 60.89 61.43 61.37 61.10 60.56 59.72 58.89 58.08
61.05 61.69 62.23 62.17 62.56 61.84 62.42 61.74 61.83 60.31 59.77 61.55 62.29 62.54 64.55 63.13 62.42 60.78 61.46 63.06 64.35 65.02 64.44 62.80 61.40 60.29 59.91 60.20 60.31 60.87 61.02 61.64 62.20 62.47 61.83 61.48 60.34 60.93 61.29 60.82 60.12 59.23 58.43
60.08 61.25 61.77 61.45 60.52 60.39 60.59 60.93 61.13 61.56 61.53 61.49 61.54 62.27 63.21 62.57 61.35 61.61 60.73 60.71 61.85 62.98 62.92 61.93 61.05 60.11 59.37 59.46 59.31 59.70 60.20 60.97 61.26 61.68 62.32 61.97 61.01 59.60 60.18 61.32 60.67 59.65 58.66
60.24 60.39 60.92 61.47 60.38 60.31 60.53 60.48 60.98 61.81 62.14 61.94 61.69 62.55 62.16 61.74 61.59 60.74 60.14 60.38 61.39 61.47 60.36 59.89 59.15 57.92 58.04 57.55 57.25 57.62 58.65 59.64 60.45 61.21 61.61 61.91 61.82 61.26 59.84 60.31 60.62 60.55 59.12
61.37 61.77 60.47 61.69 60.16 60.69 60.60 60.57 61.16 61.64 61.58 61.96 61.85 60.97 61.02 61.61 62.17 61.08 60.49 61.05 61.90 59.96 59.74 59.67 58.97 58.48 56.83 56.61 56.30 56.31 56.34 56.52 58.03 59.01 60.11 60.97 61.63 61.40 61.61 59.84 60.07 59.71 59.78
60.79 60.42 60.07 60.40 60.00 59.95 60.13 60.93 60.59 61.04 61.99 61.46 60.92 60.12 59.84 60.18 60.81 60.69 60.24 61.28 61.63 60.32 60.02 59.68 59.10 59.09 58.31 56.85 55.70 55.68 56.65 57.22 57.62 57.14 57.16 58.48 60.20 60.98 61.26 61.36 60.79 59.62 58.66
59.62 59.70 59.97 58.18 58.90 59.44 59.58 58.79 57.95 59.07 59.71 60.68 60.79 60.36 60.42 60.20 60.70 60.85 60.38 60.83 61.51 60.50 61.13 61.13 60.19 59.18 58.20 58.13 56.49 56.30 56.29 57.64 57.55 57.65 57.59 56.95 57.25 57.77 59.96 60.63 60.78 60.99 59.75
58.85 58.98 59.09 58.52 58.37 59.44 59.01 59.31 59.55 58.98 60.59 61.08 60.29 59.86 59.47 61.04 60.70 60.52 59.52 60.08 60.98 60.69 61.81 61.14 60.17 58.41 59.49 59.53 57.57 58.29 55.09 56.71 57.69 57.49 58.12 57.52 58.15 57.83 56.73 57.54 57.61 59.82 60.60
57.75 58.80 58.92 58.56 59.29 59.93 60.68 61.07 59.45 58.18 58.37 58.17 58.91 58.91 58.74 59.50 60.79 59.71 58.71 58.47 59.35 60.77 60.19 60.73 60.36 60.02 58.80 59.28 59.83 58.77 55.53 54.46 58.43 59.57 58.25 57.78 57.30 56.33 56.81 54.45 55.83 56.72 57.82
59.20 58.33 59.70 58.44 59.66 59.28 59.56 58.32 59.38 58.65 55.80 58.55 57.82 58.32 58.69 58.72 59.20 59.08 58.28 58.51 59.28 60.70 60.77 61.42 60.89 61.16 61.57 59.37 59.01 59.32 60.66 59.70 55.64 54.32 57.36 57.47 57.36 55.74 52.88 55.08 56.23 55.96 56.84
60.18 58.85 58.48 58.79 60.33 58.84 58.23 58.94 58.26 58.74 56.43 57.61 58.34 57.47 57.61 58.23 59.42 59.26 59.28 59.37 59.10 59.73 61.35 62.03 61.20 61.51 61.86 60.84 60.40 59.65 58.28 58.10 58.12 56.42 54.56 56.32 56.32 55.75 53.30 51.69 52.72 53.63 54.67
60.36 59.55 59.37 59.74 59.72 59.22 59.32 58.39 57.57 57.22 57.14 56.43 55.97 57.34 56.65 57.41 57.83 58.99 59.09 60.36 61.24 60.73 61.89 61.99 61.70 62.07 61.90 61.60 61.05 61.17 59.88 58.29 57.31 56.78 55.81 56.29 55.40 55.45 54.37 52.07 51.07 52.99 53.61

GFSSE_sfc_wetblb_075.txt.gz
Wetbulb
71.22 73.76 71.95 72.40 72.81 73.31 72.50 72.12 72.04 72.20 72.41 72.71 72.25 72.10 72.49 72.32 72.02 71.83 71.82 71.65 71.56 71.75 71.10 71.04 71.06 70.76 70.89 70.65 70.03 70.56 70.41 70.36 69.87 70.25 70.18 70.20 70.07 69.75 69.39 69.89 69.22 67.88 68.78
72.27 73.66 71.40 72.03 72.56 73.29 72.70 72.23 72.10 72.10 72.59 72.51 72.14 72.02 72.02 71.99 71.88 71.88 71.77 71.73 71.90 72.02 71.17 70.67 70.50 70.40 70.11 69.76 69.94 69.91 69.98 69.56 69.32 69.43 69.88 69.57 69.25 69.13 68.61 68.75 68.39 67.17 67.47
71.76 72.78 72.34 71.27 71.90 72.52 72.14 72.29 72.44 72.75 72.71 72.37 72.07 72.19 72.23 71.98 71.99 72.01 71.64 71.36 71.51 71.28 70.59 70.25 70.25 69.52 69.27 68.72 68.96 69.21 69.53 69.38 69.25 69.32 69.26 67.07 67.16 67.77 67.67 67.13 67.10 66.63 66.53
71.44 71.85 72.25 70.74 71.48 71.41 71.27 71.91 71.99 72.54 72.50 71.93 72.14 72.29 72.26 72.25 71.85 71.59 71.03 70.56 70.62 70.89 70.29 70.09 69.54 68.52 67.83 67.80 67.87 67.67 67.57 68.04 68.08 68.01 66.91 65.66 65.75 66.92 66.80 66.12 66.00 65.69 65.40
71.74 71.84 71.50 70.13 68.37 66.92 65.10 65.37 70.83 71.64 71.52 71.42 71.74 72.27 72.39 72.22 71.69 71.09 70.38 69.97 70.40 70.60 69.89 69.41 68.47 67.68 66.80 66.76 66.57 66.86 66.80 66.51 67.11 67.36 66.03 65.89 65.09 64.96 65.35 65.28 64.75 64.59 64.73
71.70 71.64 68.89 66.55 66.58 66.23 64.39 62.52 68.87 70.86 70.83 70.96 71.15 71.97 71.98 71.74 71.15 70.60 69.71 69.87 70.28 70.06 68.89 68.42 67.44 66.50 66.25 66.10 65.78 65.77 65.54 65.78 65.56 65.28 64.42 65.11 64.67 64.64 64.45 63.78 63.31 63.12 63.02
71.26 72.04 70.40 66.41 66.91 67.06 65.68 66.29 64.84 69.91 70.37 70.69 70.99 70.85 70.91 70.75 70.11 69.20 68.62 69.14 68.98 68.86 68.54 67.10 66.16 65.49 65.68 65.44 65.29 65.11 65.06 64.50 64.82 63.76 63.48 63.50 63.32 63.59 63.64 63.12 62.50 62.17 61.96
70.46 71.73 68.67 67.46 66.93 66.41 68.34 63.34 64.33 68.69 69.64 70.24 70.21 70.25 70.17 69.46 68.83 68.64 68.23 68.21 68.04 67.74 67.68 66.91 65.77 65.13 64.98 64.83 64.30 63.71 62.82 63.62 64.09 63.20 63.22 62.78 63.66 63.14 63.24 62.39 61.79 61.39 61.32
69.42 70.20 71.26 70.68 68.20 67.59 67.44 65.10 64.30 67.89 68.86 69.35 69.47 69.34 68.96 68.33 67.77 68.24 68.19 68.27 67.46 66.86 66.72 66.06 65.56 65.04 64.72 63.83 63.33 62.92 62.01 63.55 63.80 63.24 62.36 62.43 62.79 62.90 62.67 61.91 61.53 61.18 60.99
68.47 68.20 69.33 70.34 70.08 69.27 69.42 66.71 66.52 67.15 67.60 68.14 68.48 68.24 67.49 67.40 67.68 67.79 67.63 67.41 66.95 66.44 65.91 65.09 64.93 64.56 63.70 63.26 62.43 62.28 61.51 62.48 63.39 62.55 62.79 62.17 62.79 62.83 62.24 61.70 61.21 60.80 60.66
67.54 66.80 66.63 69.54 69.85 70.34 69.58 68.59 67.11 66.82 67.04 66.91 67.51 66.91 65.60 66.38 67.09 67.42 66.67 66.33 66.19 65.57 65.31 64.85 64.32 63.73 62.94 62.57 61.94 61.97 62.05 63.34 63.26 62.60 62.31 62.92 62.69 62.50 61.87 61.04 60.67 60.38 60.24
65.58 67.23 68.41 68.54 68.36 68.41 66.48 65.97 65.85 67.22 68.02 66.39 66.34 65.68 64.50 64.61 67.20 66.64 66.41 65.39 65.00 64.61 64.30 64.02 63.64 62.72 61.84 60.82 61.37 61.20 62.55 63.15 62.96 62.18 61.79 62.89 62.41 62.12 61.54 60.76 60.31 60.10 59.68
65.23 66.17 67.45 68.09 68.20 67.39 66.97 67.09 66.52 65.81 65.46 65.59 63.63 63.51 63.94 64.33 65.63 65.95 66.13 65.41 64.09 62.99 61.70 62.01 61.82 61.04 61.46 60.60 61.51 62.96 62.75 63.06 62.75 61.89 61.80 62.52 62.19 61.89 61.44 60.69 59.99 59.43 58.84
65.20 65.17 66.84 66.29 65.49 65.25 64.49 63.34 64.59 65.30 63.85 62.83 62.03 62.89 63.72 62.91 64.85 66.31 64.96 64.82 62.43 61.81 61.34 60.88 60.94 62.97 62.35 61.52 62.29 62.40 62.61 62.43 62.40 61.78 61.47 61.98 62.25 61.52 61.16 60.58 59.92 58.99 58.27
64.04 63.99 65.98 66.01 65.00 64.65 63.20 61.27 61.23 61.45 62.25 62.98 62.68 62.57 63.02 62.55 63.72 64.31 65.03 64.45 62.87 63.54 62.36 61.21 62.21 61.79 61.84 61.61 61.82 62.16 62.35 62.60 62.58 61.71 61.23 61.41 61.61 61.67 60.90 60.63 59.97 59.25 58.40
63.22 63.87 64.46 65.58 64.41 63.86 63.10 62.41 60.91 60.33 60.39 61.11 61.65 62.40 62.62 62.42 62.57 64.63 64.63 64.35 64.23 64.53 63.12 62.39 61.96 61.31 60.68 61.06 61.33 61.91 62.10 62.64 62.56 62.17 61.37 61.00 60.96 61.57 61.33 60.51 60.21 59.69 58.70
62.39 62.58 63.39 63.25 64.96 63.04 63.18 62.56 61.22 59.78 60.01 61.22 60.94 61.91 61.72 62.38 63.49 64.20 64.91 64.77 64.42 65.01 65.07 63.63 61.82 60.94 60.13 60.35 60.60 61.10 61.61 62.16 62.50 62.31 61.17 60.71 60.35 60.06 61.10 61.32 60.78 59.62 59.11
62.93 61.85 62.75 63.13 62.07 62.41 62.20 61.17 60.51 59.77 59.41 60.64 61.80 61.57 61.61 62.24 62.68 63.55 63.24 64.05 64.91 64.61 63.71 61.70 60.49 59.48 59.42 59.42 59.48 59.96 60.47 61.10 61.63 62.04 61.80 61.97 60.52 59.91 59.46 60.64 61.21 60.92 59.44
63.26 62.47 62.11 61.36 60.68 60.52 60.98 60.98 61.12 60.08 60.55 60.86 61.49 60.92 61.08 61.82 62.72 62.67 62.17 62.71 64.07 62.71 62.95 61.51 60.48 59.43 58.28 58.32 58.48 58.86 59.35 59.49 60.54 60.59 61.07 61.64 62.68 61.56 60.63 59.32 59.86 60.19 60.32
63.27 63.01 61.86 61.20 61.29 60.11 60.17 61.05 60.80 60.75 60.59 61.11 60.66 60.70 61.53 62.38 62.67 62.56 61.76 61.72 61.22 60.99 60.78 60.45 61.04 60.16 59.19 58.23 56.75 56.80 57.35 57.99 58.71 59.37 59.71 60.39 61.04 61.33 61.79 61.22 59.69 59.14 59.05
62.48 61.17 62.31 60.26 60.79 60.20 59.85 59.14 58.82 58.52 59.31 60.78 60.48 59.93 60.88 61.52 61.91 61.78 61.75 62.77 62.72 61.09 60.90 62.28 60.59 60.30 58.81 59.52 56.86 56.42 56.95 58.99 59.06 57.88 58.65 58.58 59.64 60.54 61.53 61.03 61.06 60.11 59.30
61.75 60.47 60.92 60.26 61.05 60.28 59.37 59.89 59.92 59.61 59.68 60.53 60.55 59.53 59.38 60.35 60.74 61.03 61.32 61.43 62.30 60.85 61.95 62.19 62.03 59.75 59.92 60.38 56.50 56.69 53.82 55.39 57.90 59.19 59.56 58.55 59.45 58.72 58.90 60.20 61.21 61.49 61.27
61.10 60.76 61.21 60.33 59.65 60.53 61.09 60.96 60.31 60.34 60.04 59.34 59.38 59.89 59.30 59.82 60.21 60.95 61.47 61.90 62.17 61.94 61.16 61.61 62.27 61.16 59.07 59.61 60.42 59.24 55.07 53.72 58.08 59.40 59.31 59.35 59.60 59.27 59.49 59.08 59.07 59.66 60.27
61.40 61.96 61.08 60.22 60.33 60.09 61.05 59.51 58.44 57.14 56.48 57.74 58.55 58.64 58.51 59.09 60.38 60.35 60.93 61.11 61.73 62.15 60.46 62.83 62.81 62.27 60.82 57.70 58.67 59.73 61.11 60.72 54.77 54.36 59.01 59.40 60.41 58.79 59.44 59.12 57.44 56.26 58.10
62.29 61.24 62.09 59.70 60.67 60.16 60.68 60.30 58.24 57.68 57.90 59.36 58.72 57.89 57.53 58.02 59.34 60.06 60.34 59.54 58.67 59.87 59.94 61.46 61.51 61.57 61.07 59.19 58.39 60.67 59.41 59.20 60.30 56.44 53.44 56.72 58.52 59.22 59.19 58.54 56.79 55.59 55.39
62.81 61.54 61.49 60.05 59.86 60.63 60.22 61.53 60.29 61.00 59.13 58.09 57.79 57.23 56.66 57.13 57.74 58.76 58.90 59.05 58.38 58.94 58.06 60.42 62.13 61.40 61.44 61.08 58.43 60.94 58.72 57.85 57.13 57.41 56.47 57.17 57.33 58.22 58.24 56.02 54.86 54.97 52.74

GFSSE_sfc_wetblb_078.txt.gz
Wetbulb
71.72 71.53 72.51 72.99 73.36 72.93 72.27 72.20 72.07 72.27 72.52 72.41 72.59 72.68 72.54 72.28 71.72 71.58 71.71 71.67 71.84 71.99 71.10 71.19 71.97 71.52 71.28 71.01 71.09 71.13 70.76 70.32 70.18 70.38 70.51 70.43 70.23 70.19 69.73 69.73 69.04 67.64 69.81
72.80 71.92 71.90 72.60 72.81 73.34 72.60 72.20 72.14 72.42 72.58 72.39 72.54 72.38 72.18 72.05 71.77 71.75 71.66 71.59 71.57 72.11 71.71 71.40 71.15 70.81 70.69 70.26 70.57 70.35 70.03 69.66 69.48 69.85 70.04 69.80 69.58 69.32 68.83 68.71 68.42 66.93 67.99
72.56 71.19 71.11 71.52 72.14 72.95 72.80 72.51 72.48 72.65 72.67 72.29 72.50 72.31 72.12 72.01 71.99 71.90 71.54 71.47 71.77 71.84 71.15 70.83 70.51 70.17 69.90 70.14 69.93 69.98 69.62 69.35 69.14 68.80 68.90 65.78 66.31 68.32 68.07 67.74 67.57 67.05 67.02
71.12 72.53 71.18 70.58 71.22 72.05 71.79 68.54 70.80 71.75 72.31 72.16 72.30 72.39 71.93 72.11 71.97 71.77 71.40 70.72 70.83 71.35 70.44 70.49 70.24 69.27 69.08 69.30 69.27 69.21 69.43 69.33 67.71 67.10 65.06 65.18 65.47 67.35 67.42 66.87 66.56 66.11 65.80
71.14 72.21 70.86 70.00 67.93 68.97 65.47 64.98 65.22 67.17 71.69 71.68 71.81 72.30 72.09 72.11 72.00 71.55 70.72 70.27 70.61 71.10 70.46 70.00 68.93 68.22 67.94 67.55 67.61 68.21 68.51 67.96 67.42 65.18 63.45 63.77 64.18 65.75 66.21 65.68 64.82 64.67 64.61
70.82 72.04 68.29 67.47 67.78 67.71 65.88 65.91 65.68 65.33 65.81 70.63 71.01 71.93 72.09 72.07 71.60 71.14 70.08 69.59 70.24 70.73 69.73 68.78 67.62 67.04 66.84 66.57 66.57 66.64 65.99 65.68 65.37 63.08 62.72 63.63 63.05 65.44 64.80 64.37 63.89 63.77 63.84
70.68 72.22 68.27 66.80 67.26 66.61 66.54 66.28 65.78 65.08 63.65 68.34 70.62 71.48 71.22 71.25 70.99 70.29 69.47 69.08 69.62 69.66 68.71 67.45 66.45 66.41 66.18 65.80 65.50 64.69 64.08 64.36 62.88 60.84 60.89 60.98 61.69 64.13 64.25 63.66 62.97 62.82 62.61
70.72 71.61 71.09 66.98 66.53 67.62 66.57 66.83 64.97 64.05 63.93 66.04 70.02 70.53 70.86 70.20 69.62 69.28 68.93 68.75 68.48 68.21 67.38 66.62 65.96 65.87 65.70 65.22 64.05 62.96 62.62 63.22 62.08 60.35 60.34 60.27 63.46 63.61 63.37 62.63 62.18 61.85 61.80
70.63 70.11 70.42 68.68 67.71 67.18 66.57 65.79 64.40 63.89 63.33 66.08 69.47 69.71 69.30 68.41 68.28 68.55 68.44 68.31 67.89 67.11 66.58 65.99 65.62 65.24 65.07 64.22 62.76 62.32 62.30 63.40 60.46 59.99 60.72 59.94 63.30 63.06 62.85 62.33 61.85 61.57 61.38
68.09 68.98 69.94 70.71 69.10 67.80 67.79 65.38 64.55 64.69 63.61 65.84 68.69 68.57 67.43 67.42 67.70 67.73 67.21 67.24 67.17 66.82 66.26 65.37 65.08 64.85 64.12 63.12 62.20 62.20 62.00 63.64 59.83 59.50 59.57 60.60 62.97 62.90 62.71 62.26 61.78 61.47 61.05
67.03 67.68 68.28 69.14 69.19 68.76 68.56 67.53 65.40 66.00 62.49 65.80 67.79 67.07 65.60 66.50 66.88 66.88 66.19 66.07 66.19 65.81 65.55 65.01 64.27 63.52 62.79 61.85 61.99 61.85 62.15 59.86 60.22 59.54 59.42 62.84 62.85 62.75 62.33 61.62 60.94 60.64 60.53
65.29 66.57 67.25 67.49 67.98 67.21 67.19 67.04 66.00 65.35 65.52 65.08 66.01 65.88 65.90 65.62 65.63 65.56 65.39 65.15 65.13 64.98 64.54 64.18 63.35 62.45 61.22 57.97 58.53 60.39 58.42 60.82 60.09 59.22 59.57 62.82 62.50 62.47 61.98 61.15 60.57 60.37 60.07
65.63 65.92 67.55 67.81 67.84 66.73 65.87 66.36 65.00 65.75 65.50 65.43 65.24 64.13 63.86 63.85 63.88 64.44 63.87 63.41 63.06 63.32 61.90 61.62 60.39 58.58 57.24 57.43 57.99 58.52 59.52 60.53 59.55 59.24 60.73 62.30 62.19 62.19 61.72 61.20 60.66 60.09 59.34
64.63 65.46 66.19 65.99 65.41 64.91 64.49 65.12 66.00 65.48 65.09 63.54 63.25 62.92 62.03 62.03 63.14 63.73 62.58 61.34 59.80 59.92 59.24 58.72 57.94 58.33 57.20 57.77 59.17 59.61 58.95 60.12 59.04 59.11 60.23 61.76 62.17 61.72 61.48 61.06 60.29 59.70 58.84
64.27 64.60 65.25 65.36 64.68 63.65 62.37 61.91 64.45 63.63 64.09 62.83 62.50 62.59 62.15 62.26 62.11 62.69 62.42 59.22 58.64 58.69 58.22 57.23 57.81 58.90 58.73 57.82 59.33 59.25 59.45 59.89 58.82 58.87 58.72 61.36 61.54 61.68 61.25 61.11 60.33 59.61 59.21
63.70 64.12 65.55 65.11 64.62 63.22 61.93 60.88 60.08 61.48 62.46 61.49 61.75 62.59 62.32 62.46 62.84 62.38 61.97 58.61 59.24 58.99 58.12 57.74 58.97 58.55 58.02 58.41 58.62 59.28 59.77 59.67 58.90 58.38 58.58 59.07 60.71 61.34 61.58 60.69 60.52 59.85 59.08
62.92 64.12 64.46 64.62 64.45 63.36 62.25 61.10 60.76 60.48 60.57 61.28 61.15 62.13 62.19 62.02 62.29 62.07 61.59 60.08 60.55 59.89 58.68 59.19 59.04 58.11 57.26 58.32 57.98 58.51 58.99 60.27 59.19 58.62 58.03 58.20 58.73 60.09 60.56 61.27 60.86 59.77 59.15
62.53 62.22 63.71 63.65 63.62 62.76 62.62 61.50 60.36 60.35 60.46 60.25 61.06 61.39 61.55 61.50 61.77 61.96 61.49 61.04 61.74 60.38 60.15 59.48 57.78 56.48 56.37 56.38 56.17 56.61 57.41 58.14 58.90 58.30 58.30 58.07 57.86 58.67 59.80 60.71 60.95 60.76 59.80
62.77 61.83 62.50 62.24 61.54 62.17 62.25 60.54 60.11 59.53 60.28 60.09 60.23 59.22 59.08 60.87 61.16 61.06 61.12 61.95 62.56 61.29 60.60 58.79 58.00 56.34 55.86 55.39 56.19 56.07 56.18 56.44 57.61 59.28 58.70 57.37 57.50 57.78 58.13 59.71 60.15 60.06 60.14
62.61 62.28 62.09 61.31 60.47 60.54 60.91 60.25 59.20 58.88 59.90 60.70 60.32 59.86 60.24 60.58 60.97 60.45 60.58 61.34 60.40 59.93 59.07 57.84 57.35 57.12 55.30 55.57 56.19 55.60 54.52 55.61 56.44 56.37 57.19 58.90 58.16 57.93 57.47 57.61 58.23 58.27 59.03
62.40 61.80 61.31 59.92 59.57 59.95 59.53 58.85 58.09 57.81 58.85 59.78 60.23 60.21 60.31 59.98 60.14 59.97 58.82 59.31 59.04 58.16 56.85 57.53 57.78 56.17 55.30 55.88 53.61 53.04 52.54 54.01 53.99 53.88 56.38 56.91 57.11 58.34 57.92 58.33 57.10 57.46 57.69
61.08 61.40 60.62 60.60 59.87 59.57 59.80 59.60 59.41 59.04 59.18 59.28 59.99 58.73 59.49 59.55 59.82 59.46 58.84 58.37 58.01 57.19 57.17 58.37 57.53 56.16 55.95 56.01 52.90 52.26 50.22 51.99 54.04 55.30 54.21 54.86 54.49 56.33 57.51 57.92 57.42 56.99 57.10
60.40 60.09 60.38 60.43 60.28 59.71 60.06 60.05 59.51 59.06 58.97 58.37 58.59 57.68 57.88 58.68 59.68 59.38 59.81 59.22 58.76 58.13 58.74 58.38 58.44 57.29 55.33 55.58 56.68 54.97 51.66 50.24 52.11 54.03 54.59 54.77 53.77 54.56 54.13 55.90 56.94 57.97 57.86
60.25 60.43 60.63 60.19 59.91 60.18 60.01 59.21 58.33 57.04 56.07 57.46 57.82 58.54 57.79 58.57 58.67 58.22 59.42 59.52 59.40 59.44 58.65 58.89 59.97 58.69 58.40 55.62 55.97 57.35 57.35 56.61 51.65 51.03 55.01 55.32 55.40 55.47 54.93 55.03 54.60 55.15 55.65
61.38 60.45 60.27 60.16 59.30 59.92 59.89 59.54 58.89 57.60 57.67 58.21 58.60 58.69 57.98 57.77 58.49 58.83 58.48 59.76 59.27 59.50 59.63 59.65 59.29 59.62 58.59 57.21 55.85 56.45 56.05 56.01 55.63 52.98 50.81 53.89 55.49 56.31 55.02 54.87 54.68 53.26 53.52
61.57 60.59 60.06 59.39 59.91 59.40 60.01 59.82 59.19 58.64 57.78 57.19 57.53 56.94 56.82 57.07 57.42 58.17 58.99 59.07 59.35 59.08 59.15 60.27 60.32 59.38 58.05 57.48 56.76 56.32 55.22 54.36 53.95 53.48 51.82 52.86 52.75 54.59 55.80 54.64 53.83 52.27 51.90

GFSSE_sfc_wetblb_081.txt.gz
Wetbulb
69.47 71.44 72.46 72.78 72.63 72.51 72.25 72.10 72.13 72.36 72.32 73.11 73.09 72.65 72.24 72.00 71.93 71.88 71.96 72.14 72.00 72.42 72.32 72.15 72.15 72.40 71.76 71.61 71.86 71.38 71.09 70.75 70.36 70.79 70.92 70.66 70.12 70.04 69.59 69.38 69.42 67.93 70.24
70.20 71.47 71.85 72.83 72.74 72.47 72.37 72.17 72.06 72.48 72.35 72.91 72.81 72.34 71.69 71.89 71.78 71.83 71.72 71.58 71.66 72.24 71.74 71.73 71.38 70.86 71.16 70.81 70.78 70.43 70.30 69.92 69.65 69.96 70.15 69.76 69.50 69.40 69.08 68.57 68.99 68.23 69.40
69.79 70.74 71.77 72.09 72.69 72.45 72.56 72.46 72.50 72.58 72.36 72.72 72.56 72.32 71.81 71.85 71.88 71.61 71.30 71.43 71.88 72.25 71.70 71.03 70.46 70.25 70.69 70.70 70.16 70.13 69.52 68.90 68.46 68.53 68.41 66.27 66.75 68.59 68.11 67.92 68.16 67.73 68.03
70.15 69.65 70.12 71.15 72.26 72.52 72.33 72.10 72.26 72.75 72.58 72.64 72.41 72.15 71.92 72.07 71.85 71.51 71.71 71.36 71.65 71.90 71.20 70.40 70.33 70.25 70.47 69.89 69.50 69.45 68.73 68.12 67.43 67.12 65.26 65.45 66.02 67.92 67.65 67.02 66.87 67.02 66.81
69.54 69.98 69.93 70.22 71.19 69.54 68.67 68.69 70.43 70.89 69.84 71.58 72.07 72.33 72.05 72.17 72.15 71.99 70.97 70.71 70.96 71.41 70.91 70.47 69.81 69.72 69.45 68.72 68.81 68.71 67.50 66.90 65.93 64.69 63.86 64.37 64.76 66.32 66.68 65.65 65.05 64.79 64.85
68.50 69.35 67.94 68.83 68.65 68.35 67.72 68.33 67.85 67.13 65.91 64.84 67.32 71.77 72.15 72.12 72.07 71.17 70.27 70.30 70.54 70.84 70.48 69.18 69.14 68.83 68.14 67.86 67.86 67.20 66.10 65.91 64.02 61.06 62.62 64.35 63.71 65.62 65.24 64.28 64.71 64.07 63.88
67.72 67.98 67.04 67.51 68.05 68.55 67.68 68.22 67.41 66.78 66.64 65.08 64.15 68.05 70.86 71.60 70.92 70.51 69.89 69.61 70.08 70.14 69.38 68.55 68.45 67.61 67.29 66.36 65.84 64.87 64.00 64.39 61.00 59.82 59.44 62.03 62.50 64.59 64.23 63.81 63.17 63.12 62.67
67.38 66.93 66.70 67.48 67.72 67.38 67.63 67.38 66.58 66.88 65.67 65.89 64.89 63.61 69.71 70.34 69.96 69.77 69.23 68.98 69.14 68.59 67.92 67.55 67.03 66.78 66.45 65.66 64.52 63.14 62.89 62.81 61.05 59.37 59.03 60.45 63.45 63.59 63.86 63.09 62.43 62.26 62.21
66.52 66.78 65.55 66.06 67.00 67.06 66.30 66.27 65.46 65.12 65.67 63.52 62.75 64.86 68.29 69.13 68.80 68.93 68.69 68.72 68.25 67.56 67.11 66.69 66.34 66.01 65.54 64.46 63.39 62.01 62.85 62.45 59.31 59.60 60.01 60.04 63.05 63.26 63.26 62.64 62.26 62.07 62.07
65.81 65.11 66.24 66.67 65.53 64.88 64.51 65.13 64.40 64.16 64.18 63.35 62.91 63.47 67.98 67.83 68.07 67.98 67.95 67.60 67.18 66.98 66.39 66.18 65.46 65.11 64.37 63.19 62.08 62.49 62.30 61.94 58.84 58.53 58.61 60.25 62.93 63.12 63.00 62.50 62.10 61.84 61.69
64.53 64.55 64.81 66.84 66.69 64.91 64.79 64.25 65.02 64.53 64.24 64.25 64.42 64.59 66.18 67.00 66.77 66.60 66.40 66.21 66.27 65.94 65.52 65.28 64.84 63.86 62.86 62.34 62.17 61.84 60.89 58.86 58.84 58.99 58.95 62.76 62.91 62.98 62.77 62.05 61.58 61.46 61.24
62.02 63.24 64.21 64.65 64.52 65.39 66.76 64.12 63.71 63.98 62.78 62.66 63.00 66.05 66.11 65.71 65.09 65.29 65.60 65.44 65.51 65.11 64.89 64.22 63.56 62.72 60.20 57.19 57.61 59.46 58.81 58.61 58.53 58.67 59.39 62.61 62.72 62.79 62.34 61.21 61.09 60.99 60.53
62.01 64.04 64.31 64.58 64.32 64.51 64.61 63.99 63.99 63.89 62.80 62.19 64.02 64.96 65.07 64.90 64.61 64.34 64.11 63.76 63.45 63.31 61.72 61.04 60.12 57.91 55.96 56.13 56.28 56.54 58.21 58.35 58.44 59.07 60.44 60.98 62.18 62.46 62.13 61.44 60.92 60.61 60.22
61.38 62.78 64.41 64.66 63.65 64.09 63.50 62.91 62.73 63.78 63.78 63.41 64.33 63.97 63.31 63.17 63.23 62.87 62.24 61.92 61.58 59.11 58.07 57.27 56.38 55.96 55.06 56.57 57.13 57.75 58.10 57.72 58.02 58.37 60.12 61.65 62.17 62.20 62.06 61.66 60.95 60.33 59.82
61.24 61.72 62.80 63.76 62.92 61.45 60.53 59.88 61.84 63.10 64.07 63.77 63.71 63.63 62.72 62.80 62.67 62.02 61.44 60.10 59.21 59.18 57.37 55.84 55.89 55.50 55.22 55.93 57.16 57.29 57.58 57.66 57.79 58.06 58.46 61.01 61.61 62.04 61.78 61.68 61.00 60.15 59.55
61.45 61.22 62.07 63.03 61.88 60.21 60.36 60.15 61.78 62.47 63.32 63.17 62.60 61.96 62.17 62.99 63.13 61.48 59.10 57.83 57.44 57.66 56.25 56.27 56.77 55.49 55.08 55.85 56.43 57.26 57.67 57.47 57.73 57.53 57.74 58.74 60.52 61.43 61.60 61.16 60.81 60.45 59.57
61.10 61.85 61.34 61.80 62.05 59.77 58.86 59.84 60.51 61.66 62.21 62.02 61.98 61.73 62.06 62.69 62.53 60.67 57.50 56.51 56.43 56.35 55.24 56.64 57.00 56.64 55.68 56.74 56.09 57.02 57.77 57.23 57.40 57.52 57.09 56.89 58.35 59.88 60.73 61.28 60.69 60.08 59.89
61.17 60.95 61.91 63.35 61.73 61.01 58.84 59.24 60.18 61.02 61.20 61.68 61.52 61.54 61.87 62.10 62.33 61.08 57.34 58.04 57.14 57.38 55.60 57.33 57.20 55.26 54.97 55.18 54.52 55.30 56.38 57.04 56.72 56.96 57.22 56.90 56.62 57.38 59.26 60.67 61.03 61.05 60.01
60.44 60.57 60.76 61.32 61.73 61.39 60.20 58.76 59.64 60.07 60.39 60.74 61.38 61.19 61.19 61.79 61.83 61.51 58.81 59.28 58.27 58.27 56.68 57.96 56.49 55.41 54.43 53.90 54.32 53.97 54.64 56.54 56.39 57.13 56.56 56.43 55.96 56.29 56.84 59.51 60.17 60.06 60.10
59.45 59.81 60.20 60.23 61.52 61.18 60.05 59.31 58.96 59.68 59.88 60.51 60.36 60.50 60.88 61.19 60.91 61.30 60.47 60.53 59.95 58.39 57.50 56.45 55.90 54.76 54.61 55.26 56.62 55.00 53.75 54.88 56.31 55.86 56.07 56.83 56.59 56.76 57.18 57.44 58.22 57.92 58.99
59.17 59.21 58.99 59.51 60.13 60.36 59.14 58.08 57.36 57.86 58.74 59.07 59.28 58.95 59.40 60.04 60.22 60.34 59.84 59.96 59.84 58.79 56.80 56.23 54.63 54.39 53.07 53.93 52.14 51.06 51.34 52.18 53.09 53.74 55.26 55.80 55.86 56.31 56.61 57.23 57.29 57.45 57.52
58.45 58.56 57.67 58.60 59.72 59.73 59.71 58.91 58.39 58.21 58.95 58.96 58.93 57.60 59.31 58.99 58.94 58.61 58.96 59.01 58.15 57.21 55.98 54.93 55.05 54.53 53.44 54.08 51.29 50.45 47.30 50.02 51.56 52.01 51.50 54.39 55.45 56.59 56.28 56.33 56.53 57.03 56.99
58.03 58.13 57.83 58.12 58.96 59.30 59.88 59.60 58.95 58.83 58.75 58.45 58.26 57.68 58.34 58.42 58.61 58.80 58.23 58.48 57.17 57.48 55.67 55.70 55.76 54.71 53.34 53.92 53.73 52.56 49.85 47.84 49.48 51.33 51.74 51.01 51.90 52.90 55.38 56.45 56.37 56.20 56.43
57.40 58.51 58.45 58.71 58.39 58.91 59.80 58.80 58.02 57.01 56.13 57.82 57.59 57.06 57.71 58.12 58.28 58.40 57.60 57.56 56.64 56.57 56.01 56.68 56.96 55.99 55.33 53.03 53.96 56.23 55.26 54.32 49.81 49.25 52.52 52.43 52.50 52.17 52.21 52.35 56.16 56.28 56.22
57.38 57.15 57.65 58.77 59.16 59.47 59.47 59.19 57.96 57.28 57.52 57.78 57.92 56.63 56.64 56.98 57.71 56.48 57.50 57.36 56.61 57.18 57.20 57.08 57.10 57.25 56.89 54.68 53.01 53.58 53.50 53.66 53.77 51.23 49.51 52.52 54.45 54.25 53.67 53.53 53.90 53.98 55.82
57.32 56.78 57.43 57.46 58.42 59.00 59.23 59.25 58.19 57.44 57.14 56.69 56.75 56.60 56.13 56.42 55.14 56.16 57.42 58.17 58.01 57.54 57.50 57.49 58.02 58.08 57.92 56.62 55.51 55.12 53.79 53.08 52.49 51.60 49.87 50.13 51.51 54.04 55.39 54.54 53.59 53.63 51.99

GFSSE_sfc_wetblb_084.txt.gz
Wetbulb
69.14 71.56 71.95 72.60 72.46 72.42 72.27 72.06 72.09 72.30 72.82 72.95 72.80 72.75 72.86 72.72 72.66 72.64 72.52 72.47 72.67 73.20 72.55 72.53 72.97 73.00 73.12 72.04 72.34 71.96 71.46 71.07 70.81 70.82 70.92 70.68 70.39 70.09 69.74 69.63 69.65 67.80 70.10
69.85 71.64 71.28 72.20 72.45 72.54 72.41 72.24 72.17 72.50 73.00 72.84 72.53 72.19 72.23 72.34 72.30 72.23 72.24 72.35 72.72 72.93 72.18 72.16 72.21 71.99 71.47 71.42 71.04 70.67 70.65 70.08 69.86 69.75 70.28 69.97 69.80 69.65 69.43 69.26 69.19 68.31 69.68
69.71 71.18 71.77 71.65 72.25 72.51 72.58 72.50 72.42 72.77 72.94 72.82 72.35 72.14 71.97 72.03 72.18 71.90 71.69 71.87 72.30 72.70 72.06 71.63 71.35 71.25 70.75 70.89 70.35 70.08 69.66 69.20 68.82 68.82 69.05 66.60 66.80 69.06 68.89 69.04 68.98 68.76 68.14
69.61 70.48 71.62 71.59 71.79 72.41 72.22 72.24 72.35 72.63 72.72 72.51 72.23 72.02 72.07 72.07 71.88 71.66 71.35 71.18 71.66 72.06 71.61 70.98 71.00 70.58 70.90 69.91 69.40 68.93 68.72 68.18 67.73 67.36 65.53 65.70 66.23 67.92 67.90 67.73 67.63 67.65 67.10
68.55 69.26 70.32 71.19 71.29 72.11 71.92 72.05 71.97 72.03 72.04 72.22 71.70 70.93 71.22 71.91 71.86 71.78 71.31 71.02 71.36 71.12 70.06 70.93 70.65 70.60 69.64 68.67 68.22 67.88 67.43 66.77 66.20 65.00 64.32 64.97 65.24 66.64 67.07 66.61 66.01 65.70 65.18
68.42 68.65 69.12 69.84 70.64 70.98 70.31 71.68 70.66 68.80 67.77 66.53 65.46 64.92 67.88 69.69 72.01 71.76 70.98 70.90 71.00 71.00 71.05 70.93 70.05 69.63 68.87 67.54 67.10 66.85 65.75 65.14 64.36 63.03 64.09 64.70 63.98 66.02 65.34 64.72 64.53 64.46 64.53
67.17 67.31 68.18 68.64 68.85 69.58 69.65 69.56 68.74 68.34 67.49 66.60 64.68 64.21 67.03 68.33 70.06 70.90 70.39 70.38 70.27 70.11 70.02 70.00 69.57 68.85 67.96 67.18 66.03 65.66 64.53 63.80 60.82 60.59 62.25 62.92 63.34 65.12 65.05 64.36 63.56 63.51 63.12
66.31 66.18 67.33 68.47 68.01 68.14 69.05 68.59 68.37 68.03 67.15 66.14 65.69 64.95 67.72 67.42 68.88 69.50 69.84 69.07 69.29 68.99 68.95 68.93 68.24 67.56 66.51 65.46 64.67 64.38 63.28 62.77 60.27 59.19 61.02 61.68 64.12 64.66 64.31 63.58 62.63 62.41 62.46
66.12 65.19 65.28 66.16 67.28 67.48 66.88 66.68 66.12 66.48 66.78 65.99 66.26 66.01 67.16 66.93 67.56 68.24 68.39 68.81 68.59 68.31 68.20 67.85 67.08 66.07 65.55 64.59 64.35 63.21 62.46 62.18 58.69 58.69 59.73 60.82 63.53 63.40 63.46 63.11 62.82 62.44 62.36
64.48 64.86 64.18 65.69 66.21 64.86 64.48 65.90 65.59 66.26 65.19 64.66 65.92 65.66 66.86 66.73 66.97 67.73 67.73 67.96 67.85 67.60 67.38 67.08 66.03 65.39 64.63 63.43 63.31 62.61 62.11 62.04 58.07 56.90 58.59 60.39 63.46 63.34 63.20 62.94 62.58 62.09 61.99
63.23 63.40 64.85 65.42 65.63 64.43 63.36 64.31 64.95 65.10 64.44 63.98 64.99 65.21 64.75 63.62 65.92 66.61 66.57 66.85 66.98 66.36 66.15 65.92 65.13 64.25 63.17 63.45 63.04 62.28 61.31 58.64 58.09 58.13 58.60 62.88 63.15 63.53 63.20 62.51 62.09 61.66 61.77
61.25 61.88 63.46 65.63 65.28 64.58 64.14 63.41 62.77 63.44 63.14 62.28 62.91 62.13 63.63 65.72 65.55 66.34 65.79 65.79 65.95 65.59 65.19 64.77 64.04 62.89 60.02 58.52 60.54 60.99 58.38 58.33 58.58 58.02 58.84 62.66 63.20 63.32 62.82 62.02 61.60 61.53 61.43
61.36 61.98 63.02 63.72 63.98 64.50 64.63 62.92 63.10 61.84 62.14 61.17 62.08 63.21 65.07 65.19 65.63 64.97 64.47 64.14 63.73 63.84 61.77 61.47 60.68 56.46 55.80 56.53 57.73 57.90 57.81 58.06 58.22 58.50 60.50 62.55 63.21 63.04 62.58 61.91 61.67 61.39 60.81
60.80 62.14 62.84 63.28 62.66 62.40 63.93 63.80 62.88 62.57 61.13 61.31 63.90 64.62 64.75 64.42 63.86 63.67 63.19 62.74 61.81 59.73 58.19 56.97 55.56 54.48 54.96 56.02 57.89 57.59 57.44 57.37 57.44 57.65 59.58 61.78 62.56 62.42 62.28 62.02 61.49 61.03 60.26
60.50 61.51 62.04 62.26 62.26 62.99 62.19 62.15 62.96 62.98 62.23 63.21 63.51 64.31 64.06 63.39 63.13 62.60 62.25 61.53 60.36 59.25 57.27 54.65 54.31 54.34 54.55 56.02 57.88 57.50 56.75 56.98 57.15 57.62 57.93 61.27 61.67 62.41 61.99 62.06 61.49 60.82 60.08
61.04 61.19 61.10 60.62 60.87 60.14 58.96 60.80 62.14 63.57 62.61 63.28 63.91 63.42 63.47 63.18 62.32 61.42 60.76 59.98 59.23 58.37 57.14 56.17 55.11 53.14 54.05 55.28 57.05 57.01 56.97 57.08 57.25 56.77 58.08 59.21 60.75 61.71 62.19 61.59 61.26 60.95 60.45
61.00 61.29 60.44 59.34 59.03 57.74 57.88 59.50 61.72 62.98 63.27 62.82 63.20 63.39 63.11 62.89 61.84 60.17 58.68 57.64 57.98 56.80 55.76 55.65 54.53 54.14 53.97 55.59 56.37 56.42 56.80 56.75 56.86 56.72 56.71 56.69 58.64 59.98 60.75 61.50 61.11 60.29 59.96
60.83 60.49 60.42 60.83 58.32 57.68 58.34 59.86 60.61 61.88 62.74 62.76 62.27 62.22 62.48 62.94 61.48 58.71 57.22 56.90 56.91 54.24 54.98 54.67 55.00 54.26 54.50 54.38 54.98 55.83 56.05 56.44 56.60 56.72 56.71 56.35 56.15 57.51 59.47 60.64 60.78 61.05 60.12
61.34 61.10 61.24 59.91 58.68 58.50 58.54 59.76 60.25 61.17 60.93 61.83 61.80 61.53 62.33 62.43 61.19 57.84 56.51 56.80 56.41 53.48 54.25 55.80 54.43 54.61 54.37 54.27 54.57 55.26 55.52 55.30 55.98 56.90 55.89 55.42 55.60 55.58 56.19 59.60 60.09 59.95 60.42
60.75 61.08 61.08 61.17 60.46 59.30 58.29 58.82 59.67 59.83 60.47 61.23 61.13 61.29 61.80 62.03 61.67 58.67 57.16 57.65 57.41 53.70 54.94 55.55 54.93 54.68 55.22 54.38 55.64 54.66 55.23 55.08 54.67 55.28 55.50 56.18 55.59 55.51 55.99 56.20 57.35 57.55 58.82
59.74 59.66 59.68 60.47 60.86 59.33 58.12 57.44 57.07 57.68 58.96 59.55 60.72 60.90 61.38 61.55 61.51 60.09 58.75 58.41 58.03 55.65 55.87 55.69 54.27 54.52 53.41 53.93 51.68 50.58 50.86 53.98 54.23 53.91 54.51 54.76 55.10 55.57 55.51 56.04 56.51 56.21 57.05
58.72 58.77 58.13 59.58 60.32 59.57 58.76 58.40 58.64 58.53 58.90 59.13 59.47 60.08 60.34 60.60 60.57 60.60 58.88 59.13 58.05 58.05 55.83 55.23 53.65 52.38 52.03 52.67 52.07 49.43 46.83 49.06 51.89 52.66 53.71 54.19 54.20 55.70 55.71 56.25 56.15 56.49 56.27
57.62 57.77 57.48 58.51 59.93 59.84 59.56 59.05 58.10 58.39 58.35 57.90 57.91 57.65 58.88 59.11 59.27 60.38 59.32 58.74 59.02 57.72 55.63 54.44 54.42 54.16 52.22 52.49 53.06 51.34 48.08 46.08 48.05 50.15 50.88 53.84 53.46 54.16 54.82 55.52 55.98 56.33 56.30
57.13 57.41 56.93 58.18 59.08 59.61 59.63 58.39 57.05 56.69 54.95 56.32 57.41 57.88 58.33 58.51 57.94 58.11 58.86 57.99 58.14 57.15 55.96 55.52 55.15 54.42 53.20 52.30 52.12 55.12 54.06 52.71 47.37 46.62 51.06 50.38 51.03 53.38 54.44 54.85 55.24 55.27 55.93
57.51 57.09 56.87 57.97 57.90 58.39 59.42 58.83 57.65 57.00 57.54 58.13 56.65 54.38 56.70 56.93 57.59 57.35 57.80 57.23 57.00 58.75 56.45 56.22 55.10 54.74 54.26 53.07 51.79 53.63 52.98 53.71 52.05 49.92 47.73 50.40 51.86 51.80 52.00 53.54 55.18 55.36 55.54
57.51 57.20 57.24 56.92 56.88 57.67 59.00 58.95 58.16 57.35 57.21 57.16 56.76 55.56 55.81 56.59 56.51 56.24 56.91 57.13 56.80 57.82 57.96 56.28 56.62 55.77 55.81 53.81 53.09 53.99 53.32 52.51 51.90 50.72 48.32 49.07 50.19 52.11 54.10 52.97 51.84 53.58 55.00

GFSSE_sfc_wetblb_087.txt.gz
Wetbulb
68.95 70.68 71.75 72.31 72.48 72.33 72.01 72.02 72.01 72.30 72.82 73.24 73.37 73.28 73.07 72.95 72.82 72.60 72.56 72.52 72.68 73.18 73.05 73.25 73.25 73.03 72.78 71.69 71.51 71.56 71.56 71.00 70.68 70.86 71.07 70.78 70.68 70.41 70.02 69.65 69.74 68.04 70.03
69.15 71.07 71.15 72.02 72.47 72.12 71.98 72.16 72.20 72.45 72.75 73.16 73.17 72.84 72.69 72.69 72.67 72.60 72.65 72.74 72.78 72.93 72.05 72.53 73.00 72.68 72.06 71.39 71.39 71.18 70.82 70.24 69.96 70.15 70.70 70.19 69.87 69.70 69.43 69.20 69.38 68.45 69.61
69.20 71.01 70.92 71.46 72.20 72.33 72.15 72.17 72.61 72.66 72.72 72.60 72.71 72.65 72.61 72.67 72.67 72.44 72.40 72.26 72.50 71.98 71.85 72.61 72.66 71.86 71.22 71.11 70.60 70.50 70.01 69.74 69.36 69.29 68.98 66.85 67.05 69.31 69.20 68.70 69.13 68.95 68.55
69.66 70.71 70.61 71.24 71.83 72.16 72.13 72.22 72.47 72.68 72.34 72.37 72.32 72.38 71.39 71.27 71.83 71.38 71.57 71.85 71.59 71.91 72.11 71.89 71.87 71.05 70.78 70.20 69.70 69.18 69.02 68.68 68.14 67.70 65.43 65.63 66.59 68.87 68.75 68.21 68.04 67.80 67.51
68.59 70.17 70.76 70.86 71.28 71.85 71.96 71.86 71.99 72.05 71.74 71.80 71.85 71.51 71.07 70.95 70.63 71.16 71.03 71.10 71.60 71.79 70.60 71.56 71.30 70.32 69.68 68.70 68.49 67.97 67.70 67.25 66.62 65.34 64.37 65.17 65.59 67.10 67.48 66.95 66.64 65.70 65.82
67.74 68.70 69.70 69.92 70.83 71.61 71.85 71.73 71.66 71.38 69.30 68.67 69.48 69.72 69.65 69.48 69.75 70.14 70.16 70.17 70.81 70.80 71.01 71.32 70.04 69.81 68.35 67.57 67.29 67.03 66.53 65.85 64.86 63.58 64.25 65.25 64.57 66.48 66.02 65.01 65.54 65.32 64.73
66.50 67.36 68.66 69.43 70.41 71.34 71.77 71.22 70.87 68.40 67.14 66.14 66.91 67.47 66.77 67.58 67.63 68.04 68.96 69.50 70.14 70.14 70.73 70.34 69.42 68.39 67.60 67.06 66.39 65.84 65.20 64.86 62.38 61.92 62.21 63.23 63.66 65.56 65.15 64.27 63.67 63.22 62.88
66.09 66.20 68.37 69.50 69.78 69.58 70.45 70.11 68.72 67.78 66.64 65.89 66.04 66.72 65.98 66.43 67.74 67.26 68.10 68.70 69.53 69.04 69.45 68.86 68.62 67.56 66.61 66.10 65.47 64.70 63.62 63.32 61.29 61.18 62.26 62.90 65.07 65.19 64.23 63.51 63.40 62.88 62.40
65.30 64.91 66.99 67.42 68.07 68.37 68.14 67.89 66.66 67.44 66.73 66.24 66.04 66.58 67.25 66.64 66.63 66.78 67.83 68.11 68.61 68.37 68.15 68.35 67.76 66.21 66.07 65.29 64.35 63.43 62.46 62.30 58.56 59.36 60.99 62.04 64.74 64.55 63.99 63.20 62.56 62.42 62.34
63.98 63.76 64.16 65.02 66.48 66.28 65.37 66.44 66.19 65.65 66.05 66.46 66.65 65.96 66.58 66.52 65.98 66.68 66.75 67.18 67.60 68.43 67.83 67.40 66.35 64.92 65.30 64.41 63.49 62.49 62.12 61.69 58.00 58.47 59.78 61.22 63.76 63.77 63.32 62.65 62.49 61.93 61.72
62.69 62.72 62.94 65.91 65.67 65.38 63.50 64.46 65.90 66.30 65.50 65.70 65.97 66.44 65.12 64.11 65.97 65.37 65.70 65.93 66.91 67.00 67.05 66.05 64.89 63.86 64.35 63.76 63.01 62.49 61.15 57.65 57.54 57.31 58.58 63.00 62.87 63.57 63.37 62.42 62.21 61.95 61.55
60.61 61.58 63.28 63.26 63.76 64.38 64.34 62.53 61.69 63.17 62.86 62.54 63.52 64.14 65.07 64.16 65.23 65.06 65.23 65.51 66.00 66.10 65.84 65.10 63.44 63.56 62.80 60.88 60.75 60.64 57.56 57.71 57.74 57.77 58.48 62.70 62.82 63.26 63.10 62.23 61.96 61.52 61.80
60.54 61.18 62.22 63.33 64.19 63.20 63.31 62.35 62.16 62.78 62.74 61.89 61.45 61.56 62.32 62.61 64.61 64.98 65.09 65.41 64.51 64.75 63.12 62.09 59.55 58.05 59.52 59.14 57.16 56.61 57.71 57.92 58.52 58.65 59.88 62.56 63.30 63.15 62.63 62.46 61.70 61.68 61.08
59.58 60.80 61.65 62.45 63.86 64.30 63.30 62.08 61.83 61.57 61.55 60.72 62.31 61.80 61.94 63.10 63.34 64.14 64.45 63.95 62.87 61.93 59.95 58.58 55.10 55.06 56.80 57.02 56.74 56.51 57.26 57.90 57.84 58.13 60.00 62.11 62.92 62.94 62.92 62.68 62.18 61.70 60.79
59.49 60.54 61.25 61.64 61.45 62.12 63.37 63.06 62.38 61.49 60.77 60.88 63.20 62.47 62.69 63.14 63.15 64.09 63.23 62.49 60.77 59.90 58.69 56.83 54.16 54.74 55.75 56.57 56.77 56.55 56.80 57.40 56.62 57.80 58.45 61.44 61.93 62.90 62.54 62.56 62.20 61.53 60.79
60.72 61.30 61.18 61.37 61.42 61.17 61.82 62.58 62.70 62.08 61.31 61.73 63.23 63.37 63.63 63.99 63.63 63.04 61.84 60.66 60.17 59.62 57.12 55.76 53.82 54.01 55.37 56.66 55.74 56.38 56.78 57.02 56.29 56.11 57.89 59.13 60.86 61.79 62.51 62.13 61.73 61.26 60.73
61.01 62.00 61.27 59.87 58.92 59.18 59.10 60.95 62.44 62.57 62.31 62.60 62.80 63.35 63.56 63.63 62.75 62.19 60.99 59.58 58.98 58.80 57.41 56.45 53.14 53.50 54.99 56.80 55.39 55.84 56.60 56.59 56.04 56.23 56.47 57.08 58.98 60.22 61.12 61.94 61.61 60.85 60.35
60.81 61.01 60.03 60.40 57.20 56.52 58.42 59.55 61.48 62.80 62.49 62.68 62.98 63.24 63.02 62.82 62.16 60.78 59.36 58.40 57.73 56.65 56.13 55.71 54.28 53.35 54.92 55.59 54.92 55.66 55.88 56.21 55.75 55.62 56.09 56.11 56.51 57.36 59.47 60.77 60.85 61.10 60.42
60.65 60.71 59.91 57.94 56.37 56.88 57.81 58.59 59.94 61.56 62.24 62.46 62.30 62.72 62.80 62.38 60.94 59.23 58.25 57.22 55.60 54.93 55.10 55.19 53.82 54.14 53.80 54.13 54.98 54.51 54.63 55.00 55.18 56.24 55.26 55.26 55.62 55.84 56.07 59.64 60.03 59.93 60.21
60.61 60.99 60.38 58.00 56.62 57.27 58.61 59.31 59.73 60.40 60.72 62.04 61.82 61.93 62.58 61.90 59.83 57.67 57.08 56.40 55.67 53.61 54.38 53.75 53.71 53.32 53.64 54.45 55.63 54.60 53.88 54.39 54.99 54.57 54.83 55.58 55.16 55.38 55.50 56.23 56.69 56.68 58.92
60.87 60.41 59.65 58.68 57.54 56.96 56.96 57.32 57.98 58.14 59.53 60.15 61.19 61.72 62.05 61.61 59.08 57.18 57.37 56.07 54.92 53.60 54.61 54.78 53.65 52.93 51.78 52.95 51.59 50.70 51.46 53.56 53.62 53.79 54.59 54.43 54.93 55.20 55.26 55.61 55.88 55.32 57.02
59.84 59.34 59.32 59.11 57.69 57.02 57.45 57.36 57.55 58.29 59.00 59.57 60.20 60.99 61.99 61.64 59.49 57.56 57.78 55.79 55.28 53.41 55.10 53.92 53.58 52.33 51.85 52.61 51.78 49.37 47.98 50.17 51.75 53.32 53.66 54.47 54.55 55.19 55.33 55.49 55.42 55.87 55.43
58.87 58.36 58.41 59.04 58.68 57.65 57.47 58.16 58.41 57.22 58.36 57.98 58.14 59.31 59.61 61.12 60.50 58.68 58.30 57.02 56.63 54.23 55.03 54.92 53.73 52.82 51.55 51.97 53.67 50.88 46.87 46.82 48.74 50.84 52.55 53.51 53.37 53.88 55.09 55.32 55.63 55.76 55.84
58.81 58.82 58.18 58.57 58.47 58.71 58.19 57.21 57.35 56.17 55.86 57.29 57.71 58.33 58.74 59.02 60.11 59.70 58.38 58.49 57.50 57.28 55.39 54.96 54.88 54.55 53.45 52.36 51.14 53.49 52.64 51.25 47.98 46.39 50.70 52.27 53.63 53.30 54.00 54.39 55.24 55.55 55.84
58.51 57.54 57.11 57.88 58.05 58.30 58.31 57.98 57.40 56.87 56.69 56.88 57.67 57.39 58.11 57.76 58.23 59.29 59.07 58.22 58.17 57.55 56.56 55.20 53.95 53.58 53.51 52.91 50.90 52.70 52.74 52.62 51.43 49.04 47.16 49.80 50.52 53.09 54.54 54.14 54.48 54.66 54.97
57.36 56.91 56.36 56.88 58.06 58.00 57.96 58.46 57.53 57.14 56.25 56.20 56.16 55.90 56.52 57.45 57.21 57.24 58.40 57.85 57.60 57.64 56.18 55.89 55.02 53.96 53.18 53.65 53.62 53.36 52.82 52.28 51.78 50.83 49.07 49.38 49.56 51.01 52.65 53.17 54.04 54.48 54.70

GFSSE_sfc_wetblb_093.txt.gz
Wetbulb
70.44 71.70 71.07 71.06 71.68 72.11 72.47 72.70 72.84 73.03 73.56 73.49 73.33 73.50 73.38 73.53 73.47 73.41 73.42 73.61 73.54 73.69 73.46 73.09 73.51 73.32 73.05 72.43 72.67 72.27 71.79 71.49 71.25 71.51 71.88 71.88 71.51 71.19 71.02 71.18 70.70 70.24 71.11
71.43 72.16 70.83 71.23 71.81 72.21 72.30 72.43 72.80 72.81 73.00 73.47 73.33 73.29 73.22 73.34 73.14 73.22 73.09 73.30 73.29 73.69 73.09 72.84 73.86 73.49 72.90 72.22 71.86 71.43 71.16 70.67 70.56 70.60 71.01 71.41 71.12 70.63 70.53 70.59 70.16 70.24 70.53
71.16 71.90 71.81 70.78 71.56 71.56 72.23 72.47 72.73 73.27 73.96 73.76 73.42 73.37 73.21 73.32 73.08 72.91 72.96 72.88 73.12 73.34 73.51 72.69 73.27 72.87 72.17 71.86 71.30 71.07 70.80 70.55 70.26 70.31 70.45 70.44 69.88 70.31 70.47 70.27 70.03 70.11 70.07
71.14 71.47 71.82 70.94 71.34 71.94 72.17 72.39 71.77 72.50 73.61 73.66 73.41 73.41 73.32 73.08 72.86 73.00 72.76 72.33 72.50 73.12 73.34 72.47 72.49 71.71 71.45 70.88 70.55 70.58 70.25 69.91 69.10 69.11 69.32 69.37 68.61 69.77 69.77 69.40 69.59 69.52 69.08
70.47 70.58 71.40 70.18 70.69 71.09 72.01 72.10 71.85 71.37 72.21 72.95 72.23 72.48 71.99 71.78 71.76 71.78 71.23 71.68 72.34 72.70 73.10 72.89 71.98 71.58 70.62 69.50 69.69 69.32 68.82 68.18 67.75 68.24 68.08 68.83 69.36 69.14 69.33 68.91 68.71 68.79 68.26
69.68 70.70 69.96 69.42 70.22 71.03 71.65 71.86 71.99 71.16 71.15 71.76 71.75 71.76 72.10 71.73 71.59 70.60 70.35 70.33 71.12 72.15 72.45 72.25 71.71 70.66 69.43 68.98 68.64 68.08 67.50 67.08 67.39 68.72 69.00 68.96 68.45 68.18 67.51 66.81 67.42 67.27 67.01
68.92 69.81 69.67 68.89 69.90 70.85 71.25 71.61 71.40 71.09 70.93 70.93 71.34 71.57 71.52 71.41 71.04 70.33 69.54 69.27 69.84 70.55 71.38 71.24 70.64 69.56 68.65 67.98 67.71 66.95 66.39 66.48 68.43 68.34 68.39 68.04 67.62 67.23 66.95 65.84 65.84 65.80 65.53
70.29 69.69 69.23 70.24 69.96 70.13 70.62 70.51 70.35 69.90 69.58 69.61 69.99 70.10 70.34 69.80 69.49 69.23 68.99 68.65 68.45 69.31 69.89 70.09 69.29 68.74 67.93 67.35 66.71 65.73 65.05 65.60 66.92 67.16 67.19 66.82 66.56 65.77 65.47 65.48 64.81 64.63 64.25
70.12 70.19 69.22 70.47 70.53 69.32 68.57 68.51 68.06 68.71 68.47 68.86 68.45 68.84 68.51 67.99 67.81 68.14 68.10 68.56 68.77 68.47 69.06 69.01 68.31 67.69 67.33 66.55 65.47 64.54 63.88 64.81 66.78 66.26 65.81 66.00 66.62 65.79 64.94 63.86 63.79 62.97 62.86
69.06 68.20 68.22 69.83 70.79 71.43 70.62 67.41 67.16 67.18 67.58 67.39 67.86 67.21 66.09 65.84 66.25 66.82 66.47 67.90 68.12 67.85 68.58 68.50 67.42 66.98 66.27 65.34 64.34 63.48 63.02 63.22 65.87 65.68 65.72 65.70 65.86 65.27 64.57 63.57 63.66 63.18 62.74
66.34 66.41 67.85 68.44 69.32 70.35 69.01 67.75 67.52 67.11 66.67 66.65 67.07 66.24 65.42 66.65 66.73 66.54 65.79 66.08 67.42 67.10 67.45 67.16 66.58 65.78 64.76 64.25 63.70 62.87 62.68 64.40 64.64 64.40 64.79 64.49 65.19 65.15 64.24 63.33 62.63 62.46 62.46
65.06 65.00 66.36 67.23 68.81 69.23 68.36 68.64 67.03 66.63 66.60 66.51 67.38 67.42 67.58 67.29 67.25 66.49 66.84 65.95 66.46 65.82 66.33 66.20 65.63 64.41 64.42 65.15 64.09 62.27 63.63 63.55 63.37 63.95 64.37 64.26 64.77 64.25 63.61 62.91 62.53 62.39 62.36
64.60 65.00 64.86 65.74 66.71 68.83 67.27 67.73 66.29 66.17 65.82 65.78 65.78 66.49 67.19 67.65 67.23 66.83 67.45 68.18 67.27 65.68 64.99 65.26 65.16 65.58 65.19 64.40 63.53 63.19 63.09 63.51 63.44 63.32 63.70 63.61 64.40 63.65 63.14 62.30 62.36 62.65 62.82
64.17 64.14 65.07 65.11 64.68 66.40 66.93 66.57 65.49 64.97 64.75 64.63 65.74 67.19 66.89 65.89 65.89 66.19 65.71 67.08 66.90 65.19 62.99 63.96 65.02 64.55 64.17 63.34 62.84 62.79 62.74 61.85 61.84 62.97 62.85 62.59 63.86 63.63 63.69 63.41 63.02 62.69 62.21
64.23 65.40 64.58 64.94 64.65 64.61 64.14 64.33 64.37 64.89 64.41 65.01 64.15 65.12 66.23 64.01 64.70 66.06 64.72 66.22 64.33 62.63 61.20 62.87 63.14 63.62 63.07 62.08 62.06 62.24 62.08 62.37 62.60 62.54 62.67 61.75 62.88 63.49 63.03 63.50 63.45 62.94 62.27
64.03 64.37 65.83 63.98 65.56 64.34 63.29 63.35 63.71 63.81 63.15 62.95 63.56 63.39 65.75 64.71 65.45 65.71 64.72 64.40 64.66 61.73 60.07 61.39 63.10 62.67 62.15 62.14 61.61 61.82 61.83 62.05 62.34 62.48 62.53 62.01 61.41 62.68 63.47 63.49 63.23 62.66 62.19
63.91 64.36 64.32 64.34 64.93 63.84 63.34 63.30 63.41 63.49 63.63 62.45 62.66 64.21 64.61 64.98 64.96 65.07 63.33 63.02 63.75 62.42 59.25 60.35 61.84 61.97 61.57 61.57 60.94 61.21 61.40 61.57 61.63 61.90 62.58 62.74 61.21 60.50 61.69 63.11 63.06 62.42 61.83
64.04 63.45 64.41 63.88 62.67 63.28 63.28 63.37 62.96 63.14 63.30 63.88 63.45 63.74 63.35 62.90 63.61 62.84 62.75 61.95 61.72 58.66 57.46 58.95 60.54 60.23 60.29 60.47 60.12 60.61 60.61 60.93 61.43 61.88 62.45 62.41 61.90 60.98 60.54 61.50 61.90 62.03 61.48
63.73 63.76 64.11 63.55 61.77 62.50 62.10 62.79 63.10 62.87 62.85 63.67 64.25 63.43 63.81 63.19 62.75 62.61 62.24 61.54 60.36 58.53 57.49 59.24 59.55 60.20 59.33 59.65 59.70 59.74 59.84 60.21 61.07 61.15 61.69 61.89 61.77 60.92 60.44 60.33 60.27 60.22 60.99
63.29 64.17 64.43 62.69 61.80 62.21 62.10 60.95 62.06 63.31 63.50 63.56 63.43 63.43 63.11 62.51 62.42 62.39 61.37 60.34 60.35 58.78 58.30 59.22 58.96 59.35 59.86 59.58 58.26 58.35 59.56 60.05 60.58 60.70 61.00 61.18 61.59 61.38 61.37 61.41 61.09 60.39 59.34
62.39 63.25 63.56 60.29 60.27 59.94 58.30 58.28 59.50 60.16 61.27 62.41 62.96 63.81 62.68 61.09 59.86 58.89 59.23 59.64 60.66 59.27 58.59 59.20 58.28 58.86 58.26 59.69 57.53 56.96 57.93 58.82 58.98 59.52 60.68 60.62 60.32 60.46 60.98 61.50 61.28 60.98 60.05
61.18 62.80 62.08 59.65 59.62 59.51 59.60 59.98 59.88 59.61 60.61 61.31 62.00 62.31 61.85 60.11 59.45 59.45 59.04 58.53 59.06 57.90 56.64 57.36 59.02 57.98 58.13 58.50 57.17 56.22 52.48 54.92 56.46 58.02 59.15 59.13 59.65 59.86 59.90 60.46 60.84 60.77 60.49
60.62 61.93 60.91 59.77 59.44 59.23 59.59 59.66 60.14 60.31 59.74 60.22 60.98 61.88 61.44 60.15 59.38 58.68 59.10 58.43 58.39 57.93 56.62 57.57 58.23 57.97 55.48 57.66 58.40 57.25 53.19 52.62 53.91 56.67 57.40 58.23 58.62 58.70 59.20 59.30 59.69 59.73 60.00
60.75 62.48 61.15 59.86 59.30 59.20 59.10 58.33 59.13 57.72 57.07 59.11 60.01 60.76 60.57 60.05 59.45 58.30 57.26 55.81 56.09 57.30 56.35 56.62 57.43 58.53 58.30 56.10 57.13 56.67 58.14 57.38 54.19 51.71 54.68 56.08 57.28 57.39 58.04 58.38 58.61 58.72 59.94
61.50 62.10 60.85 60.17 59.14 58.47 57.96 58.37 58.27 57.65 58.38 59.96 59.82 59.43 59.97 60.12 59.46 58.67 57.43 55.81 54.85 55.67 55.93 55.24 56.03 57.80 58.27 58.16 56.71 55.60 55.67 55.59 55.97 54.47 52.11 53.24 55.46 56.96 57.74 58.02 58.69 58.82 59.42
61.45 61.71 60.59 59.84 58.80 58.78 57.89 58.35 58.72 56.92 56.95 59.05 58.83 58.14 58.49 58.01 58.35 57.86 57.22 56.65 55.35 54.93 55.56 56.01 56.01 55.81 57.30 58.76 57.97 57.48 55.60 54.76 54.14 54.43 53.21 54.10 54.76 55.81 56.77 57.93 58.32 58.64 59.36

GFSSE_sfc_wetblb_096.txt.gz
Wetbulb
71.38 73.62 71.13 71.63 72.20 72.76 73.17 73.16 73.35 73.44 73.58 73.77 73.71 73.88 73.73 73.73 73.82 73.85 73.93 73.72 73.74 73.97 73.95 73.23 72.96 72.93 72.76 72.26 72.58 72.68 72.56 72.29 71.87 71.83 71.86 72.11 71.94 71.69 71.37 71.62 71.19 71.28 71.11
71.92 74.18 70.90 71.58 71.99 72.33 72.79 73.03 73.19 73.61 73.83 73.92 72.68 73.55 73.55 73.62 73.74 73.80 73.89 73.80 73.74 74.22 73.42 73.00 73.23 73.08 72.46 73.15 72.47 72.06 71.77 71.32 70.98 71.10 71.64 71.60 71.62 71.24 71.22 71.08 70.68 70.78 70.69
72.62 74.18 72.79 70.97 71.72 72.32 72.54 72.97 73.17 73.85 74.02 73.73 73.29 72.94 72.90 73.62 73.75 73.56 73.44 73.14 73.37 73.97 73.67 73.23 73.40 72.81 72.63 72.07 71.50 71.36 71.20 70.88 70.45 70.25 71.01 71.37 71.17 70.91 70.75 70.75 70.45 70.44 70.38
72.00 73.40 73.61 70.86 71.35 72.06 72.70 72.95 72.87 74.06 74.00 73.81 73.61 72.26 73.60 73.63 73.51 73.24 73.15 72.56 73.02 73.53 73.93 73.25 73.13 72.73 72.02 71.38 71.00 70.91 70.74 70.23 69.90 69.90 70.63 70.86 70.07 70.44 70.17 69.87 70.11 69.34 69.07
72.04 73.00 73.21 70.57 70.73 71.87 72.36 72.30 72.15 72.64 73.31 73.21 73.31 73.28 72.69 72.87 72.73 72.56 72.49 72.30 72.72 73.55 73.53 73.08 72.81 72.17 71.04 70.34 70.28 70.02 69.52 69.07 68.92 70.17 70.28 70.69 70.44 69.86 69.75 69.31 68.92 69.19 68.75
72.05 72.68 70.61 69.37 70.25 71.31 71.96 72.36 71.92 71.97 72.10 72.39 71.93 71.89 72.41 72.15 71.45 71.45 70.73 71.44 72.43 72.38 72.36 72.36 71.88 71.04 69.93 69.32 68.95 68.49 68.25 68.18 67.95 70.06 68.96 69.73 69.13 69.41 69.02 68.05 68.21 68.06 67.56
72.24 73.05 72.75 68.88 69.89 70.74 71.94 72.25 71.67 71.09 71.22 71.77 71.89 71.66 71.96 71.91 71.59 70.92 70.50 70.73 69.95 70.00 70.65 71.42 71.09 69.97 69.26 68.56 68.08 67.50 67.41 67.54 69.70 67.89 68.54 67.63 68.09 68.10 67.61 67.41 66.92 67.01 66.47
72.40 72.89 72.69 70.15 69.79 70.08 70.83 71.21 70.84 70.74 70.74 69.98 70.86 70.93 71.39 71.20 70.48 70.21 69.71 69.31 68.85 68.41 68.30 69.51 69.25 69.28 68.43 67.78 67.15 66.59 66.40 66.74 68.43 67.53 67.53 67.90 67.73 67.37 66.84 66.11 65.78 65.71 65.17
73.74 72.95 72.56 72.06 71.09 69.20 69.14 69.30 69.33 69.71 69.64 69.67 70.00 70.12 70.06 69.25 68.99 69.10 68.76 68.73 68.61 67.21 67.51 68.50 68.54 67.70 67.45 66.98 66.18 65.46 65.39 66.46 67.64 67.24 66.87 65.97 66.81 66.57 66.07 65.25 65.36 64.60 64.03
73.18 73.20 71.10 71.22 71.43 72.83 72.68 67.99 68.28 68.80 68.67 68.56 68.80 68.10 67.43 68.05 68.05 68.17 67.60 67.97 68.29 68.55 68.50 68.42 67.63 67.23 66.51 65.91 65.18 64.52 64.51 65.29 67.69 67.60 66.60 66.62 66.70 65.75 65.08 64.49 63.68 63.89 63.60
71.18 71.70 70.49 70.50 72.22 73.24 72.50 70.85 68.48 68.37 68.16 67.91 67.99 66.51 66.31 70.34 69.47 67.85 67.25 67.21 68.11 68.02 67.47 66.95 67.00 66.36 65.22 64.94 64.52 64.05 64.02 67.30 67.02 66.23 66.29 65.58 66.27 65.12 64.70 64.41 63.67 63.25 62.99
68.77 69.15 69.90 70.29 72.00 72.33 71.67 72.06 71.18 71.19 69.93 70.54 70.52 69.48 70.07 70.22 69.80 68.08 66.86 65.27 66.16 66.09 66.34 65.93 66.11 64.99 65.39 66.99 66.50 64.14 66.33 67.26 67.16 66.64 65.78 64.96 65.86 65.37 64.46 63.53 63.13 62.87 63.22
69.19 68.88 68.54 69.33 70.65 71.77 70.61 70.78 69.74 69.43 69.22 68.69 69.50 69.50 69.66 69.10 68.48 67.92 68.40 68.75 68.43 66.90 68.10 65.13 64.77 66.62 67.07 67.28 65.47 66.16 66.42 66.82 65.82 65.35 64.13 64.47 65.55 64.92 64.39 63.65 62.82 62.98 63.28
68.60 68.86 68.16 68.51 68.52 71.03 71.09 68.94 68.88 68.10 67.67 67.08 67.21 68.54 68.51 68.51 68.24 68.10 67.91 68.68 68.30 68.75 67.34 66.57 64.63 66.37 66.83 66.77 66.39 66.33 66.07 65.88 65.57 65.24 63.51 63.31 64.30 64.63 63.81 63.43 63.65 63.57 63.25
67.98 68.62 68.12 67.68 67.95 70.05 70.03 68.94 68.28 67.98 67.26 67.80 66.77 67.40 67.38 67.62 67.10 67.00 68.01 68.34 67.90 67.31 66.44 66.04 64.29 65.80 66.09 66.03 65.96 65.45 65.35 64.85 64.68 64.25 64.39 62.42 62.84 64.20 64.01 63.89 63.37 63.69 63.01
67.74 68.82 69.55 66.54 67.43 68.58 68.99 68.27 67.07 67.02 68.24 67.67 66.88 66.57 67.15 67.37 66.90 66.87 67.39 67.33 66.91 65.72 65.47 64.31 65.04 65.62 65.92 65.55 65.24 65.25 64.48 64.48 64.00 63.46 63.65 63.13 61.60 62.76 63.88 63.96 63.70 63.41 62.79
67.23 68.57 69.48 67.75 67.70 66.93 67.87 67.32 67.80 66.22 67.54 67.15 65.78 65.62 65.92 67.70 67.51 66.39 66.92 66.22 64.94 63.38 64.85 63.57 64.67 64.91 65.07 64.75 64.79 64.75 64.48 63.32 63.23 63.33 63.28 62.94 62.65 61.20 62.42 63.60 63.80 63.18 62.62
66.44 67.79 68.79 68.24 66.37 66.58 67.34 65.65 65.34 65.62 65.70 66.08 65.91 65.48 65.71 66.43 66.61 65.87 64.87 65.98 64.46 62.78 63.25 61.50 63.28 63.19 63.79 63.85 63.58 63.73 63.17 62.71 62.96 63.08 63.54 63.57 63.53 62.61 61.62 62.26 62.70 62.92 62.54
65.74 67.57 68.05 68.64 66.30 66.25 66.68 66.04 65.31 66.32 64.47 65.35 65.76 65.44 66.14 65.73 65.39 64.40 64.18 64.01 61.97 61.02 61.42 61.63 63.23 63.57 62.70 62.58 63.01 63.24 62.66 62.42 63.16 62.77 61.63 63.29 63.58 62.53 62.47 61.17 61.19 61.17 61.86
64.45 66.92 68.16 68.23 66.79 65.52 65.52 65.02 64.67 65.18 64.38 65.53 66.11 65.44 65.79 65.56 64.10 63.00 63.05 62.10 60.54 59.05 59.01 60.24 62.10 63.33 63.69 62.76 61.56 61.38 61.95 62.81 62.96 61.48 61.29 62.22 63.07 62.79 62.09 61.72 62.11 60.76 59.69
62.41 65.06 66.94 67.54 65.73 64.12 63.44 62.63 62.42 62.49 63.22 64.21 66.33 65.00 65.20 63.81 62.46 62.62 62.29 61.30 60.24 58.78 58.38 59.72 62.26 62.29 61.82 62.85 60.02 59.17 59.69 60.79 61.05 60.92 61.45 62.27 62.16 62.35 62.75 62.68 62.45 61.94 61.09
61.48 64.14 66.03 67.17 63.93 63.99 64.99 65.27 63.76 62.91 63.37 63.96 64.51 64.13 64.67 63.19 60.52 61.35 61.45 60.57 59.99 58.68 58.49 59.51 61.99 61.01 60.74 61.83 58.70 58.57 54.33 56.46 58.76 60.59 60.51 61.26 61.41 61.68 61.56 61.97 62.33 62.11 62.07
62.32 63.81 65.05 66.67 62.96 63.75 66.26 65.32 63.33 63.46 62.56 62.42 63.15 62.45 60.80 60.24 59.99 59.68 60.50 60.38 59.93 59.32 58.74 61.17 62.32 61.33 59.25 60.99 61.90 59.16 54.43 53.73 57.23 59.87 59.92 60.85 60.91 60.46 60.78 61.25 61.56 61.69 61.93
62.42 64.48 65.32 65.72 61.52 63.06 65.20 64.52 63.67 61.78 60.02 61.45 60.89 63.16 61.84 61.44 59.82 59.72 59.10 59.64 59.30 60.28 60.89 60.41 61.97 62.51 61.38 59.12 61.08 61.56 61.52 60.07 56.01 54.38 58.64 60.16 60.95 59.81 60.17 60.29 60.71 61.51 61.88
62.38 64.28 65.17 63.22 61.29 62.01 62.99 65.27 63.58 63.12 62.41 61.92 62.18 62.34 61.72 60.96 60.97 58.99 59.25 60.31 60.32 60.52 60.35 62.17 62.27 62.73 62.10 61.08 59.21 59.02 59.32 59.45 60.23 57.13 54.35 56.92 59.33 59.70 60.26 60.38 60.30 60.44 61.05
62.19 64.55 64.33 60.93 60.50 61.53 62.88 63.95 63.74 62.96 61.49 60.87 60.78 61.34 59.41 59.55 58.99 58.73 57.62 57.45 58.76 59.92 59.58 59.12 58.78 58.67 59.02 60.60 60.21 60.70 59.30 57.35 57.18 56.33 54.71 56.31 56.23 58.38 59.81 60.11 60.29 59.97 60.64

GFSSE_sfc_wetblb_102.txt.gz
Wetbulb
68.92 70.80 72.48 73.25 73.40 73.62 74.12 73.96 73.59 73.46 73.87 73.93 74.02 74.07 74.01 74.10 74.12 74.15 74.29 74.11 74.17 74.76 74.64 73.87 73.54 72.82 73.02 72.97 73.10 73.02 72.62 72.26 71.77 72.18 72.74 73.05 72.37 72.00 71.71 71.63 71.31 70.31 71.83
70.72 71.39 71.78 72.52 72.95 73.23 73.60 73.96 73.76 73.56 73.75 74.06 74.12 73.92 73.91 73.83 73.99 74.10 74.16 73.93 74.22 74.79 74.09 73.57 73.39 72.55 72.72 72.68 72.76 72.20 71.88 71.46 71.30 71.54 72.15 72.15 72.13 71.65 71.49 71.37 70.76 70.48 71.28
71.20 71.29 71.41 71.90 72.62 73.01 72.87 73.36 74.14 74.10 74.09 74.01 73.96 73.81 73.81 73.87 73.97 73.87 73.90 73.52 73.95 73.79 73.67 73.14 73.29 72.62 72.74 72.46 71.79 71.55 71.30 71.11 70.78 70.82 71.32 69.34 69.56 71.41 71.20 70.89 70.67 70.84 70.85
71.98 71.60 71.23 71.60 72.25 72.67 72.96 73.12 73.67 74.14 74.24 73.98 73.47 73.32 73.57 73.49 73.76 73.75 73.50 73.06 73.22 73.52 73.30 73.12 73.07 72.70 72.18 71.62 71.33 71.02 70.86 70.44 70.29 70.20 69.12 69.23 69.75 70.85 70.67 70.24 70.36 70.01 69.56
71.91 72.20 71.20 71.03 71.49 72.37 72.73 73.02 73.18 73.71 73.74 73.43 72.97 73.53 73.39 72.82 73.39 73.57 72.40 72.31 72.16 71.83 72.75 72.70 72.48 72.33 71.30 70.46 70.35 70.27 70.04 69.84 69.44 69.35 68.26 68.42 68.63 70.02 70.33 69.59 69.66 69.24 68.61
71.15 73.10 69.56 70.19 70.82 71.81 72.43 72.62 72.69 73.18 73.08 72.70 72.46 73.01 73.02 72.76 72.86 72.40 71.04 70.45 70.25 69.89 70.62 70.85 71.37 70.60 70.13 69.85 69.66 69.48 69.08 68.65 67.67 67.20 67.20 68.59 67.98 69.53 69.62 68.96 68.47 68.26 67.76
71.74 72.03 70.30 69.67 70.56 71.49 72.14 72.30 71.69 72.01 72.36 72.33 71.78 72.09 72.42 72.58 72.31 71.68 71.05 70.09 69.53 69.30 68.09 68.63 69.21 68.96 68.21 68.30 69.12 68.75 67.57 67.13 67.62 66.68 67.12 67.41 67.42 69.45 69.06 68.10 68.09 67.69 67.29
72.46 72.40 70.65 70.24 70.37 70.52 71.41 71.46 70.88 70.96 71.14 71.25 71.49 71.75 72.02 71.99 71.09 70.67 70.68 70.18 69.34 67.99 66.80 67.06 68.23 67.96 67.36 66.78 67.11 66.62 65.88 66.82 67.46 66.27 66.68 66.78 68.16 68.84 68.45 67.51 67.51 66.85 66.37
73.51 72.41 70.99 70.48 70.10 69.84 69.72 69.89 69.95 70.25 70.28 70.20 70.46 70.42 70.77 70.36 70.00 69.47 69.67 69.57 69.29 68.93 68.98 68.85 68.13 67.44 66.80 66.91 66.17 65.73 64.46 65.76 66.14 66.37 66.43 66.14 68.50 68.23 67.48 66.84 66.26 65.91 65.76
73.16 73.28 71.83 71.51 70.65 70.55 70.51 68.73 69.35 69.64 69.51 69.38 69.89 69.57 69.02 69.03 69.28 69.20 68.80 69.11 69.24 69.07 68.88 68.11 67.67 67.20 66.80 66.44 66.00 64.67 64.22 64.39 65.08 65.34 65.89 65.80 67.87 67.79 67.16 66.29 65.67 64.76 65.02
71.84 72.01 72.99 72.25 71.55 71.66 71.32 70.18 69.06 69.36 69.06 68.64 69.22 68.83 67.74 69.54 69.03 68.44 68.60 68.24 68.32 68.02 67.35 66.86 66.80 66.51 66.15 65.53 65.68 65.41 64.26 64.51 64.63 64.82 65.03 66.31 67.55 67.22 66.46 65.43 64.92 64.75 63.90
70.55 71.09 71.59 72.08 71.71 72.36 70.76 70.33 70.50 70.32 69.63 69.54 70.03 69.39 70.11 69.37 68.70 68.33 67.57 67.38 67.28 67.08 66.69 66.49 66.51 65.64 65.68 65.04 64.75 65.15 64.21 64.41 63.79 64.17 64.44 65.85 66.86 66.13 65.24 64.46 64.28 63.76 63.95
69.70 70.54 70.36 70.85 71.91 72.02 70.37 71.49 70.65 70.51 70.28 69.89 70.12 69.94 69.79 68.48 68.46 67.20 66.43 67.09 66.06 66.37 65.90 65.97 65.13 64.50 64.36 64.35 64.26 64.01 64.86 63.71 64.01 64.05 64.39 64.98 66.11 65.80 65.00 64.31 63.45 63.34 63.70
68.69 69.85 70.32 70.26 71.10 71.24 71.50 71.17 70.58 69.64 69.67 68.76 69.84 70.09 69.01 68.15 67.90 67.01 66.31 65.80 66.28 65.90 65.52 64.68 64.47 64.38 63.67 64.26 64.22 64.16 63.92 63.53 63.38 63.61 63.78 64.26 65.19 65.77 64.96 63.35 63.17 63.67 64.09
67.42 68.95 69.45 69.74 70.09 70.86 71.66 69.47 69.89 69.45 69.29 68.46 69.32 69.45 68.70 67.89 67.16 66.94 66.39 66.61 65.95 65.95 65.22 64.69 64.40 64.03 63.49 63.40 64.41 64.04 64.16 63.38 63.19 62.86 63.11 63.54 64.08 64.73 63.99 63.88 63.90 64.45 64.06
66.14 68.41 69.75 69.38 69.80 70.43 70.25 69.89 69.32 68.56 68.73 68.79 67.76 68.40 69.09 67.98 67.12 66.51 65.75 65.73 66.31 65.53 65.57 65.03 64.53 63.41 62.54 63.40 63.47 63.63 63.55 63.04 63.24 61.92 62.38 62.23 62.71 63.50 63.88 63.88 64.34 64.26 63.72
62.54 68.88 69.51 69.50 68.89 69.41 70.01 70.06 68.71 68.05 68.65 68.17 67.58 67.96 68.16 67.95 67.77 66.33 65.64 65.48 66.00 65.48 65.53 64.69 63.46 63.68 62.91 63.47 63.00 63.17 62.89 61.66 61.47 61.85 61.03 61.10 61.20 61.36 62.61 64.09 64.54 64.53 63.47
61.02 65.42 70.06 69.89 68.29 68.10 69.54 69.49 68.11 67.45 67.89 67.96 67.87 67.38 67.09 67.02 66.95 66.26 65.82 65.68 65.32 65.59 65.06 63.85 62.24 61.77 61.80 62.05 62.05 62.31 60.86 60.59 59.67 60.85 61.07 60.43 60.19 60.93 61.38 62.51 63.53 63.81 63.57
59.63 63.98 69.29 69.21 67.86 67.16 68.43 69.35 68.62 67.55 66.88 67.05 67.40 67.56 67.33 66.99 66.62 66.13 65.11 65.01 64.66 64.41 64.17 63.83 62.36 61.26 60.90 61.19 61.51 61.79 60.42 58.36 59.19 61.21 59.84 59.81 59.95 59.72 60.04 61.42 61.77 61.75 62.51
59.25 63.26 69.66 69.40 68.05 67.30 67.34 68.41 67.68 67.59 66.30 66.61 66.43 66.24 66.05 66.74 66.40 66.08 64.88 64.50 64.17 64.10 63.50 63.33 61.99 62.12 61.26 60.88 62.21 61.04 58.46 58.10 57.87 58.10 59.81 60.83 60.16 59.86 59.65 60.17 60.05 59.61 60.58
61.34 63.49 67.65 68.90 68.67 66.99 65.66 65.18 64.73 64.37 64.60 64.49 65.73 66.42 65.57 65.44 65.46 65.08 64.21 63.79 64.01 63.16 62.48 63.07 61.77 61.04 60.11 61.05 58.99 57.97 58.68 59.50 58.42 58.29 58.42 60.14 60.19 60.14 60.13 60.62 60.00 59.44 59.49
60.93 61.47 63.42 68.09 69.01 67.65 65.90 65.71 64.68 64.26 64.43 64.40 64.69 65.47 65.44 65.33 65.26 64.47 63.61 62.90 63.13 62.39 61.96 62.01 61.00 59.83 59.75 60.52 57.41 55.47 53.12 55.21 57.06 58.07 57.47 58.17 59.37 59.62 59.82 59.94 60.15 59.36 58.97
61.61 62.14 60.72 64.49 68.39 68.15 66.67 65.49 64.91 64.87 64.49 63.51 64.47 64.31 64.59 64.46 64.42 64.05 63.30 62.13 61.56 61.33 60.50 60.64 60.68 59.58 58.05 59.52 59.50 55.73 52.46 50.97 54.03 57.00 57.81 56.76 57.12 58.67 58.75 58.74 58.89 59.45 58.69
60.73 62.00 62.01 61.36 64.81 68.07 66.18 64.50 64.09 63.16 62.22 62.87 63.71 63.94 64.06 64.03 63.94 63.62 62.82 62.32 60.95 60.87 60.24 60.30 60.86 60.13 59.08 57.46 58.84 58.70 56.89 56.60 52.48 51.48 56.41 57.44 57.43 58.03 57.37 58.54 58.43 58.54 58.46
61.21 61.31 62.07 61.89 62.16 67.29 65.72 65.42 64.61 64.00 63.68 63.55 63.31 62.99 62.53 62.69 62.12 61.05 60.79 61.10 60.28 60.34 60.22 59.99 60.18 60.04 60.08 58.41 57.81 57.13 56.61 56.76 55.82 53.21 51.26 53.77 55.93 57.04 56.62 57.02 57.04 56.76 58.22
59.95 60.59 62.05 63.01 62.43 66.83 66.14 65.63 65.27 64.55 63.50 62.59 62.09 61.42 61.21 60.09 60.88 59.75 60.00 60.12 60.81 59.92 59.68 59.79 60.02 59.67 59.77 59.41 58.84 58.14 57.14 55.04 54.83 54.02 52.75 53.68 52.96 54.65 57.00 56.66 56.63 57.06 57.31

GFSSE_sfc_wetblb_105.txt.gz
Wetbulb
68.05 71.42 72.29 73.05 73.57 73.51 73.34 73.09 72.76 73.02 73.55 73.95 73.92 73.66 73.74 73.88 73.93 73.91 74.04 74.37 74.72 75.10 74.55 74.00 74.17 73.53 73.63 73.15 73.43 73.17 72.56 72.25 72.03 72.24 72.88 73.21 72.43 72.26 72.06 71.97 71.54 70.46 71.83
69.18 71.31 71.66 72.60 73.21 73.58 73.80 73.23 72.93 73.12 73.71 74.02 73.91 73.74 73.62 73.72 73.95 73.88 73.97 74.18 74.28 74.85 74.18 73.38 73.48 73.01 73.23 72.88 72.68 72.30 72.09 71.45 71.27 71.57 72.31 72.81 72.51 72.07 71.71 71.51 71.19 70.59 71.33
69.04 70.99 71.60 71.80 72.66 73.15 73.65 73.72 73.41 73.64 73.90 74.04 73.94 73.61 73.66 73.72 73.77 73.85 73.68 73.63 73.91 73.29 73.50 73.18 73.08 73.08 72.71 72.29 71.82 71.88 71.62 71.03 70.47 71.02 71.15 69.14 69.68 71.47 71.33 71.24 70.94 71.09 71.28
68.85 70.12 70.38 71.47 72.22 72.71 72.93 73.43 73.52 73.90 74.00 73.96 73.89 73.74 73.60 73.64 73.45 72.81 73.23 73.09 73.62 73.15 73.01 72.76 72.98 72.60 71.92 71.47 71.31 71.25 70.98 70.42 70.14 70.01 68.97 68.96 69.53 70.88 70.78 70.50 70.54 70.42 70.66
69.12 69.98 70.69 70.98 71.32 72.31 72.47 72.80 73.12 73.29 73.39 73.27 73.27 73.54 73.62 73.34 73.51 72.75 72.54 71.53 71.20 71.62 71.25 71.37 72.03 71.61 70.81 70.00 70.20 69.99 69.68 69.57 69.01 68.85 67.63 68.29 68.81 70.17 70.17 69.99 70.02 69.36 69.41
69.62 69.76 69.39 69.75 70.74 71.83 72.42 72.50 72.61 72.90 72.61 72.35 72.47 73.21 73.46 73.32 72.56 72.53 70.88 70.80 70.26 69.66 69.55 69.66 69.76 70.00 68.72 68.52 69.22 68.99 68.58 68.17 67.35 66.97 67.07 68.95 68.17 69.95 69.85 68.87 68.98 68.79 68.45
68.88 68.70 69.23 69.21 70.13 71.29 72.14 72.15 72.18 72.37 72.30 72.10 72.09 72.33 72.37 72.66 72.27 71.21 70.50 70.28 69.01 67.79 69.06 68.95 68.49 68.89 68.07 68.10 68.06 67.64 67.13 66.06 66.83 65.90 66.57 66.91 67.83 69.73 69.14 68.17 67.95 68.10 67.64
68.29 68.36 68.80 70.13 70.11 70.55 71.11 70.94 70.71 71.10 71.52 71.88 71.61 71.55 71.98 71.69 71.10 70.62 70.08 69.76 66.81 67.92 68.61 68.14 66.39 67.46 68.17 67.83 67.11 66.37 65.74 66.69 66.71 65.95 66.26 66.46 69.09 69.24 68.60 67.71 67.15 67.21 66.80
69.25 67.89 67.74 68.46 69.58 69.55 69.48 69.42 69.41 70.12 70.20 70.03 70.44 70.54 70.68 70.16 69.64 69.54 69.64 69.65 68.44 67.99 67.40 68.07 66.97 67.16 67.83 67.56 66.93 65.74 64.88 65.63 65.60 65.71 66.21 66.41 68.97 68.75 67.92 66.96 66.19 65.82 65.90
68.54 67.81 67.23 67.00 67.63 67.63 67.72 68.59 68.90 69.03 69.27 69.24 69.58 69.20 68.89 69.03 68.98 69.12 69.00 69.23 68.07 67.74 67.55 68.53 67.87 67.06 66.58 66.24 65.91 65.06 64.49 64.59 65.66 65.25 65.36 66.05 68.06 68.19 67.56 66.45 65.70 64.77 65.16
69.00 68.23 67.76 67.23 67.45 67.61 67.34 68.50 68.99 69.27 68.87 68.57 68.90 68.59 67.25 68.12 68.25 68.17 68.10 68.32 68.13 67.97 68.16 67.85 66.95 66.33 65.84 65.59 65.27 65.06 64.75 63.94 64.64 64.44 64.81 66.88 68.24 68.00 67.24 65.96 64.88 64.99 64.69
67.04 67.74 68.67 67.67 67.74 68.16 69.29 67.18 66.68 67.74 66.46 66.73 67.36 67.11 67.61 67.11 67.36 67.93 67.65 67.34 67.69 67.42 67.22 66.82 66.31 65.60 65.11 63.75 64.37 64.87 63.61 63.82 63.63 63.98 64.88 66.58 68.00 67.80 66.88 65.26 64.19 63.84 64.20
68.15 68.31 68.31 68.27 68.47 68.53 68.56 67.11 67.81 67.13 66.18 66.07 66.75 67.11 66.91 66.66 66.08 66.28 66.35 66.62 66.30 66.06 64.88 65.28 64.53 63.54 63.35 63.37 63.40 63.34 64.15 63.66 63.39 63.70 64.77 65.63 67.18 67.03 66.11 65.02 63.92 63.23 63.46
68.15 68.08 68.03 68.13 67.76 67.85 69.19 68.25 67.90 67.52 66.72 66.03 66.26 66.93 65.86 65.74 65.24 64.77 65.64 65.38 64.72 64.60 63.56 63.70 63.15 62.54 62.35 62.94 62.75 63.21 63.65 63.46 62.80 63.09 64.26 64.27 65.47 65.97 65.33 64.51 63.75 63.66 63.56
67.18 68.01 67.89 68.03 67.89 68.09 68.72 68.54 67.65 66.77 66.84 66.31 66.78 66.89 66.40 65.41 65.16 64.78 64.41 65.43 64.66 64.75 63.74 63.20 62.76 62.62 61.87 62.34 62.92 64.12 63.45 63.31 62.95 62.99 63.34 63.45 64.28 65.21 64.68 64.41 63.74 64.25 63.89
67.39 67.78 67.79 67.76 68.06 67.98 67.29 67.11 66.53 67.24 66.35 66.04 66.10 66.08 65.84 65.34 65.36 64.97 64.48 64.83 65.19 64.45 63.80 63.57 63.05 62.48 61.66 61.89 62.46 63.86 63.56 62.90 62.60 62.30 62.56 62.80 62.77 63.81 64.11 63.81 63.85 64.70 63.89
65.48 67.88 67.41 67.21 67.62 67.86 67.11 66.31 65.66 66.06 66.00 65.22 64.92 67.14 65.77 65.17 64.93 64.54 64.27 63.72 64.02 63.87 63.32 63.30 62.99 62.50 61.28 62.02 62.40 63.21 63.19 63.09 61.96 62.28 62.19 61.86 61.66 61.37 62.25 63.66 64.44 64.35 63.49
57.09 66.81 67.44 68.05 67.41 67.06 66.78 66.62 65.82 65.02 65.13 65.35 64.98 65.27 65.61 65.27 64.61 64.29 63.65 63.49 64.00 63.21 63.76 62.74 63.40 61.87 60.79 61.43 61.79 62.04 62.65 62.12 61.53 61.43 61.36 60.90 60.28 60.02 61.10 62.38 63.48 63.80 63.87
53.97 66.90 66.89 67.39 66.68 66.62 66.24 66.67 65.24 64.84 64.55 66.29 65.88 65.50 65.43 65.27 64.87 64.01 63.81 64.05 63.90 62.89 63.12 62.49 61.51 61.90 60.07 60.61 61.47 61.66 61.94 60.36 60.25 60.88 59.93 59.67 59.33 58.73 59.14 61.41 61.90 62.07 62.68
51.75 67.26 67.32 67.02 66.14 66.21 66.70 65.56 65.15 64.62 63.43 63.71 65.13 65.64 65.39 65.46 64.87 63.97 62.71 62.47 61.93 62.51 62.42 62.51 60.96 60.92 60.60 60.23 61.91 61.39 61.22 59.45 59.72 59.00 58.63 59.66 59.23 59.02 59.05 59.47 60.88 60.10 60.77
51.27 66.38 67.14 66.06 65.44 65.11 65.26 63.91 64.42 63.35 62.80 61.80 63.05 64.75 65.44 64.99 64.85 64.20 63.35 61.89 61.68 61.79 61.90 61.96 61.08 59.77 59.05 60.18 59.66 59.27 58.26 58.04 56.72 58.19 58.10 58.42 58.37 58.61 58.84 59.50 59.31 58.70 59.50
53.25 63.01 66.69 66.09 65.19 64.84 64.94 65.17 63.62 64.52 63.41 64.07 62.35 62.75 63.57 64.40 64.04 63.46 62.50 61.98 61.78 62.09 61.58 61.62 61.10 60.13 59.70 60.48 58.23 56.64 53.60 55.25 56.35 56.53 57.86 58.16 57.65 58.75 58.73 59.11 59.25 58.55 58.34
54.06 55.42 65.34 66.34 65.28 65.13 64.62 64.42 62.64 62.65 63.12 62.61 62.85 62.71 62.06 62.46 63.01 62.57 61.75 61.87 62.09 62.81 62.04 61.95 61.50 60.26 58.38 59.90 59.26 55.49 51.91 51.02 52.90 55.07 55.69 57.28 58.20 58.29 58.62 59.03 58.71 58.67 58.20
55.08 56.69 56.74 65.45 65.86 65.09 64.44 63.72 62.36 61.50 60.90 62.12 62.42 62.34 61.76 62.43 61.81 62.40 61.52 61.11 62.09 62.20 61.67 61.74 61.83 60.62 59.74 58.08 58.98 59.42 56.50 55.92 51.89 50.34 54.63 55.37 56.54 57.65 57.97 58.80 58.00 58.31 58.40
53.66 54.72 56.49 57.58 61.86 65.50 64.26 63.89 62.56 61.54 61.82 61.32 62.07 62.62 61.25 60.69 61.46 61.82 62.54 61.47 61.22 61.11 61.26 61.24 61.12 60.44 60.05 59.09 58.45 57.39 55.67 55.59 55.00 52.79 50.63 52.30 54.38 55.93 56.39 57.17 57.27 57.08 57.68
49.83 51.26 53.11 54.37 56.55 62.70 64.02 63.37 62.73 61.73 61.50 60.59 60.77 59.92 59.47 59.94 59.72 60.42 60.28 60.74 61.10 60.72 60.50 60.53 60.90 60.43 59.63 59.71 59.13 57.79 56.35 54.53 53.75 52.80 52.10 52.19 52.37 53.68 55.90 55.51 56.17 57.21 56.31

GFSSE_sfc_wetblb_108.txt.gz
Wetbulb
69.27 71.06 72.33 73.05 73.04 72.78 72.61 72.60 72.61 72.80 73.25 73.55 73.46 73.55 73.91 73.84 73.76 74.13 74.29 74.22 74.47 74.68 74.26 73.74 73.96 74.09 73.96 72.99 73.48 72.66 71.94 72.03 71.78 72.48 72.49 72.62 72.50 72.60 72.16 72.07 71.58 70.28 71.87
69.85 71.24 71.53 72.80 73.07 73.08 73.00 72.68 72.74 73.10 73.60 73.74 73.52 73.31 73.60 73.57 73.73 74.00 74.19 74.44 74.42 74.21 73.69 73.14 73.74 73.44 73.21 72.88 72.44 72.10 71.82 71.35 71.54 71.68 72.17 72.42 72.18 72.05 71.60 71.17 71.23 70.42 71.10
69.78 71.07 71.71 71.94 73.07 73.19 73.18 73.07 73.11 73.51 73.63 73.64 73.54 73.43 73.57 73.70 73.66 73.75 73.69 73.93 74.01 73.68 73.29 72.67 73.04 72.22 72.70 72.32 71.99 71.91 71.46 71.34 71.03 70.82 71.42 69.48 69.62 71.31 71.46 70.94 71.08 70.91 70.64
69.89 70.56 71.08 71.79 72.37 73.06 73.07 72.91 73.03 73.61 73.58 73.65 73.50 73.50 73.44 73.52 73.46 73.35 73.17 72.76 72.70 72.72 72.92 72.50 72.50 72.46 71.94 71.41 71.29 71.19 70.79 70.29 70.03 70.04 68.82 68.34 69.57 70.89 71.12 70.67 70.52 70.58 70.46
68.96 69.87 70.64 71.21 71.52 72.27 72.57 72.72 72.88 73.22 73.15 73.14 73.16 73.63 73.52 73.56 73.53 73.23 72.09 71.59 72.21 72.40 72.64 72.08 72.25 71.72 70.96 70.32 69.93 70.25 70.19 69.67 69.06 68.05 67.23 67.95 68.95 70.03 70.69 70.43 70.19 69.89 69.69
68.10 69.31 69.59 70.04 70.96 71.89 72.27 72.69 72.76 72.67 72.29 72.16 72.61 73.30 73.40 73.51 73.42 72.74 71.24 70.94 71.33 71.48 71.44 71.36 71.74 70.76 69.68 69.42 69.18 69.02 68.41 68.19 67.74 66.36 67.97 69.45 68.68 70.45 70.17 69.38 69.45 69.34 69.42
67.46 68.46 69.25 69.03 70.42 71.58 72.15 72.43 72.42 72.02 71.75 71.66 71.94 72.41 72.72 72.89 72.74 71.30 70.49 70.46 70.41 70.74 70.67 70.98 70.75 69.82 69.18 68.34 68.46 68.16 67.32 67.54 66.54 66.51 66.24 67.41 68.49 70.05 69.37 68.79 68.74 68.71 68.47
66.74 68.06 68.73 69.69 70.13 70.62 71.13 71.15 70.89 71.15 71.48 71.27 71.41 71.78 72.23 71.83 71.39 70.47 69.72 69.30 69.60 69.69 69.24 69.25 69.11 68.97 68.95 68.50 67.77 67.03 66.40 66.93 66.52 65.17 66.58 66.56 69.22 69.24 68.80 68.26 67.35 67.42 67.24
67.30 67.37 67.64 68.33 69.57 69.30 69.03 69.16 69.43 70.25 70.65 70.78 70.54 70.47 70.72 70.18 69.72 69.95 68.58 67.43 67.87 69.04 68.78 67.59 67.18 67.38 68.10 68.09 67.14 66.02 65.42 66.27 65.23 65.43 66.31 67.07 69.25 68.75 68.22 67.27 66.56 66.01 66.34
66.49 66.71 66.67 66.98 67.48 67.50 68.27 68.11 68.69 68.85 69.00 69.30 69.88 69.45 69.15 68.90 69.17 69.29 68.32 68.11 68.40 68.60 67.91 67.55 66.52 66.93 66.98 66.67 66.22 65.20 64.53 65.78 64.71 64.39 65.00 66.82 68.70 68.37 67.25 66.40 65.78 65.20 65.45
65.75 65.52 65.76 66.26 66.23 66.08 66.41 68.17 68.67 69.18 68.62 68.51 68.98 68.78 67.55 68.53 68.07 68.60 67.92 67.23 67.45 67.20 67.64 67.48 66.89 66.36 65.94 65.78 65.35 64.97 64.73 65.30 65.11 64.24 64.36 67.23 68.55 68.45 67.35 66.02 65.03 64.77 64.39
64.87 64.86 65.47 65.68 65.97 65.90 67.79 66.64 66.23 67.52 66.28 66.33 66.98 67.32 67.66 67.16 66.94 68.00 67.50 66.83 66.96 66.92 66.83 67.28 66.47 65.58 65.07 63.33 64.19 65.13 64.48 64.55 64.46 64.11 65.04 66.36 68.39 68.37 67.40 65.89 64.74 64.09 64.53
66.34 66.47 66.38 66.00 66.38 66.64 66.81 66.09 65.98 65.43 64.44 65.04 65.61 66.42 66.33 66.60 66.73 66.85 67.37 66.89 66.26 66.81 66.08 65.65 64.39 63.23 62.27 62.09 63.43 62.98 64.02 63.78 64.07 64.40 65.38 65.74 67.50 67.98 67.06 65.48 64.32 63.67 64.03
66.74 67.32 67.28 66.90 67.05 67.41 66.93 65.82 66.12 65.64 64.88 64.60 65.31 65.97 65.79 65.35 64.92 65.28 66.05 66.13 65.58 64.24 62.87 62.87 61.89 61.56 61.49 61.88 62.63 63.03 63.74 63.46 63.78 64.23 64.56 64.48 66.40 67.36 66.65 65.66 64.35 63.52 63.05
66.45 67.15 67.63 67.52 67.23 67.48 67.00 66.44 66.48 66.03 65.58 65.31 65.60 66.06 65.43 64.95 64.25 64.59 64.79 64.99 64.91 63.77 62.90 61.89 61.17 61.14 60.84 61.33 61.47 62.45 62.69 63.50 63.29 64.00 64.33 63.80 64.85 66.26 65.91 65.26 64.35 63.69 63.45
67.37 67.15 67.66 67.62 67.82 67.76 67.79 66.76 66.64 66.57 66.04 65.77 66.10 66.11 64.90 65.21 64.15 64.06 64.20 64.26 64.12 64.13 63.30 62.43 61.88 61.33 60.62 61.00 60.69 62.51 63.01 63.44 63.15 63.41 63.50 63.31 62.82 64.20 64.78 64.52 64.05 63.88 63.64
67.33 67.95 67.23 67.36 67.64 67.20 67.78 67.25 66.62 66.81 65.93 65.27 66.11 65.50 65.06 64.88 64.47 63.74 63.59 63.44 63.41 64.18 63.37 62.08 61.17 61.45 60.23 61.30 60.53 61.75 62.95 62.93 62.69 62.68 62.76 62.63 62.21 61.81 62.74 63.77 64.03 64.58 64.00
66.50 66.84 67.54 67.93 67.01 67.11 67.10 67.01 66.27 66.69 65.85 65.12 65.81 66.38 65.07 64.61 64.75 63.89 63.37 63.20 63.51 62.88 62.89 62.18 62.24 62.01 61.38 61.14 60.30 60.60 61.43 62.24 62.09 62.36 62.29 61.66 61.28 60.96 61.02 61.99 63.17 64.18 63.81
62.92 66.31 66.71 67.08 66.11 67.26 66.86 66.51 65.60 65.55 65.36 64.96 64.46 64.75 66.03 64.27 64.28 64.16 63.53 63.13 62.99 62.71 62.51 62.16 62.52 62.53 61.30 60.80 60.44 60.32 61.02 61.24 61.35 62.53 61.67 60.93 59.83 58.38 58.49 61.05 61.75 61.82 62.66
53.76 65.67 66.49 66.71 66.18 66.92 66.04 65.05 64.11 64.07 64.05 65.11 64.58 64.49 64.87 65.07 63.99 63.51 63.02 62.83 62.60 61.91 62.43 62.72 62.57 62.00 60.70 60.36 60.78 60.79 60.10 59.91 60.71 60.97 60.73 60.63 59.66 58.47 58.34 59.21 61.23 60.30 60.72
50.61 63.81 65.59 65.67 65.69 65.98 65.27 64.25 63.32 63.06 62.89 63.95 64.66 64.79 64.44 65.19 64.31 63.49 62.80 62.15 61.73 61.63 62.21 61.93 61.49 60.46 59.51 60.37 59.77 59.30 59.10 58.37 58.45 59.31 59.83 59.43 58.68 58.37 57.91 58.73 59.40 60.55 60.30
50.72 62.06 64.93 65.54 65.24 65.66 66.44 66.02 64.83 64.43 63.24 63.29 63.89 64.58 64.63 64.27 64.36 63.87 62.94 62.01 61.21 60.50 60.74 61.42 60.96 59.81 59.62 60.62 58.23 58.16 54.93 55.54 56.60 58.32 57.97 57.71 57.45 58.30 58.09 58.49 58.53 58.65 58.76
53.55 55.81 63.68 64.03 64.64 65.48 65.83 64.96 62.27 61.77 61.63 61.30 61.68 62.28 63.38 64.07 63.71 63.64 62.94 62.44 61.33 61.43 61.13 61.51 61.44 59.93 58.42 59.81 59.22 56.66 52.36 51.45 54.09 55.57 56.50 56.83 56.51 57.08 57.47 58.14 58.39 58.73 58.45
50.08 52.66 54.06 63.29 64.66 64.45 63.04 64.20 62.67 62.48 61.28 62.50 62.73 62.01 62.45 63.31 62.94 62.67 61.76 61.67 61.33 62.30 62.34 61.94 62.24 60.95 59.18 57.62 58.63 59.04 56.00 55.44 52.41 51.60 55.09 56.22 56.93 57.01 56.83 57.70 57.84 58.04 58.17
46.71 47.76 50.74 51.41 56.44 59.20 63.32 63.55 62.52 62.61 62.45 60.38 61.05 60.96 61.91 62.07 61.99 62.80 61.35 60.89 61.01 62.03 62.24 61.56 61.26 61.07 60.15 59.29 58.51 57.85 55.93 55.17 54.89 53.70 51.88 52.87 54.82 57.47 57.18 57.58 57.70 57.39 57.59
44.51 45.01 47.03 47.17 49.48 51.81 56.14 63.49 63.02 61.86 60.58 60.32 60.25 60.15 61.15 61.61 61.70 62.24 61.67 61.55 61.65 61.28 60.77 60.93 61.33 61.04 60.45 60.04 59.70 58.37 56.30 54.38 53.24 53.42 51.72 52.24 53.18 53.69 55.42 57.20 56.86 56.90 57.00

GFSSE_sfc_wetblb_111.txt.gz
Wetbulb
67.90 70.48 72.18 72.75 73.08 72.92 72.65 72.33 72.15 72.49 72.76 73.56 73.67 73.78 73.82 73.95 73.80 73.54 73.58 73.94 74.12 74.11 73.96 73.61 73.99 73.87 73.79 73.24 73.52 72.94 72.47 72.20 71.56 72.52 72.56 72.62 72.43 72.43 72.17 71.91 71.83 70.33 71.66
68.91 71.00 71.54 72.49 72.98 72.96 72.71 72.50 72.42 72.66 73.01 73.42 73.64 73.53 73.46 73.66 73.86 73.85 73.70 74.00 74.22 74.34 73.44 73.22 73.89 73.74 73.17 72.54 72.30 72.14 71.97 71.60 71.15 71.76 72.19 72.53 71.93 71.66 71.74 71.33 71.24 70.53 71.37
68.85 70.79 71.55 72.01 72.55 72.81 72.97 72.86 72.90 73.29 73.46 73.39 73.36 73.40 73.53 73.73 73.88 73.95 73.91 73.57 73.20 73.52 73.14 72.99 73.05 72.82 72.62 72.37 71.95 71.75 71.60 71.23 71.10 71.19 71.46 69.34 69.67 71.26 71.23 71.21 71.33 71.34 70.84
69.56 70.45 71.26 71.72 72.12 72.71 72.50 72.62 72.93 73.45 73.41 73.23 73.27 73.53 73.55 73.76 73.83 73.85 73.62 72.69 73.07 73.41 73.22 72.74 72.70 72.49 72.25 71.84 71.33 71.19 71.13 70.58 70.29 70.08 68.29 69.06 69.57 71.14 70.96 70.79 70.77 70.53 70.44
69.32 70.24 70.77 71.25 71.75 72.27 72.27 72.41 72.79 73.00 72.68 72.70 72.80 73.47 73.54 73.65 73.65 73.47 72.60 71.92 72.63 73.17 73.20 72.60 72.52 72.06 71.31 70.62 70.42 70.29 70.14 69.58 69.00 68.25 67.83 69.01 69.27 70.06 70.99 70.61 70.23 70.19 69.88
68.82 69.62 69.96 70.20 71.12 72.20 72.25 72.35 72.51 72.38 71.83 72.02 72.37 72.99 73.35 73.45 73.36 72.69 71.29 71.42 72.24 72.84 73.02 72.38 72.00 71.27 70.06 69.57 69.57 69.51 69.20 68.55 67.86 66.69 67.91 69.39 68.69 70.35 70.56 69.68 69.65 69.43 69.26
67.17 68.56 69.71 69.17 70.49 71.59 72.44 72.49 72.31 71.91 71.41 71.60 72.13 72.43 72.78 73.22 72.79 71.20 70.73 70.88 71.35 71.54 71.99 71.89 71.24 70.29 69.53 69.13 68.90 68.35 67.95 67.72 66.76 66.06 67.72 67.99 68.46 70.42 70.01 69.49 69.60 69.41 69.13
66.56 67.97 69.10 69.93 70.22 70.58 71.50 71.55 71.15 71.15 71.10 71.22 71.49 71.81 72.39 72.16 71.42 70.60 70.37 70.18 70.44 70.52 70.55 70.46 69.83 69.53 68.85 68.67 67.97 67.10 66.74 67.12 66.36 65.93 67.46 67.64 69.53 69.77 69.26 68.68 68.47 68.05 67.74
66.69 67.07 67.86 68.76 69.82 69.55 69.19 69.46 69.73 70.25 70.52 70.46 70.62 70.79 70.80 70.23 69.81 70.08 69.78 69.66 69.73 69.29 69.13 69.21 68.91 68.45 68.36 67.96 67.16 66.14 65.96 66.23 65.27 65.26 66.78 67.53 69.31 69.33 68.66 68.14 67.37 66.80 66.78
65.72 66.17 66.55 66.70 67.41 67.36 67.93 68.43 68.81 69.33 69.48 69.50 69.81 69.49 69.11 69.05 69.22 68.77 68.59 68.76 69.00 68.75 68.72 67.98 66.92 67.31 67.63 66.94 66.18 65.42 65.46 65.93 65.05 64.66 64.96 66.97 69.05 68.96 67.91 67.16 66.60 66.00 65.31
64.52 64.95 65.94 66.39 66.12 66.05 66.10 67.95 69.10 69.53 69.28 69.10 69.32 68.76 67.48 68.47 68.72 67.72 66.27 67.32 68.14 68.09 67.50 67.04 66.51 66.04 66.32 66.18 65.62 64.83 65.58 64.86 64.75 64.54 65.01 67.17 68.59 68.33 67.29 66.35 65.67 65.12 65.25
63.10 63.81 65.24 65.83 65.80 65.55 67.54 66.01 65.85 67.84 67.43 67.79 68.22 68.24 67.61 67.03 67.55 67.68 66.58 66.79 67.05 66.85 66.64 66.55 65.96 65.36 64.79 63.34 64.54 64.83 64.99 64.91 64.55 64.64 65.57 66.77 68.51 68.02 67.16 65.92 65.00 64.77 64.91
63.85 64.10 64.46 65.02 65.40 65.51 66.44 66.57 64.78 64.94 64.69 65.12 65.79 66.89 66.26 66.06 66.87 66.64 66.47 65.69 64.95 65.82 64.12 65.00 64.28 62.50 61.46 61.74 62.75 62.58 63.26 64.76 64.82 64.98 65.36 66.00 67.61 68.14 67.29 65.84 64.81 64.28 64.11
63.60 63.70 64.30 64.69 65.18 65.56 65.83 66.15 65.42 64.67 63.40 63.76 65.08 65.85 66.12 65.69 65.30 66.26 66.34 65.98 65.36 65.08 64.20 62.84 61.91 61.14 60.76 61.20 61.76 61.88 63.08 63.19 63.50 64.47 64.94 64.89 66.52 67.89 67.33 66.26 64.94 64.17 63.33
64.45 64.74 64.55 64.83 65.01 65.77 65.43 65.28 64.81 64.24 64.00 63.91 64.90 65.45 65.79 65.20 64.83 65.64 65.91 65.67 65.24 64.13 62.59 61.25 60.58 60.36 60.25 60.18 60.73 61.47 62.18 62.89 63.64 64.09 64.40 63.77 64.85 66.73 66.73 66.06 65.15 64.12 63.57
65.66 65.94 65.87 65.13 65.35 66.25 65.79 65.03 65.27 64.97 64.07 63.63 64.72 65.29 65.03 65.23 64.39 64.93 64.57 64.56 64.43 63.28 61.69 61.46 60.52 59.80 59.46 59.81 60.94 62.15 61.99 62.09 63.05 63.53 64.16 63.97 63.05 64.65 65.87 65.47 64.43 64.14 63.65
65.75 66.53 66.45 66.09 66.20 66.11 66.22 65.46 65.52 65.70 65.32 64.52 64.95 64.68 64.62 64.44 63.85 64.01 64.43 63.69 63.60 63.05 61.22 60.40 59.68 59.78 59.06 59.88 59.51 60.67 61.49 61.75 62.24 63.54 63.35 63.29 62.97 61.99 63.13 64.51 64.38 64.06 63.67
65.97 66.19 66.79 67.57 66.38 66.36 66.56 66.06 66.04 66.10 65.45 64.84 64.97 65.22 64.33 64.25 63.82 63.31 63.32 63.19 62.51 62.73 62.26 60.72 60.87 60.60 60.86 60.34 58.53 59.50 60.54 61.10 61.64 62.80 62.98 62.76 62.32 62.04 61.59 62.54 63.24 63.84 63.53
65.76 66.52 66.36 66.63 66.29 66.18 66.94 66.83 65.79 65.84 65.47 64.73 65.24 65.18 64.05 64.05 63.69 63.37 62.84 62.65 62.28 61.99 61.94 61.39 61.57 60.65 60.36 60.14 60.65 60.06 59.88 59.70 61.07 62.68 62.06 62.07 61.63 59.86 59.35 61.07 61.41 61.87 62.68
62.11 65.79 66.64 66.58 66.25 66.36 66.24 65.35 63.72 64.81 64.61 64.52 64.80 65.03 64.54 64.44 63.73 63.32 62.63 61.93 62.04 61.72 61.38 61.24 60.79 61.82 61.37 60.26 60.83 60.69 60.70 58.83 60.38 61.66 61.54 61.98 60.83 59.06 58.32 58.54 59.63 60.31 60.57
48.43 62.73 65.42 65.58 65.44 66.00 64.96 64.41 63.75 63.93 64.21 64.05 64.43 64.55 64.55 64.10 63.39 63.00 62.65 61.73 61.55 61.41 61.44 61.46 61.73 61.46 60.52 60.51 59.11 59.06 59.56 58.87 59.82 60.80 61.25 60.89 60.12 58.54 58.05 58.28 58.63 60.05 60.31
51.57 52.91 61.22 64.89 64.95 65.80 65.45 65.18 64.85 64.85 63.49 64.09 64.01 63.77 64.39 64.15 63.69 63.31 62.46 61.69 61.15 61.21 61.40 61.87 61.04 59.98 60.16 60.35 57.79 57.51 54.59 55.62 57.55 59.09 59.84 59.81 58.92 58.76 58.11 58.35 58.64 58.58 59.83
46.66 48.98 58.64 63.01 64.55 65.14 65.05 64.92 62.24 62.28 61.83 60.00 63.02 63.83 63.74 63.91 64.06 63.71 62.72 62.70 61.56 62.03 61.54 61.59 60.94 60.34 58.68 59.49 59.80 56.86 53.12 52.01 54.76 56.66 57.29 57.87 57.70 57.47 57.88 57.96 57.81 58.14 57.58
44.25 45.95 49.12 59.98 64.89 65.14 65.23 64.96 63.11 63.11 62.06 62.47 62.60 64.09 64.53 63.77 63.02 63.93 63.82 62.95 62.02 62.39 61.87 61.99 61.43 60.87 60.25 58.23 59.08 59.76 56.68 55.41 53.19 50.75 55.82 56.64 57.20 57.04 56.57 57.01 57.54 57.71 57.48
42.86 43.32 46.44 49.29 51.42 53.15 63.05 65.04 63.71 62.94 63.37 60.50 60.86 60.63 62.42 63.23 63.08 63.34 63.15 62.88 62.61 62.74 62.70 62.27 61.71 61.34 60.86 59.82 58.82 58.54 56.68 55.79 55.74 53.22 52.07 53.73 56.14 56.78 57.13 56.70 57.22 57.49 57.51
41.30 41.66 43.64 45.05 47.21 49.31 50.68 55.95 63.25 62.67 62.10 60.29 60.73 60.05 60.87 61.46 62.68 63.05 62.84 62.39 62.17 62.05 61.53 61.90 61.94 61.37 60.99 60.21 59.85 59.38 58.11 55.20 54.17 53.66 52.81 53.66 54.04 55.67 56.91 56.81 56.80 57.16 57.10

GFSSE_sfc_wetblb_114.txt.gz
Wetbulb
66.21 70.21 72.03 73.00 73.19 72.78 72.45 72.19 72.20 72.51 73.19 73.95 74.23 74.21 73.85 74.01 73.80 73.58 73.83 74.03 74.45 74.69 74.19 73.84 74.12 74.22 74.17 74.54 73.79 73.26 72.80 72.32 72.03 72.70 72.81 73.03 72.73 72.53 72.10 72.31 71.87 70.90 72.28
67.49 70.79 71.53 72.61 73.06 72.78 72.62 72.23 72.26 72.70 73.42 73.69 73.77 73.84 73.64 73.59 73.55 73.58 73.70 73.93 74.30 74.27 73.74 73.59 74.02 74.07 73.80 73.81 72.86 72.38 71.86 71.57 71.56 72.03 72.49 72.98 72.38 72.16 71.94 71.51 71.24 71.05 71.68
68.53 70.54 71.05 72.10 72.68 72.71 72.64 72.62 72.71 73.07 73.52 73.57 73.31 73.48 73.51 73.67 73.59 73.54 73.58 73.70 73.98 74.04 73.67 73.27 73.77 73.07 72.68 72.62 71.94 71.86 71.58 71.36 71.32 71.65 71.91 69.82 70.40 71.79 71.43 71.39 71.39 71.42 71.14
69.36 70.26 70.66 71.67 72.30 72.60 72.48 72.58 72.87 73.33 73.39 73.38 73.33 73.45 73.77 74.01 73.93 73.77 73.20 72.91 73.42 73.81 73.99 73.12 72.84 72.83 72.41 71.73 71.63 71.38 71.30 70.79 70.69 70.28 69.14 69.87 70.47 71.44 70.99 70.97 70.97 71.08 70.96
68.92 70.27 70.60 71.29 71.47 72.23 72.38 72.42 72.65 72.67 72.59 72.83 73.01 73.60 73.74 73.93 73.91 73.47 72.47 72.37 73.14 73.66 73.80 73.09 72.80 72.61 71.48 70.65 70.79 70.79 70.45 69.87 69.11 68.69 68.98 69.38 69.72 70.36 71.02 70.93 71.18 70.96 70.45
68.60 69.92 69.84 70.22 70.98 71.87 72.09 72.45 72.34 72.19 71.59 72.01 72.55 73.23 73.67 73.87 73.74 73.02 71.82 71.89 72.94 73.46 73.10 73.30 72.87 71.71 70.34 69.81 69.90 69.72 69.27 68.84 67.79 67.77 68.64 69.79 69.14 70.75 70.97 70.31 69.87 69.63 69.71
67.97 68.71 69.71 69.48 70.58 71.58 72.25 72.34 72.01 71.46 71.19 71.66 72.22 72.55 72.85 73.22 73.08 71.98 71.10 71.66 72.28 72.80 72.83 72.57 71.66 70.47 69.83 69.36 69.36 68.84 68.24 67.85 66.98 67.07 68.33 68.54 68.79 70.43 70.40 69.87 69.69 69.37 69.36
67.16 68.44 69.12 70.24 70.40 70.94 71.38 71.52 70.94 70.78 70.79 71.08 71.62 72.07 72.53 72.35 71.31 70.90 70.73 70.98 71.25 71.37 71.54 71.10 70.24 69.77 69.26 69.02 68.44 67.68 67.12 67.31 66.87 66.89 68.19 68.46 69.26 70.06 70.04 69.66 69.28 68.66 68.52
66.64 68.04 68.96 69.50 69.91 69.91 69.64 69.71 69.60 69.95 70.28 70.50 70.61 70.91 71.18 70.53 69.89 70.20 70.12 70.32 70.27 70.33 70.29 69.81 69.30 68.88 68.75 68.26 67.63 66.60 66.22 66.51 66.11 66.60 67.80 68.52 69.42 69.82 69.26 68.97 67.96 67.96 67.54
64.96 66.83 67.49 68.40 68.69 68.44 69.39 68.87 68.94 69.10 69.21 69.54 69.76 69.63 69.30 69.21 69.24 69.26 69.09 69.46 69.55 69.29 69.38 69.09 68.38 67.99 68.19 67.25 66.45 66.00 65.50 66.07 65.61 66.02 66.20 67.28 69.12 69.79 69.03 67.93 67.28 66.54 66.66
64.61 65.64 66.49 66.92 67.95 67.20 67.09 69.05 69.48 69.66 69.30 68.71 69.36 68.78 67.52 68.49 68.31 68.06 67.65 68.21 68.51 68.15 67.82 67.55 67.38 67.12 66.72 66.47 65.96 65.71 65.79 65.63 65.29 65.07 65.38 66.88 69.12 69.47 68.22 67.35 66.66 65.90 65.46
62.37 64.00 65.51 66.45 66.81 66.46 67.50 68.17 68.69 69.79 69.88 68.94 68.60 68.06 67.45 67.61 67.14 66.47 65.85 66.83 67.38 67.16 66.42 66.12 65.68 65.82 64.85 63.85 64.13 65.54 64.69 64.68 64.97 64.58 64.79 66.27 68.47 68.67 67.55 66.51 66.02 65.30 65.57
62.29 63.49 64.96 65.71 66.20 66.56 66.94 67.16 67.50 68.15 67.99 67.95 67.00 67.09 66.09 67.25 67.11 65.44 64.51 65.17 64.72 66.07 64.27 64.69 63.87 62.58 61.89 62.65 62.70 62.96 64.21 64.50 64.86 64.88 65.31 65.44 67.80 68.62 67.50 66.32 65.51 64.87 64.78
61.80 62.65 64.01 64.99 65.28 65.79 66.40 66.29 66.56 66.58 65.55 66.07 66.34 66.25 66.48 66.46 66.44 66.53 65.08 63.90 63.65 63.22 62.60 62.72 61.64 61.03 60.72 61.75 62.27 62.23 63.07 63.36 63.99 64.99 65.11 64.39 66.44 68.57 67.69 66.55 65.64 64.67 63.90
62.13 62.62 63.29 64.05 64.57 65.23 65.24 65.45 65.15 65.75 64.92 64.51 65.14 66.23 66.37 66.24 65.80 66.38 66.02 64.53 64.93 64.73 63.51 61.58 60.76 60.45 60.06 60.68 61.23 61.52 62.26 62.79 63.63 64.29 64.92 64.11 64.16 66.95 67.78 67.02 65.86 64.84 63.79
63.76 62.80 63.27 63.56 64.01 64.98 64.57 64.67 64.64 64.52 63.20 63.59 65.26 66.40 65.36 65.67 65.65 65.62 65.42 65.24 64.97 64.18 61.38 61.28 60.73 59.81 59.51 59.84 60.05 60.91 61.54 62.16 62.97 63.48 64.11 64.16 63.03 64.42 66.32 66.56 65.69 64.60 63.96
64.89 64.61 63.28 63.44 63.77 64.23 63.92 63.91 64.20 64.23 63.36 63.50 64.42 65.45 64.79 64.45 64.89 65.14 64.86 64.49 64.42 63.58 60.89 60.39 59.67 59.29 59.75 59.76 59.51 60.44 61.17 61.62 62.09 63.19 63.52 63.72 63.50 62.29 63.56 65.02 65.37 64.87 63.95
65.03 64.93 65.11 64.69 64.07 64.31 64.69 64.19 64.32 64.23 63.98 63.62 63.93 65.23 64.27 64.14 63.90 64.39 64.17 63.90 64.19 62.92 61.10 60.21 60.29 59.87 59.47 60.37 59.46 59.16 60.43 61.13 61.57 62.81 63.15 63.25 63.48 63.57 62.64 63.09 63.91 64.24 63.67
64.86 65.41 65.71 65.53 64.56 64.56 65.21 65.01 64.42 64.37 64.42 63.68 64.08 64.75 64.37 63.58 63.36 63.49 64.05 63.66 63.18 62.77 62.21 61.50 60.74 59.30 58.82 59.91 60.08 59.35 59.45 59.71 61.62 62.99 62.64 62.77 62.67 62.00 61.65 61.77 61.75 61.95 62.70
64.63 65.65 65.94 66.20 65.60 65.39 66.13 65.93 65.48 65.19 64.83 64.68 64.16 64.11 63.78 63.96 63.09 62.90 62.32 62.03 62.82 62.34 62.14 61.57 61.20 61.23 59.10 60.20 60.45 60.32 61.04 60.37 61.30 61.20 62.10 62.63 62.39 61.39 60.24 60.40 61.25 60.35 60.38
50.73 62.94 65.52 65.37 65.54 65.96 65.75 64.68 63.82 63.63 63.95 64.36 64.57 64.33 63.83 63.47 63.13 62.75 61.99 61.21 62.37 62.03 61.65 61.08 60.64 60.24 60.12 60.65 59.49 59.21 60.09 60.05 60.09 61.44 62.07 61.91 61.50 60.92 60.12 59.28 59.80 59.76 60.53
47.41 50.45 58.34 64.85 64.93 65.80 65.95 65.57 64.98 65.21 65.07 64.82 64.93 64.41 63.97 63.27 62.93 63.05 62.80 61.95 62.11 62.06 61.53 61.17 61.17 60.54 60.29 60.69 57.88 57.56 54.52 55.87 58.61 60.45 60.99 61.13 60.76 60.26 59.23 59.00 59.14 59.53 60.76
43.06 45.10 51.06 61.89 64.53 65.39 65.76 65.58 62.42 63.38 62.86 63.33 63.66 63.55 63.65 63.39 62.98 62.88 63.01 62.59 61.84 62.25 61.36 61.70 61.53 60.77 58.86 59.65 59.68 57.63 53.78 52.87 54.59 57.34 58.90 59.89 59.48 59.12 59.19 58.78 58.73 59.12 59.62
41.19 44.25 45.94 53.16 61.74 64.97 65.98 65.07 63.82 63.05 62.41 63.63 64.27 64.60 63.99 63.10 64.04 63.58 63.14 62.63 62.29 62.29 61.97 62.02 62.06 61.23 60.40 58.08 59.44 59.91 57.92 56.38 53.87 51.24 56.27 57.92 58.82 58.50 58.03 58.08 58.13 58.47 58.85
40.62 42.00 44.22 48.98 49.73 51.01 54.91 65.22 64.26 63.50 62.99 61.32 62.00 63.51 63.90 63.85 63.81 63.73 63.62 63.08 62.69 62.45 62.63 62.30 61.74 61.18 61.06 60.21 59.03 58.56 58.61 56.30 56.20 53.40 51.87 54.06 56.86 58.01 57.79 57.94 58.11 58.04 58.18
39.96 41.52 43.54 46.12 46.43 48.15 50.61 52.36 60.98 63.69 62.84 60.87 61.30 62.15 62.74 62.91 62.75 63.43 63.49 63.36 63.12 62.84 62.50 62.27 62.20 61.59 61.13 60.97 60.49 59.72 58.41 56.55 54.60 53.93 53.27 54.50 54.60 56.26 57.63 57.43 57.14 57.45 58.04

GFSSE_sfc_wetblb_117.txt.gz
Wetbulb
68.92 72.83 72.30 73.08 73.00 72.81 72.60 72.51 72.48 73.21 73.94 74.53 73.94 73.55 73.62 73.81 73.68 73.99 74.37 74.53 74.62 74.94 74.62 74.60 74.40 74.74 74.80 74.62 74.34 73.91 73.45 73.04 72.81 73.18 73.39 73.40 73.10 72.83 72.57 72.69 72.20 71.93 72.34
70.35 73.14 71.76 72.70 73.00 72.83 72.79 72.58 72.43 73.15 74.05 74.53 73.98 73.54 73.53 73.67 73.62 73.90 74.12 74.31 73.51 74.64 74.17 74.30 74.52 74.45 74.77 73.59 73.22 72.67 72.41 71.99 72.07 72.48 72.62 72.90 72.53 72.71 72.20 72.04 71.79 71.94 71.91
71.23 72.81 72.98 72.19 72.71 72.79 72.73 72.77 72.87 73.47 74.12 74.35 74.03 73.84 73.70 73.83 73.73 73.75 73.87 74.03 74.30 74.62 74.44 73.97 74.07 74.20 74.00 73.01 72.30 72.12 71.94 71.86 71.84 71.93 71.86 72.04 71.38 71.94 71.80 71.94 71.57 71.92 71.71
71.72 72.46 73.01 71.93 72.27 72.45 72.50 72.48 72.82 73.52 73.87 73.93 73.94 73.70 73.67 73.80 73.83 73.70 73.48 73.33 73.82 74.12 74.17 73.49 73.29 73.35 73.16 72.11 71.65 71.78 71.65 71.18 70.93 70.78 71.90 70.96 71.69 71.86 71.58 71.62 71.59 71.62 71.47
71.44 72.30 72.72 71.39 71.76 72.21 72.18 72.44 72.57 73.03 73.05 73.18 73.46 74.02 73.99 73.80 73.95 73.64 73.05 72.87 73.59 73.99 74.07 73.79 73.47 73.02 71.77 71.00 70.99 70.99 70.90 70.34 69.42 70.75 70.50 70.80 71.99 71.08 71.54 71.36 71.36 71.27 70.85
71.23 72.04 71.08 70.54 71.14 71.96 72.21 72.43 72.45 72.17 71.95 72.31 72.80 73.57 73.94 74.05 73.87 73.08 72.33 72.60 73.49 73.74 73.97 73.77 73.52 71.80 70.48 70.20 70.22 70.15 69.76 69.01 69.02 71.06 70.05 70.58 70.59 71.18 71.22 70.91 70.00 70.63 70.31
70.87 71.91 72.04 69.78 70.74 71.72 72.33 72.39 72.13 71.59 71.56 71.83 72.52 73.01 73.33 73.70 73.37 72.22 71.61 72.14 72.87 73.17 73.35 73.09 71.95 70.79 69.97 69.62 69.78 69.10 68.63 68.32 71.09 70.38 69.27 70.34 70.36 70.80 70.97 70.20 69.95 69.91 69.83
70.73 71.47 72.06 70.63 70.59 70.96 71.49 71.56 70.92 70.82 71.02 71.48 71.84 72.48 72.86 72.72 72.22 71.63 71.22 71.56 71.80 72.03 71.94 71.38 70.55 70.19 69.71 69.39 68.81 68.07 67.40 67.73 69.64 69.84 70.04 69.75 70.30 70.57 70.43 69.93 69.42 69.00 69.07
70.58 70.94 71.38 72.11 71.80 69.81 69.65 69.83 69.62 69.77 70.33 70.76 71.06 71.21 71.60 70.92 70.41 70.70 70.77 70.98 71.20 70.88 70.76 70.20 69.74 69.28 69.21 68.81 67.96 67.06 66.55 66.93 70.18 69.71 69.37 70.16 69.69 70.26 70.14 69.52 69.53 68.88 68.57
69.03 69.82 69.83 70.33 71.53 72.15 72.45 68.97 68.90 69.17 69.17 69.84 70.36 70.16 69.74 69.60 69.51 69.66 69.56 70.14 70.19 70.24 69.91 69.42 68.89 68.72 68.47 67.76 67.06 66.32 66.05 66.19 70.04 69.65 69.92 70.26 68.91 70.14 69.73 68.67 68.42 68.08 67.55
66.25 67.95 68.68 68.75 69.52 71.14 70.69 70.96 69.85 69.51 69.28 69.08 70.07 69.26 68.88 72.46 71.83 70.90 69.13 68.57 69.05 68.95 68.86 68.62 68.20 67.82 66.95 66.93 66.84 66.23 65.37 69.59 69.19 69.34 70.05 67.71 68.57 69.79 69.14 68.19 67.66 67.45 67.08
65.25 65.98 66.88 67.63 68.35 68.98 68.93 70.02 70.84 71.02 71.72 71.86 71.94 72.14 72.83 72.38 72.18 70.78 68.82 67.53 67.79 67.50 67.53 67.33 67.08 66.46 67.23 69.90 69.10 66.72 67.95 68.17 68.32 66.79 68.17 65.60 68.28 69.43 68.93 67.88 66.82 66.31 66.47
65.31 66.02 65.48 66.44 67.82 68.05 68.40 68.97 69.19 70.02 70.42 70.60 71.86 71.99 71.73 71.02 70.88 70.32 69.95 69.47 69.68 67.32 68.46 67.65 67.56 69.12 69.34 69.48 69.24 69.09 68.90 67.36 68.19 67.50 66.26 65.62 67.47 68.67 68.14 67.12 66.65 65.82 65.81
64.23 65.37 65.60 66.25 66.53 67.38 68.21 67.89 68.03 68.50 68.96 69.14 70.41 71.52 70.18 68.43 68.76 69.70 69.19 69.37 69.02 68.80 68.12 67.74 66.60 67.03 67.82 68.43 68.56 68.44 68.44 67.13 68.27 67.35 65.92 65.06 66.37 67.84 67.98 66.89 66.17 65.26 64.52
64.58 65.10 65.62 65.48 65.37 66.30 66.83 67.01 67.08 67.43 67.64 68.00 69.22 69.58 70.13 68.19 67.75 69.08 68.80 68.57 68.24 68.15 67.84 67.41 66.64 65.99 66.20 67.18 67.80 67.66 67.11 67.80 68.00 68.09 68.16 64.18 64.97 66.94 67.52 67.46 66.25 65.30 64.36
66.29 65.70 66.15 65.34 65.24 66.02 66.10 66.30 66.54 66.80 67.03 67.43 68.01 68.65 69.48 68.47 67.64 67.53 67.84 67.61 68.09 67.85 66.20 67.25 66.50 66.04 65.91 66.47 66.41 66.88 66.90 67.25 67.70 67.85 68.30 66.99 63.44 64.34 66.12 66.73 66.54 65.63 64.65
66.03 67.14 66.26 66.42 66.87 65.93 65.46 66.01 65.40 65.96 67.41 68.71 67.85 68.23 68.62 68.45 67.09 67.19 67.34 67.11 67.86 67.35 65.68 66.97 66.65 66.30 65.39 65.22 65.48 65.70 65.99 66.47 66.81 66.34 66.89 67.16 65.05 62.66 63.50 65.45 65.47 65.75 64.64
61.63 66.84 66.85 66.20 66.35 66.58 66.11 65.67 65.29 66.41 67.81 68.44 68.08 66.91 66.97 67.91 67.85 66.95 66.18 66.63 68.01 65.63 64.96 65.86 64.53 64.45 65.01 64.49 64.33 64.74 64.92 65.63 65.92 66.50 66.50 66.34 66.76 65.43 63.10 63.49 64.33 64.52 64.73
58.34 66.39 67.18 66.98 66.13 66.77 66.99 66.92 66.88 66.68 67.26 67.80 67.96 66.31 66.12 67.47 68.02 66.93 66.14 65.88 65.99 65.45 64.40 64.48 63.12 64.18 62.92 64.03 63.47 63.90 64.39 64.66 64.90 65.08 65.13 65.35 65.87 66.00 64.49 62.81 62.55 62.58 63.34
55.99 65.94 68.02 67.10 66.87 67.03 67.05 66.53 66.45 65.73 66.28 67.25 67.34 67.30 66.37 66.76 67.23 66.93 66.23 65.83 65.16 64.47 63.33 63.94 63.36 63.95 64.44 64.49 62.20 62.24 63.12 63.56 64.70 63.89 63.79 64.77 65.54 65.61 64.72 62.78 62.92 62.40 60.71
56.43 64.03 67.15 67.19 66.63 66.06 65.85 64.62 63.73 63.16 64.00 64.70 67.03 67.34 66.55 66.19 66.58 66.92 65.32 64.61 64.18 63.41 63.05 63.36 63.14 62.74 62.57 64.41 61.92 60.40 61.63 62.63 62.25 62.57 63.10 63.39 63.77 64.08 64.15 61.91 62.51 63.09 62.30
50.09 54.11 66.35 67.32 67.21 65.98 66.21 65.95 66.40 65.47 65.38 65.30 65.70 65.78 66.50 66.93 66.01 66.18 65.43 63.74 63.40 63.28 63.06 62.73 62.63 61.29 61.76 62.87 59.70 58.96 55.91 58.56 60.34 61.98 63.06 62.62 63.12 63.46 62.27 61.27 61.19 62.52 62.48
47.09 49.52 53.94 64.84 67.75 67.21 66.81 66.60 66.41 66.16 66.23 64.95 64.70 64.68 65.01 66.86 66.39 66.31 65.70 64.79 63.85 63.54 62.82 62.55 62.31 62.35 59.99 60.95 61.54 59.49 55.15 54.10 57.13 59.62 61.03 61.75 62.24 61.61 62.03 62.11 59.91 60.79 62.74
44.92 47.86 51.94 56.34 65.80 66.78 66.47 66.31 64.92 64.35 63.04 64.76 65.22 65.34 64.57 65.66 65.77 66.20 65.56 65.21 64.39 63.92 63.39 62.76 62.57 62.86 62.71 60.34 60.65 61.27 60.95 58.61 55.49 53.94 57.63 60.03 61.35 60.61 61.15 61.76 59.71 59.85 61.78
43.76 44.95 47.80 51.39 51.72 54.08 62.80 66.03 64.81 64.99 65.74 65.66 65.47 64.57 64.97 64.96 65.30 65.84 65.49 64.72 64.70 64.15 64.22 63.92 63.39 62.70 63.54 62.99 60.90 60.11 61.04 60.09 59.72 55.26 53.57 56.37 58.92 60.42 61.27 60.40 60.30 59.95 60.90
42.02 43.41 45.49 48.39 48.93 50.18 52.69 54.88 62.59 65.21 64.90 63.53 64.48 63.89 64.41 64.90 64.39 65.41 65.34 65.28 65.37 64.97 64.99 64.97 64.21 63.49 63.67 62.99 61.71 60.86 60.05 58.34 56.37 55.75 54.90 55.29 56.09 57.97 60.11 59.56 59.36 59.37 59.85